Wetterdaten: Donnerstag, 14.11.2024
Datum Zeit Temp. I. Temp. A. Feuchte I. Feuchte A. Luftdruck Regen Wind Richtung Richtung Sonnenschein Solar Taupunkt Windchill Windböen
14.11.2024 00:00 21,1 °C 1,4 °C 56 % 93 % 1027,6 hPa 0,0 l/m² 0,0 km/h (0 Bft) W 266 ° 0 min 0 W/m² 0,4 °C 1,4 °C 0,0 km/h (0 Bft)
14.11.2024 00:02 21,1 °C 1,4 °C 56 % 93 % 1027,6 hPa 0,0 l/m² 0,0 km/h (0 Bft) W 266 ° 0 min 0 W/m² 0,4 °C 1,4 °C 0,0 km/h (0 Bft)
14.11.2024 00:03 21,1 °C 1,4 °C 56 % 93 % 1027,6 hPa 0,0 l/m² 0,0 km/h (0 Bft) W 266 ° 0 min 0 W/m² 0,4 °C 1,4 °C 0,0 km/h (0 Bft)
14.11.2024 00:05 21,1 °C 1,4 °C 56 % 93 % 1027,5 hPa 0,0 l/m² 0,0 km/h (0 Bft) W 266 ° 0 min 0 W/m² 0,4 °C 1,4 °C 0,0 km/h (0 Bft)
14.11.2024 00:07 21,0 °C 1,4 °C 56 % 93 % 1027,5 hPa 0,0 l/m² 0,0 km/h (0 Bft) W 266 ° 0 min 0 W/m² 0,4 °C 1,4 °C 0,0 km/h (0 Bft)
14.11.2024 00:09 21,1 °C 1,4 °C 56 % 93 % 1027,5 hPa 0,0 l/m² 0,0 km/h (0 Bft) W 266 ° 0 min 0 W/m² 0,4 °C 1,4 °C 0,0 km/h (0 Bft)
14.11.2024 00:10 21,1 °C 1,4 °C 56 % 93 % 1027,4 hPa 0,0 l/m² 0,7 km/h (0 Bft) W 266 ° 0 min 0 W/m² 0,4 °C 1,4 °C 1,6 km/h (1 Bft)
14.11.2024 00:12 21,1 °C 1,4 °C 56 % 93 % 1027,5 hPa 0,0 l/m² 0,3 km/h (0 Bft) W 266 ° 0 min 0 W/m² 0,4 °C 1,4 °C 1,6 km/h (1 Bft)
14.11.2024 00:14 21,0 °C 1,4 °C 56 % 93 % 1027,4 hPa 0,0 l/m² 1,4 km/h (1 Bft) W 266 ° 0 min 0 W/m² 0,4 °C 1,4 °C 3,2 km/h (1 Bft)
14.11.2024 00:16 21,1 °C 1,3 °C 56 % 93 % 1027,4 hPa 0,0 l/m² 3,1 km/h (1 Bft) W 266 ° 0 min 0 W/m² 0,3 °C 1,3 °C 4,8 km/h (1 Bft)
14.11.2024 00:18 21,1 °C 1,3 °C 57 % 93 % 1027,3 hPa 0,0 l/m² 3,7 km/h (1 Bft) W 266 ° 0 min 0 W/m² 0,3 °C 1,3 °C 4,8 km/h (1 Bft)
14.11.2024 00:20 21,1 °C 1,3 °C 56 % 93 % 1027,4 hPa 0,0 l/m² 2,3 km/h (1 Bft) W 266 ° 0 min 0 W/m² 0,3 °C 1,3 °C 3,2 km/h (1 Bft)
14.11.2024 00:21 21,1 °C 1,3 °C 57 % 93 % 1027,3 hPa 0,0 l/m² 2,3 km/h (1 Bft) W 266 ° 0 min 0 W/m² 0,3 °C 1,3 °C 3,2 km/h (1 Bft)
14.11.2024 00:23 21,1 °C 1,3 °C 57 % 93 % 1027,3 hPa 0,0 l/m² 1,3 km/h (1 Bft) W 266 ° 0 min 0 W/m² 0,3 °C 1,3 °C 3,2 km/h (1 Bft)
14.11.2024 00:25 21,1 °C 1,3 °C 57 % 93 % 1027,3 hPa 0,0 l/m² 0,9 km/h (0 Bft) W 266 ° 0 min 0 W/m² 0,3 °C 1,3 °C 3,2 km/h (1 Bft)
14.11.2024 00:27 21,1 °C 1,3 °C 57 % 93 % 1027,2 hPa 0,0 l/m² 0,7 km/h (0 Bft) W 260 ° 0 min 0 W/m² 0,3 °C 1,3 °C 3,2 km/h (1 Bft)
14.11.2024 00:29 21,1 °C 1,3 °C 57 % 93 % 1027,2 hPa 0,0 l/m² 0,3 km/h (0 Bft) W-SW 256 ° 0 min 0 W/m² 0,3 °C 1,3 °C 1,6 km/h (1 Bft)
14.11.2024 00:31 21,1 °C 1,4 °C 57 % 94 % 1027,2 hPa 0,0 l/m² 1,2 km/h (1 Bft) S 169 ° 0 min 0 W/m² 0,5 °C 1,4 °C 4,8 km/h (1 Bft)
14.11.2024 00:32 21,1 °C 1,4 °C 57 % 93 % 1027,0 hPa 0,0 l/m² 2,3 km/h (1 Bft) SO 134 ° 0 min 0 W/m² 0,4 °C 1,4 °C 6,4 km/h (2 Bft)
14.11.2024 00:33 21,1 °C 1,4 °C 57 % 93 % 1027,1 hPa 0,0 l/m² 0,2 km/h (0 Bft) SO 134 ° 0 min 0 W/m² 0,4 °C 1,4 °C 1,6 km/h (1 Bft)
14.11.2024 00:34 21,1 °C 1,4 °C 57 % 93 % 1027,1 hPa 0,0 l/m² 3,8 km/h (1 Bft) O-NO 75 ° 0 min 0 W/m² 0,4 °C 1,4 °C 6,4 km/h (2 Bft)
14.11.2024 00:36 21,1 °C 1,4 °C 57 % 93 % 1027,1 hPa 0,0 l/m² 1,7 km/h (1 Bft) SO 128 ° 0 min 0 W/m² 0,4 °C 1,4 °C 3,2 km/h (1 Bft)
14.11.2024 00:38 21,1 °C 1,4 °C 57 % 93 % 1027,0 hPa 0,0 l/m² 0,0 km/h (0 Bft) SO 128 ° 0 min 0 W/m² 0,4 °C 1,4 °C 0,0 km/h (0 Bft)
14.11.2024 00:40 21,1 °C 1,4 °C 57 % 93 % 1027,1 hPa 0,0 l/m² 1,0 km/h (0 Bft) SO 130 ° 0 min 0 W/m² 0,4 °C 1,4 °C 3,2 km/h (1 Bft)
14.11.2024 00:41 21,1 °C 1,4 °C 57 % 93 % 1027,0 hPa 0,0 l/m² 0,0 km/h (0 Bft) SO 130 ° 0 min 0 W/m² 0,4 °C 1,4 °C 0,0 km/h (0 Bft)
14.11.2024 00:42 21,1 °C 1,4 °C 57 % 93 % 1027,0 hPa 0,0 l/m² 0,7 km/h (0 Bft) SO 127 ° 0 min 0 W/m² 0,4 °C 1,4 °C 3,2 km/h (1 Bft)
14.11.2024 00:43 21,1 °C 1,5 °C 57 % 93 % 1027,0 hPa 0,0 l/m² 2,1 km/h (1 Bft) O-SO 105 ° 0 min 0 W/m² 0,5 °C 1,5 °C 4,8 km/h (1 Bft)
14.11.2024 00:46 21,1 °C 1,4 °C 57 % 93 % 1027,0 hPa 0,0 l/m² 1,2 km/h (1 Bft) O-SO 109 ° 0 min 0 W/m² 0,4 °C 1,4 °C 4,8 km/h (1 Bft)
14.11.2024 00:47 21,1 °C 1,5 °C 57 % 93 % 1027,0 hPa 0,0 l/m² 1,7 km/h (1 Bft) O-SO 109 ° 0 min 0 W/m² 0,5 °C 1,5 °C 3,2 km/h (1 Bft)
14.11.2024 00:49 21,1 °C 1,4 °C 57 % 93 % 1027,0 hPa 0,0 l/m² 2,3 km/h (1 Bft) O-SO 108 ° 0 min 0 W/m² 0,4 °C 1,4 °C 4,8 km/h (1 Bft)
14.11.2024 00:51 21,1 °C 1,4 °C 57 % 93 % 1027,0 hPa 0,0 l/m² 2,5 km/h (1 Bft) O 98 ° 0 min 0 W/m² 0,4 °C 1,4 °C 4,8 km/h (1 Bft)
14.11.2024 00:52 21,1 °C 1,4 °C 57 % 93 % 1027,0 hPa 0,0 l/m² 0,8 km/h (0 Bft) O 98 ° 0 min 0 W/m² 0,4 °C 1,4 °C 3,2 km/h (1 Bft)
14.11.2024 00:54 21,1 °C 1,4 °C 57 % 93 % 1027,0 hPa 0,0 l/m² 0,8 km/h (0 Bft) O 97 ° 0 min 0 W/m² 0,4 °C 1,4 °C 3,2 km/h (1 Bft)
14.11.2024 00:56 21,1 °C 1,4 °C 57 % 94 % 1026,9 hPa 0,0 l/m² 0,9 km/h (0 Bft) O 96 ° 0 min 0 W/m² 0,5 °C 1,4 °C 3,2 km/h (1 Bft)
14.11.2024 00:58 21,1 °C 1,4 °C 57 % 94 % 1026,8 hPa 0,0 l/m² 0,7 km/h (0 Bft) O 96 ° 0 min 0 W/m² 0,5 °C 1,4 °C 3,2 km/h (1 Bft)
14.11.2024 01:00 21,1 °C 1,4 °C 57 % 94 % 1026,8 hPa 0,0 l/m² 0,0 km/h (0 Bft) O 96 ° 0 min 0 W/m² 0,5 °C 1,4 °C 0,0 km/h (0 Bft)
14.11.2024 01:01 21,1 °C 1,4 °C 57 % 94 % 1026,8 hPa 0,0 l/m² 0,0 km/h (0 Bft) O 96 ° 0 min 0 W/m² 0,5 °C 1,4 °C 0,0 km/h (0 Bft)
14.11.2024 01:02 21,1 °C 1,4 °C 57 % 94 % 1026,8 hPa 0,0 l/m² 0,0 km/h (0 Bft) O 96 ° 0 min 0 W/m² 0,5 °C 1,4 °C 0,0 km/h (0 Bft)
14.11.2024 01:03 21,1 °C 1,4 °C 57 % 94 % 1026,8 hPa 0,0 l/m² 0,0 km/h (0 Bft) O 96 ° 0 min 0 W/m² 0,5 °C 1,4 °C 0,0 km/h (0 Bft)
14.11.2024 01:05 21,1 °C 1,4 °C 57 % 94 % 1026,8 hPa 0,0 l/m² 0,0 km/h (0 Bft) O 96 ° 0 min 0 W/m² 0,5 °C 1,4 °C 0,0 km/h (0 Bft)
14.11.2024 01:07 21,1 °C 1,4 °C 57 % 94 % 1026,8 hPa 0,0 l/m² 0,0 km/h (0 Bft) O 96 ° 0 min 0 W/m² 0,5 °C 1,4 °C 0,0 km/h (0 Bft)
14.11.2024 01:09 21,1 °C 1,4 °C 57 % 94 % 1026,8 hPa 0,0 l/m² 1,5 km/h (1 Bft) S 190 ° 0 min 0 W/m² 0,5 °C 1,4 °C 8,0 km/h (2 Bft)
14.11.2024 01:11 21,1 °C 1,5 °C 57 % 94 % 1026,8 hPa 0,0 l/m² 4,0 km/h (1 Bft) S-SW 213 ° 0 min 0 W/m² 0,6 °C 1,5 °C 6,4 km/h (2 Bft)
14.11.2024 01:12 21,1 °C 1,5 °C 57 % 94 % 1026,7 hPa 0,0 l/m² 3,3 km/h (1 Bft) SW 219 ° 0 min 0 W/m² 0,6 °C 1,5 °C 4,8 km/h (1 Bft)
14.11.2024 01:14 21,1 °C 1,6 °C 57 % 94 % 1026,7 hPa 0,0 l/m² 4,0 km/h (1 Bft) S-SO 162 ° 0 min 0 W/m² 0,7 °C 1,6 °C 9,7 km/h (2 Bft)
14.11.2024 01:16 21,1 °C 1,6 °C 57 % 94 % 1026,7 hPa 0,0 l/m² 5,5 km/h (2 Bft) S-SO 150 ° 0 min 0 W/m² 0,7 °C 1,6 °C 8,0 km/h (2 Bft)
14.11.2024 01:18 21,1 °C 1,6 °C 57 % 94 % 1026,7 hPa 0,0 l/m² 6,4 km/h (2 Bft) SO 146 ° 0 min 0 W/m² 0,7 °C 1,6 °C 9,7 km/h (2 Bft)
14.11.2024 01:20 21,1 °C 1,7 °C 57 % 94 % 1026,7 hPa 0,0 l/m² 3,9 km/h (1 Bft) SO 146 ° 0 min 0 W/m² 0,8 °C 1,7 °C 6,4 km/h (2 Bft)
14.11.2024 01:21 21,1 °C 1,7 °C 57 % 94 % 1026,7 hPa 0,0 l/m² 5,6 km/h (2 Bft) S-SO 150 ° 0 min 0 W/m² 0,8 °C 1,7 °C 9,7 km/h (2 Bft)
14.11.2024 01:22 21,1 °C 1,7 °C 57 % 94 % 1026,7 hPa 0,0 l/m² 2,4 km/h (1 Bft) S-SO 150 ° 0 min 0 W/m² 0,8 °C 1,7 °C 3,2 km/h (1 Bft)
14.11.2024 01:23 21,1 °C 1,7 °C 57 % 94 % 1026,7 hPa 0,0 l/m² 2,8 km/h (1 Bft) S-SO 150 ° 0 min 0 W/m² 0,8 °C 1,7 °C 4,8 km/h (1 Bft)
14.11.2024 01:25 21,1 °C 1,8 °C 57 % 94 % 1026,6 hPa 0,0 l/m² 2,6 km/h (1 Bft) S-SO 150 ° 0 min 0 W/m² 0,9 °C 1,8 °C 4,8 km/h (1 Bft)
14.11.2024 01:26 21,1 °C 1,8 °C 57 % 94 % 1026,5 hPa 0,0 l/m² 0,5 km/h (0 Bft) S-SO 149 ° 0 min 0 W/m² 0,9 °C 1,8 °C 3,2 km/h (1 Bft)
14.11.2024 01:27 21,1 °C 1,8 °C 57 % 94 % 1026,5 hPa 0,0 l/m² 3,6 km/h (1 Bft) S-SO 150 ° 0 min 0 W/m² 0,9 °C 1,8 °C 4,8 km/h (1 Bft)
14.11.2024 01:28 21,1 °C 1,8 °C 57 % 94 % 1026,5 hPa 0,0 l/m² 0,9 km/h (0 Bft) S-SO 150 ° 0 min 0 W/m² 0,9 °C 1,8 °C 3,2 km/h (1 Bft)
14.11.2024 01:29 21,1 °C 1,8 °C 57 % 94 % 1026,4 hPa 0,0 l/m² 0,8 km/h (0 Bft) S-SO 150 ° 0 min 0 W/m² 0,9 °C 1,8 °C 3,2 km/h (1 Bft)
14.11.2024 01:30 21,1 °C 1,8 °C 57 % 94 % 1026,4 hPa 0,0 l/m² 1,8 km/h (1 Bft) S-SO 150 ° 0 min 0 W/m² 0,9 °C 1,8 °C 3,2 km/h (1 Bft)
14.11.2024 01:31 21,1 °C 1,8 °C 57 % 94 % 1026,4 hPa 0,0 l/m² 1,2 km/h (1 Bft) S-SO 150 ° 0 min 0 W/m² 0,9 °C 1,8 °C 3,2 km/h (1 Bft)
14.11.2024 01:32 21,1 °C 1,8 °C 57 % 94 % 1026,4 hPa 0,0 l/m² 0,1 km/h (0 Bft) S-SO 149 ° 0 min 0 W/m² 0,9 °C 1,8 °C 1,6 km/h (1 Bft)
14.11.2024 01:33 21,1 °C 1,8 °C 57 % 94 % 1026,4 hPa 0,0 l/m² 1,0 km/h (0 Bft) S-SO 150 ° 0 min 0 W/m² 0,9 °C 1,8 °C 3,2 km/h (1 Bft)
14.11.2024 01:34 21,1 °C 1,8 °C 57 % 94 % 1026,4 hPa 0,0 l/m² 3,6 km/h (1 Bft) S-SO 149 ° 0 min 0 W/m² 0,9 °C 1,8 °C 4,8 km/h (1 Bft)
14.11.2024 01:35 21,1 °C 1,8 °C 57 % 94 % 1026,4 hPa 0,0 l/m² 0,5 km/h (0 Bft) S-SO 149 ° 0 min 0 W/m² 0,9 °C 1,8 °C 3,2 km/h (1 Bft)
14.11.2024 01:36 21,1 °C 1,8 °C 57 % 94 % 1026,5 hPa 0,0 l/m² 0,3 km/h (0 Bft) S-SO 149 ° 0 min 0 W/m² 0,9 °C 1,8 °C 1,6 km/h (1 Bft)
14.11.2024 01:37 21,1 °C 1,8 °C 57 % 94 % 1026,4 hPa 0,0 l/m² 4,2 km/h (1 Bft) S-SO 150 ° 0 min 0 W/m² 0,9 °C 1,8 °C 6,4 km/h (2 Bft)
14.11.2024 01:38 21,1 °C 1,8 °C 57 % 94 % 1026,3 hPa 0,0 l/m² 1,5 km/h (1 Bft) S-SO 150 ° 0 min 0 W/m² 0,9 °C 1,8 °C 3,2 km/h (1 Bft)
14.11.2024 01:39 21,1 °C 1,8 °C 57 % 94 % 1026,3 hPa 0,0 l/m² 3,5 km/h (1 Bft) S-SO 148 ° 0 min 0 W/m² 0,9 °C 1,8 °C 4,8 km/h (1 Bft)
14.11.2024 01:40 21,1 °C 1,8 °C 57 % 94 % 1026,3 hPa 0,0 l/m² 6,3 km/h (2 Bft) S-SO 148 ° 0 min 0 W/m² 0,9 °C 1,8 °C 9,7 km/h (2 Bft)
14.11.2024 01:41 21,1 °C 1,8 °C 57 % 94 % 1026,3 hPa 0,0 l/m² 4,0 km/h (1 Bft) S-SO 148 ° 0 min 0 W/m² 0,9 °C 1,8 °C 6,4 km/h (2 Bft)
14.11.2024 01:42 21,1 °C 1,8 °C 57 % 94 % 1026,3 hPa 0,0 l/m² 2,7 km/h (1 Bft) S-SO 148 ° 0 min 0 W/m² 0,9 °C 1,8 °C 4,8 km/h (1 Bft)
14.11.2024 01:43 21,1 °C 1,9 °C 57 % 94 % 1026,3 hPa 0,0 l/m² 3,6 km/h (1 Bft) S-SO 148 ° 0 min 0 W/m² 1,0 °C 1,9 °C 4,8 km/h (1 Bft)
14.11.2024 01:44 21,1 °C 1,9 °C 57 % 94 % 1026,3 hPa 0,0 l/m² 3,8 km/h (1 Bft) S-SO 148 ° 0 min 0 W/m² 1,0 °C 1,9 °C 4,8 km/h (1 Bft)
14.11.2024 01:45 21,1 °C 1,9 °C 57 % 94 % 1026,2 hPa 0,0 l/m² 3,0 km/h (1 Bft) S-SO 148 ° 0 min 0 W/m² 1,0 °C 1,9 °C 4,8 km/h (1 Bft)
14.11.2024 01:46 21,1 °C 1,9 °C 57 % 94 % 1026,2 hPa 0,0 l/m² 4,3 km/h (1 Bft) S-SO 148 ° 0 min 0 W/m² 1,0 °C 1,9 °C 6,4 km/h (2 Bft)
14.11.2024 01:47 21,1 °C 1,9 °C 57 % 94 % 1026,2 hPa 0,0 l/m² 4,8 km/h (1 Bft) S-SO 150 ° 0 min 0 W/m² 1,0 °C 1,9 °C 6,4 km/h (2 Bft)
14.11.2024 01:48 21,1 °C 1,9 °C 57 % 94 % 1026,1 hPa 0,0 l/m² 2,1 km/h (1 Bft) S-SO 150 ° 0 min 0 W/m² 1,0 °C 1,9 °C 3,2 km/h (1 Bft)
14.11.2024 01:49 21,1 °C 1,9 °C 57 % 94 % 1026,2 hPa 0,0 l/m² 3,2 km/h (1 Bft) S-SO 150 ° 0 min 0 W/m² 1,0 °C 1,9 °C 4,8 km/h (1 Bft)
14.11.2024 01:50 21,1 °C 1,9 °C 57 % 94 % 1026,2 hPa 0,0 l/m² 3,2 km/h (1 Bft) S-SO 150 ° 0 min 0 W/m² 1,0 °C 1,9 °C 4,8 km/h (1 Bft)
14.11.2024 01:51 21,1 °C 1,9 °C 57 % 94 % 1026,2 hPa 0,0 l/m² 2,1 km/h (1 Bft) S-SO 150 ° 0 min 0 W/m² 1,0 °C 1,9 °C 3,2 km/h (1 Bft)
14.11.2024 01:52 21,1 °C 2,0 °C 57 % 94 % 1026,2 hPa 0,0 l/m² 4,0 km/h (1 Bft) S-SO 148 ° 0 min 0 W/m² 1,1 °C 2,0 °C 6,4 km/h (2 Bft)
14.11.2024 01:53 21,1 °C 2,0 °C 57 % 94 % 1026,2 hPa 0,0 l/m² 2,7 km/h (1 Bft) S-SO 147 ° 0 min 0 W/m² 1,1 °C 2,0 °C 6,4 km/h (2 Bft)
14.11.2024 01:54 21,1 °C 2,0 °C 57 % 94 % 1026,2 hPa 0,0 l/m² 1,5 km/h (1 Bft) S-SO 147 ° 0 min 0 W/m² 1,1 °C 2,0 °C 3,2 km/h (1 Bft)
14.11.2024 01:55 21,1 °C 2,0 °C 57 % 94 % 1026,1 hPa 0,0 l/m² 1,1 km/h (1 Bft) S-SO 147 ° 0 min 0 W/m² 1,1 °C 2,0 °C 3,2 km/h (1 Bft)
14.11.2024 01:56 21,1 °C 2,0 °C 57 % 94 % 1026,1 hPa 0,0 l/m² 1,0 km/h (0 Bft) S-SO 147 ° 0 min 0 W/m² 1,1 °C 2,0 °C 3,2 km/h (1 Bft)
14.11.2024 01:57 21,1 °C 2,0 °C 57 % 94 % 1026,1 hPa 0,0 l/m² 1,2 km/h (1 Bft) S-SO 147 ° 0 min 0 W/m² 1,1 °C 2,0 °C 3,2 km/h (1 Bft)
14.11.2024 01:58 21,1 °C 2,0 °C 57 % 94 % 1026,1 hPa 0,0 l/m² 0,9 km/h (0 Bft) S-SO 147 ° 0 min 0 W/m² 1,1 °C 2,0 °C 1,6 km/h (1 Bft)
14.11.2024 01:59 21,1 °C 2,0 °C 57 % 94 % 1026,1 hPa 0,0 l/m² 0,4 km/h (0 Bft) S-SO 147 ° 0 min 0 W/m² 1,1 °C 2,0 °C 1,6 km/h (1 Bft)
14.11.2024 02:00 21,1 °C 2,0 °C 57 % 94 % 1026,1 hPa 0,0 l/m² 0,5 km/h (0 Bft) S-SO 147 ° 0 min 0 W/m² 1,1 °C 2,0 °C 1,6 km/h (1 Bft)
14.11.2024 02:01 21,0 °C 2,1 °C 57 % 94 % 1026,1 hPa 0,0 l/m² 0,0 km/h (0 Bft) S-SO 147 ° 0 min 0 W/m² 1,2 °C 2,1 °C 0,0 km/h (0 Bft)
14.11.2024 02:02 21,0 °C 2,1 °C 57 % 94 % 1026,2 hPa 0,0 l/m² 0,1 km/h (0 Bft) S-SO 147 ° 0 min 0 W/m² 1,2 °C 2,1 °C 1,6 km/h (1 Bft)
14.11.2024 02:03 21,1 °C 2,1 °C 57 % 94 % 1026,1 hPa 0,0 l/m² 0,0 km/h (0 Bft) S-SO 147 ° 0 min 0 W/m² 1,2 °C 2,1 °C 0,0 km/h (0 Bft)
14.11.2024 02:04 21,0 °C 2,1 °C 57 % 94 % 1026,1 hPa 0,0 l/m² 0,4 km/h (0 Bft) S-SO 147 ° 0 min 0 W/m² 1,2 °C 2,1 °C 1,6 km/h (1 Bft)
14.11.2024 02:05 21,0 °C 2,1 °C 57 % 94 % 1026,1 hPa 0,0 l/m² 1,3 km/h (1 Bft) S-SO 147 ° 0 min 0 W/m² 1,2 °C 2,1 °C 3,2 km/h (1 Bft)
14.11.2024 02:06 21,1 °C 2,1 °C 57 % 94 % 1026,1 hPa 0,0 l/m² 4,4 km/h (1 Bft) SO 144 ° 0 min 0 W/m² 1,2 °C 2,1 °C 6,4 km/h (2 Bft)
14.11.2024 02:07 21,1 °C 2,1 °C 57 % 94 % 1026,1 hPa 0,0 l/m² 3,3 km/h (1 Bft) SO 142 ° 0 min 0 W/m² 1,2 °C 2,1 °C 4,8 km/h (1 Bft)
14.11.2024 02:08 21,1 °C 2,1 °C 57 % 94 % 1026,1 hPa 0,0 l/m² 4,0 km/h (1 Bft) SO 141 ° 0 min 0 W/m² 1,2 °C 2,1 °C 4,8 km/h (1 Bft)
14.11.2024 02:09 21,1 °C 2,1 °C 57 % 94 % 1026,1 hPa 0,0 l/m² 3,7 km/h (1 Bft) SO 141 ° 0 min 0 W/m² 1,2 °C 2,1 °C 4,8 km/h (1 Bft)
14.11.2024 02:10 21,0 °C 2,2 °C 57 % 94 % 1026,0 hPa 0,0 l/m² 4,4 km/h (1 Bft) SO 140 ° 0 min 0 W/m² 1,3 °C 2,2 °C 6,4 km/h (2 Bft)
14.11.2024 02:11 21,1 °C 2,2 °C 57 % 94 % 1026,0 hPa 0,0 l/m² 4,4 km/h (1 Bft) SO 139 ° 0 min 0 W/m² 1,3 °C 2,2 °C 6,4 km/h (2 Bft)
14.11.2024 02:12 21,1 °C 2,2 °C 57 % 94 % 1026,0 hPa 0,0 l/m² 3,3 km/h (1 Bft) SO 139 ° 0 min 0 W/m² 1,3 °C 2,2 °C 4,8 km/h (1 Bft)
14.11.2024 02:13 21,1 °C 2,2 °C 57 % 94 % 1026,1 hPa 0,0 l/m² 2,7 km/h (1 Bft) SO 139 ° 0 min 0 W/m² 1,3 °C 2,2 °C 4,8 km/h (1 Bft)
14.11.2024 02:14 21,1 °C 2,2 °C 57 % 94 % 1026,0 hPa 0,0 l/m² 1,5 km/h (1 Bft) SO 139 ° 0 min 0 W/m² 1,3 °C 2,2 °C 3,2 km/h (1 Bft)
14.11.2024 02:15 21,1 °C 2,2 °C 57 % 94 % 1026,0 hPa 0,0 l/m² 1,1 km/h (1 Bft) SO 139 ° 0 min 0 W/m² 1,3 °C 2,2 °C 3,2 km/h (1 Bft)
14.11.2024 02:16 21,1 °C 2,2 °C 57 % 94 % 1026,0 hPa 0,0 l/m² 0,5 km/h (0 Bft) SO 139 ° 0 min 0 W/m² 1,3 °C 2,2 °C 3,2 km/h (1 Bft)
14.11.2024 02:17 21,1 °C 2,2 °C 57 % 94 % 1026,0 hPa 0,0 l/m² 0,3 km/h (0 Bft) SO 139 ° 0 min 0 W/m² 1,3 °C 2,2 °C 1,6 km/h (1 Bft)
14.11.2024 02:18 21,0 °C 2,3 °C 57 % 94 % 1025,9 hPa 0,0 l/m² 0,7 km/h (0 Bft) SO 139 ° 0 min 0 W/m² 1,4 °C 2,3 °C 1,6 km/h (1 Bft)
14.11.2024 02:19 21,1 °C 2,2 °C 57 % 94 % 1025,9 hPa 0,0 l/m² 1,5 km/h (1 Bft) SO 139 ° 0 min 0 W/m² 1,3 °C 2,2 °C 3,2 km/h (1 Bft)
14.11.2024 02:20 21,0 °C 2,3 °C 57 % 94 % 1025,9 hPa 0,0 l/m² 0,0 km/h (0 Bft) SO 139 ° 0 min 0 W/m² 1,4 °C 2,3 °C 0,0 km/h (0 Bft)
14.11.2024 02:21 21,0 °C 2,2 °C 57 % 94 % 1025,9 hPa 0,0 l/m² 0,1 km/h (0 Bft) SO 139 ° 0 min 0 W/m² 1,3 °C 2,2 °C 1,6 km/h (1 Bft)
14.11.2024 02:22 21,0 °C 2,3 °C 57 % 94 % 1025,9 hPa 0,0 l/m² 0,0 km/h (0 Bft) SO 139 ° 0 min 0 W/m² 1,4 °C 2,3 °C 0,0 km/h (0 Bft)
14.11.2024 02:23 21,0 °C 2,3 °C 57 % 94 % 1025,9 hPa 0,0 l/m² 0,1 km/h (0 Bft) SO 139 ° 0 min 0 W/m² 1,4 °C 2,3 °C 1,6 km/h (1 Bft)
14.11.2024 02:24 21,0 °C 2,3 °C 57 % 94 % 1025,8 hPa 0,0 l/m² 1,5 km/h (1 Bft) SO 139 ° 0 min 0 W/m² 1,4 °C 2,3 °C 3,2 km/h (1 Bft)
14.11.2024 02:25 21,0 °C 2,3 °C 57 % 94 % 1025,8 hPa 0,0 l/m² 0,7 km/h (0 Bft) SO 139 ° 0 min 0 W/m² 1,4 °C 2,3 °C 1,6 km/h (1 Bft)
14.11.2024 02:26 21,0 °C 2,3 °C 57 % 94 % 1025,8 hPa 0,0 l/m² 0,0 km/h (0 Bft) SO 139 ° 0 min 0 W/m² 1,4 °C 2,3 °C 0,0 km/h (0 Bft)
14.11.2024 02:27 21,0 °C 2,3 °C 57 % 94 % 1025,8 hPa 0,0 l/m² 0,0 km/h (0 Bft) SO 139 ° 0 min 0 W/m² 1,4 °C 2,3 °C 0,0 km/h (0 Bft)
14.11.2024 02:28 21,0 °C 2,3 °C 57 % 94 % 1025,7 hPa 0,0 l/m² 0,7 km/h (0 Bft) SO 139 ° 0 min 0 W/m² 1,4 °C 2,3 °C 1,6 km/h (1 Bft)
14.11.2024 02:29 21,0 °C 2,3 °C 57 % 94 % 1025,7 hPa 0,0 l/m² 0,1 km/h (0 Bft) SO 139 ° 0 min 0 W/m² 1,4 °C 2,3 °C 1,6 km/h (1 Bft)
14.11.2024 02:30 21,0 °C 2,3 °C 57 % 94 % 1025,8 hPa 0,0 l/m² 1,9 km/h (1 Bft) SO 139 ° 0 min 0 W/m² 1,4 °C 2,3 °C 3,2 km/h (1 Bft)
14.11.2024 02:31 21,0 °C 2,3 °C 57 % 94 % 1025,7 hPa 0,0 l/m² 2,3 km/h (1 Bft) SO 139 ° 0 min 0 W/m² 1,4 °C 2,3 °C 3,2 km/h (1 Bft)
14.11.2024 02:32 21,1 °C 2,3 °C 57 % 94 % 1025,7 hPa 0,0 l/m² 2,4 km/h (1 Bft) SO 139 ° 0 min 0 W/m² 1,4 °C 2,3 °C 4,8 km/h (1 Bft)
14.11.2024 02:33 21,0 °C 2,4 °C 57 % 94 % 1025,7 hPa 0,0 l/m² 2,5 km/h (1 Bft) SO 139 ° 0 min 0 W/m² 1,5 °C 2,4 °C 4,8 km/h (1 Bft)
14.11.2024 02:34 21,0 °C 2,3 °C 57 % 94 % 1025,7 hPa 0,0 l/m² 1,9 km/h (1 Bft) SO 139 ° 0 min 0 W/m² 1,4 °C 2,3 °C 3,2 km/h (1 Bft)
14.11.2024 02:35 21,0 °C 2,4 °C 57 % 94 % 1025,8 hPa 0,0 l/m² 2,6 km/h (1 Bft) SO 139 ° 0 min 0 W/m² 1,5 °C 2,4 °C 4,8 km/h (1 Bft)
14.11.2024 02:36 21,0 °C 2,4 °C 57 % 94 % 1025,7 hPa 0,0 l/m² 2,6 km/h (1 Bft) SO 139 ° 0 min 0 W/m² 1,5 °C 2,4 °C 4,8 km/h (1 Bft)
14.11.2024 02:37 21,0 °C 2,4 °C 57 % 94 % 1025,7 hPa 0,0 l/m² 1,9 km/h (1 Bft) SO 139 ° 0 min 0 W/m² 1,5 °C 2,4 °C 3,2 km/h (1 Bft)
14.11.2024 02:38 21,1 °C 2,4 °C 57 % 94 % 1025,5 hPa 0,0 l/m² 2,8 km/h (1 Bft) SO 139 ° 0 min 0 W/m² 1,5 °C 2,4 °C 3,2 km/h (1 Bft)
14.11.2024 02:39 21,0 °C 2,4 °C 57 % 94 % 1025,6 hPa 0,0 l/m² 1,9 km/h (1 Bft) SO 139 ° 0 min 0 W/m² 1,5 °C 2,4 °C 3,2 km/h (1 Bft)
14.11.2024 02:40 21,0 °C 2,4 °C 57 % 94 % 1025,4 hPa 0,0 l/m² 2,7 km/h (1 Bft) SO 139 ° 0 min 0 W/m² 1,5 °C 2,4 °C 3,2 km/h (1 Bft)
14.11.2024 02:41 21,0 °C 2,4 °C 57 % 94 % 1025,4 hPa 0,0 l/m² 0,8 km/h (0 Bft) SO 139 ° 0 min 0 W/m² 1,5 °C 2,4 °C 3,2 km/h (1 Bft)
14.11.2024 02:42 21,0 °C 2,4 °C 57 % 94 % 1025,4 hPa 0,0 l/m² 0,3 km/h (0 Bft) SO 139 ° 0 min 0 W/m² 1,5 °C 2,4 °C 1,6 km/h (1 Bft)
14.11.2024 02:43 21,1 °C 2,5 °C 57 % 94 % 1025,4 hPa 0,0 l/m² 0,0 km/h (0 Bft) SO 139 ° 0 min 0 W/m² 1,6 °C 2,5 °C 0,0 km/h (0 Bft)
14.11.2024 02:44 21,0 °C 2,5 °C 57 % 94 % 1025,4 hPa 0,0 l/m² 0,0 km/h (0 Bft) SO 139 ° 0 min 0 W/m² 1,6 °C 2,5 °C 0,0 km/h (0 Bft)
14.11.2024 02:45 21,0 °C 2,5 °C 57 % 94 % 1025,3 hPa 0,0 l/m² 0,0 km/h (0 Bft) SO 139 ° 0 min 0 W/m² 1,6 °C 2,5 °C 0,0 km/h (0 Bft)
14.11.2024 02:46 21,0 °C 2,6 °C 57 % 95 % 1025,3 hPa 0,0 l/m² 0,2 km/h (0 Bft) SO 139 ° 0 min 0 W/m² 1,9 °C 2,6 °C 1,6 km/h (1 Bft)
14.11.2024 02:47 21,0 °C 2,6 °C 57 % 95 % 1025,4 hPa 0,0 l/m² 0,0 km/h (0 Bft) SO 139 ° 0 min 0 W/m² 1,9 °C 2,6 °C 0,0 km/h (0 Bft)
14.11.2024 02:48 21,0 °C 2,6 °C 57 % 95 % 1025,3 hPa 0,0 l/m² 0,0 km/h (0 Bft) SO 139 ° 0 min 0 W/m² 1,9 °C 2,6 °C 0,0 km/h (0 Bft)
14.11.2024 02:49 21,0 °C 2,6 °C 57 % 95 % 1025,3 hPa 0,0 l/m² 0,0 km/h (0 Bft) SO 139 ° 0 min 0 W/m² 1,9 °C 2,6 °C 0,0 km/h (0 Bft)
14.11.2024 02:50 21,0 °C 2,6 °C 57 % 95 % 1025,3 hPa 0,0 l/m² 0,0 km/h (0 Bft) SO 139 ° 0 min 0 W/m² 1,9 °C 2,6 °C 0,0 km/h (0 Bft)
14.11.2024 02:51 21,0 °C 2,6 °C 57 % 95 % 1025,3 hPa 0,0 l/m² 0,0 km/h (0 Bft) SO 139 ° 0 min 0 W/m² 1,9 °C 2,6 °C 0,0 km/h (0 Bft)
14.11.2024 02:52 21,0 °C 2,6 °C 57 % 95 % 1025,3 hPa 0,0 l/m² 0,0 km/h (0 Bft) SO 139 ° 0 min 0 W/m² 1,9 °C 2,6 °C 0,0 km/h (0 Bft)
14.11.2024 02:53 21,0 °C 2,6 °C 57 % 95 % 1025,3 hPa 0,0 l/m² 0,0 km/h (0 Bft) SO 139 ° 0 min 0 W/m² 1,9 °C 2,6 °C 0,0 km/h (0 Bft)
14.11.2024 02:54 21,0 °C 2,7 °C 57 % 95 % 1025,4 hPa 0,0 l/m² 0,6 km/h (0 Bft) SO 139 ° 0 min 0 W/m² 2,0 °C 2,7 °C 1,6 km/h (1 Bft)
14.11.2024 02:55 21,0 °C 2,7 °C 57 % 95 % 1025,4 hPa 0,0 l/m² 0,5 km/h (0 Bft) SO 139 ° 0 min 0 W/m² 2,0 °C 2,7 °C 1,6 km/h (1 Bft)
14.11.2024 02:56 20,9 °C 2,7 °C 57 % 94 % 1025,3 hPa 0,0 l/m² 0,2 km/h (0 Bft) SO 139 ° 0 min 0 W/m² 1,8 °C 2,7 °C 1,6 km/h (1 Bft)
14.11.2024 02:57 21,0 °C 2,7 °C 57 % 94 % 1025,4 hPa 0,0 l/m² 1,0 km/h (0 Bft) SO 139 ° 0 min 0 W/m² 1,8 °C 2,7 °C 1,6 km/h (1 Bft)
14.11.2024 02:58 21,0 °C 2,7 °C 57 % 94 % 1025,3 hPa 0,0 l/m² 2,3 km/h (1 Bft) SO 139 ° 0 min 0 W/m² 1,8 °C 2,7 °C 3,2 km/h (1 Bft)
14.11.2024 02:59 21,0 °C 2,7 °C 57 % 95 % 1025,3 hPa 0,0 l/m² 2,2 km/h (1 Bft) SO 139 ° 0 min 0 W/m² 2,0 °C 2,7 °C 3,2 km/h (1 Bft)
14.11.2024 03:00 21,0 °C 2,8 °C 57 % 95 % 1025,3 hPa 0,0 l/m² 1,8 km/h (1 Bft) SO 139 ° 0 min 0 W/m² 2,1 °C 2,8 °C 3,2 km/h (1 Bft)
14.11.2024 03:03 20,9 °C 2,8 °C 57 % 95 % 1025,2 hPa 0,0 l/m² 0,7 km/h (0 Bft) SO 139 ° 0 min 0 W/m² 2,1 °C 2,8 °C 3,2 km/h (1 Bft)
14.11.2024 03:04 21,0 °C 2,8 °C 57 % 95 % 1025,1 hPa 0,0 l/m² 3,2 km/h (1 Bft) SO 139 ° 0 min 0 W/m² 2,1 °C 2,8 °C 3,2 km/h (1 Bft)
14.11.2024 03:05 21,0 °C 2,9 °C 57 % 95 % 1025,2 hPa 0,0 l/m² 1,8 km/h (1 Bft) SO 139 ° 0 min 0 W/m² 2,2 °C 2,9 °C 3,2 km/h (1 Bft)
14.11.2024 03:07 21,0 °C 2,9 °C 57 % 95 % 1025,1 hPa 0,0 l/m² 3,5 km/h (1 Bft) SO 139 ° 0 min 0 W/m² 2,2 °C 2,9 °C 4,8 km/h (1 Bft)
14.11.2024 03:08 20,9 °C 2,9 °C 57 % 95 % 1025,1 hPa 0,2 l/m² 4,1 km/h (1 Bft) SO 139 ° 0 min 0 W/m² 2,2 °C 2,9 °C 4,8 km/h (1 Bft)
14.11.2024 03:09 20,9 °C 2,9 °C 57 % 95 % 1025,1 hPa 0,0 l/m² 3,8 km/h (1 Bft) SO 139 ° 0 min 0 W/m² 2,2 °C 2,9 °C 4,8 km/h (1 Bft)
14.11.2024 03:10 20,9 °C 2,9 °C 57 % 95 % 1025,1 hPa 0,0 l/m² 3,6 km/h (1 Bft) SO 139 ° 0 min 0 W/m² 2,2 °C 2,9 °C 4,8 km/h (1 Bft)
14.11.2024 03:12 21,0 °C 3,0 °C 57 % 95 % 1025,1 hPa 0,0 l/m² 3,3 km/h (1 Bft) SO 139 ° 0 min 0 W/m² 2,3 °C 3,0 °C 4,8 km/h (1 Bft)
14.11.2024 03:13 21,0 °C 3,1 °C 57 % 95 % 1025,1 hPa 0,0 l/m² 2,2 km/h (1 Bft) SO 139 ° 0 min 0 W/m² 2,4 °C 3,1 °C 3,2 km/h (1 Bft)
14.11.2024 03:15 21,0 °C 3,1 °C 57 % 95 % 1025,0 hPa 0,0 l/m² 3,6 km/h (1 Bft) SO 144 ° 0 min 0 W/m² 2,4 °C 3,1 °C 6,4 km/h (2 Bft)
14.11.2024 03:17 21,0 °C 3,2 °C 57 % 95 % 1024,9 hPa 0,0 l/m² 4,3 km/h (1 Bft) S 172 ° 0 min 0 W/m² 2,5 °C 3,2 °C 8,0 km/h (2 Bft)
14.11.2024 03:19 20,9 °C 3,2 °C 57 % 95 % 1025,0 hPa 0,0 l/m² 2,3 km/h (1 Bft) S 173 ° 0 min 0 W/m² 2,5 °C 3,2 °C 8,0 km/h (2 Bft)
14.11.2024 03:20 20,9 °C 3,3 °C 57 % 95 % 1024,9 hPa 0,0 l/m² 4,1 km/h (1 Bft) S 173 ° 0 min 0 W/m² 2,6 °C 3,3 °C 4,8 km/h (1 Bft)
14.11.2024 03:22 20,9 °C 3,3 °C 57 % 95 % 1025,0 hPa 0,0 l/m² 3,1 km/h (1 Bft) S 172 ° 0 min 0 W/m² 2,6 °C 3,3 °C 4,8 km/h (1 Bft)
14.11.2024 03:24 20,9 °C 3,4 °C 57 % 95 % 1024,9 hPa 0,0 l/m² 1,8 km/h (1 Bft) S 172 ° 0 min 0 W/m² 2,7 °C 3,4 °C 4,8 km/h (1 Bft)
14.11.2024 03:26 20,9 °C 3,4 °C 57 % 95 % 1024,9 hPa 0,0 l/m² 2,1 km/h (1 Bft) S 172 ° 0 min 0 W/m² 2,7 °C 3,4 °C 3,2 km/h (1 Bft)
14.11.2024 03:28 20,9 °C 3,4 °C 57 % 95 % 1024,8 hPa 0,0 l/m² 1,9 km/h (1 Bft) S 172 ° 0 min 0 W/m² 2,7 °C 3,4 °C 4,8 km/h (1 Bft)
14.11.2024 03:30 20,9 °C 3,5 °C 57 % 95 % 1024,9 hPa 0,2 l/m² 1,0 km/h (0 Bft) S 172 ° 0 min 0 W/m² 2,8 °C 3,5 °C 1,6 km/h (1 Bft)
14.11.2024 03:31 20,9 °C 3,5 °C 57 % 95 % 1024,9 hPa 0,0 l/m² 1,0 km/h (0 Bft) S 172 ° 0 min 0 W/m² 2,8 °C 3,5 °C 1,6 km/h (1 Bft)
14.11.2024 03:32 20,9 °C 3,6 °C 57 % 95 % 1024,9 hPa 0,0 l/m² 0,9 km/h (0 Bft) S 172 ° 0 min 0 W/m² 2,9 °C 3,6 °C 1,6 km/h (1 Bft)
14.11.2024 03:33 21,0 °C 3,6 °C 57 % 95 % 1024,8 hPa 0,0 l/m² 1,5 km/h (1 Bft) S 172 ° 0 min 0 W/m² 2,9 °C 3,6 °C 3,2 km/h (1 Bft)
14.11.2024 03:35 20,9 °C 3,6 °C 57 % 95 % 1024,9 hPa 0,0 l/m² 1,4 km/h (1 Bft) S 172 ° 0 min 0 W/m² 2,9 °C 3,6 °C 3,2 km/h (1 Bft)
14.11.2024 03:37 20,9 °C 3,7 °C 57 % 95 % 1024,8 hPa 0,0 l/m² 1,7 km/h (1 Bft) S 172 ° 0 min 0 W/m² 3,0 °C 3,7 °C 3,2 km/h (1 Bft)
14.11.2024 03:39 20,9 °C 3,7 °C 57 % 95 % 1024,8 hPa 0,0 l/m² 2,5 km/h (1 Bft) S 172 ° 0 min 0 W/m² 3,0 °C 3,7 °C 4,8 km/h (1 Bft)
14.11.2024 03:40 20,9 °C 3,7 °C 57 % 95 % 1024,8 hPa 0,0 l/m² 3,6 km/h (1 Bft) S 173 ° 0 min 0 W/m² 3,0 °C 3,7 °C 4,8 km/h (1 Bft)
14.11.2024 03:42 20,9 °C 3,8 °C 57 % 95 % 1024,7 hPa 0,0 l/m² 3,1 km/h (1 Bft) S 173 ° 0 min 0 W/m² 3,1 °C 3,8 °C 4,8 km/h (1 Bft)
14.11.2024 03:44 21,0 °C 3,9 °C 57 % 95 % 1024,8 hPa 0,0 l/m² 3,2 km/h (1 Bft) S 173 ° 0 min 0 W/m² 3,2 °C 3,9 °C 4,8 km/h (1 Bft)
14.11.2024 03:45 20,9 °C 3,9 °C 57 % 95 % 1024,7 hPa 0,0 l/m² 3,2 km/h (1 Bft) S 173 ° 0 min 0 W/m² 3,2 °C 3,9 °C 4,8 km/h (1 Bft)
14.11.2024 03:46 21,0 °C 3,9 °C 57 % 95 % 1024,7 hPa 0,0 l/m² 4,4 km/h (1 Bft) S-SW 194 ° 0 min 0 W/m² 3,2 °C 3,9 °C 8,0 km/h (2 Bft)
14.11.2024 03:47 21,0 °C 3,9 °C 57 % 95 % 1024,7 hPa 0,0 l/m² 4,7 km/h (1 Bft) S-SW 194 ° 0 min 0 W/m² 3,2 °C 3,9 °C 6,4 km/h (2 Bft)
14.11.2024 03:49 20,9 °C 4,0 °C 57 % 95 % 1024,7 hPa 0,0 l/m² 3,4 km/h (1 Bft) S-SW 194 ° 0 min 0 W/m² 3,3 °C 4,0 °C 4,8 km/h (1 Bft)
14.11.2024 03:50 20,9 °C 4,1 °C 57 % 95 % 1024,7 hPa 0,0 l/m² 2,8 km/h (1 Bft) S-SW 194 ° 0 min 0 W/m² 3,4 °C 4,1 °C 4,8 km/h (1 Bft)
14.11.2024 03:51 20,9 °C 4,1 °C 57 % 95 % 1024,7 hPa 0,0 l/m² 3,7 km/h (1 Bft) S-SW 194 ° 0 min 0 W/m² 3,4 °C 4,1 °C 4,8 km/h (1 Bft)
14.11.2024 03:52 20,9 °C 4,1 °C 57 % 95 % 1024,7 hPa 0,0 l/m² 2,7 km/h (1 Bft) S-SW 194 ° 0 min 0 W/m² 3,4 °C 4,1 °C 4,8 km/h (1 Bft)
14.11.2024 03:54 20,9 °C 4,2 °C 57 % 95 % 1024,5 hPa 0,0 l/m² 3,6 km/h (1 Bft) S-SW 194 ° 0 min 0 W/m² 3,5 °C 4,2 °C 6,4 km/h (2 Bft)
14.11.2024 03:56 21,0 °C 4,2 °C 57 % 95 % 1024,6 hPa 0,0 l/m² 5,0 km/h (1 Bft) S-SW 194 ° 0 min 0 W/m² 3,5 °C 4,2 °C 6,4 km/h (2 Bft)
14.11.2024 03:58 20,9 °C 4,3 °C 57 % 95 % 1024,5 hPa 0,0 l/m² 4,2 km/h (1 Bft) S-SW 194 ° 0 min 0 W/m² 3,6 °C 4,3 °C 6,4 km/h (2 Bft)
14.11.2024 04:00 21,0 °C 4,4 °C 57 % 95 % 1024,5 hPa 0,0 l/m² 4,4 km/h (1 Bft) S-SW 194 ° 0 min 0 W/m² 3,7 °C 4,4 °C 6,4 km/h (2 Bft)
14.11.2024 04:01 21,0 °C 4,4 °C 57 % 95 % 1024,4 hPa 0,0 l/m² 4,0 km/h (1 Bft) S-SW 194 ° 0 min 0 W/m² 3,7 °C 4,4 °C 4,8 km/h (1 Bft)
14.11.2024 04:02 20,9 °C 4,4 °C 57 % 95 % 1024,5 hPa 0,0 l/m² 3,4 km/h (1 Bft) S-SW 194 ° 0 min 0 W/m² 3,7 °C 4,4 °C 4,8 km/h (1 Bft)
14.11.2024 04:03 21,0 °C 4,5 °C 57 % 95 % 1024,5 hPa 0,0 l/m² 3,1 km/h (1 Bft) S-SW 194 ° 0 min 0 W/m² 3,8 °C 4,5 °C 4,8 km/h (1 Bft)
14.11.2024 04:04 20,9 °C 4,5 °C 57 % 95 % 1024,4 hPa 0,0 l/m² 3,2 km/h (1 Bft) S-SW 194 ° 0 min 0 W/m² 3,8 °C 4,5 °C 4,8 km/h (1 Bft)
14.11.2024 04:06 21,0 °C 4,6 °C 57 % 95 % 1024,4 hPa 0,0 l/m² 4,3 km/h (1 Bft) S-SW 198 ° 0 min 0 W/m² 3,9 °C 4,6 °C 6,4 km/h (2 Bft)
14.11.2024 04:08 21,0 °C 4,6 °C 57 % 95 % 1024,4 hPa 0,0 l/m² 5,3 km/h (1 Bft) S-SW 207 ° 0 min 0 W/m² 3,9 °C 4,6 °C 8,0 km/h (2 Bft)
14.11.2024 04:10 21,0 °C 4,7 °C 57 % 95 % 1024,4 hPa 0,0 l/m² 5,0 km/h (1 Bft) S-SW 208 ° 0 min 0 W/m² 4,0 °C 4,7 °C 8,0 km/h (2 Bft)
14.11.2024 04:11 20,9 °C 4,7 °C 57 % 95 % 1024,4 hPa 0,0 l/m² 3,3 km/h (1 Bft) S-SW 208 ° 0 min 0 W/m² 4,0 °C 4,7 °C 8,0 km/h (2 Bft)
14.11.2024 04:12 21,0 °C 4,7 °C 57 % 95 % 1024,4 hPa 0,0 l/m² 5,3 km/h (1 Bft) S-SW 208 ° 0 min 0 W/m² 4,0 °C 4,7 °C 8,0 km/h (2 Bft)
14.11.2024 04:13 21,0 °C 4,8 °C 57 % 95 % 1024,4 hPa 0,0 l/m² 5,6 km/h (2 Bft) S-SW 208 ° 0 min 0 W/m² 4,1 °C 4,8 °C 8,0 km/h (2 Bft)
14.11.2024 04:15 21,0 °C 4,8 °C 57 % 95 % 1024,3 hPa 0,0 l/m² 6,1 km/h (2 Bft) S-SW 208 ° 0 min 0 W/m² 4,1 °C 4,8 °C 9,7 km/h (2 Bft)
14.11.2024 04:17 21,0 °C 4,9 °C 57 % 95 % 1024,3 hPa 0,0 l/m² 7,8 km/h (2 Bft) S-SW 205 ° 0 min 0 W/m² 4,2 °C 3,7 °C 11,3 km/h (2 Bft)
14.11.2024 04:19 20,9 °C 4,9 °C 57 % 95 % 1024,3 hPa 0,0 l/m² 5,9 km/h (2 Bft) S-SW 205 ° 0 min 0 W/m² 4,2 °C 4,9 °C 9,7 km/h (2 Bft)
14.11.2024 04:20 21,0 °C 5,0 °C 57 % 95 % 1024,3 hPa 0,0 l/m² 5,4 km/h (2 Bft) S-SW 207 ° 0 min 0 W/m² 4,3 °C 5,0 °C 8,0 km/h (2 Bft)
14.11.2024 04:22 21,0 °C 5,0 °C 57 % 95 % 1024,3 hPa 0,0 l/m² 5,2 km/h (1 Bft) S-SW 208 ° 0 min 0 W/m² 4,3 °C 5,0 °C 6,4 km/h (2 Bft)
14.11.2024 04:24 21,0 °C 5,1 °C 57 % 95 % 1024,3 hPa 0,0 l/m² 5,7 km/h (2 Bft) S-SW 209 ° 0 min 0 W/m² 4,4 °C 5,1 °C 8,0 km/h (2 Bft)
14.11.2024 04:26 21,0 °C 5,1 °C 57 % 95 % 1024,3 hPa 0,0 l/m² 4,4 km/h (1 Bft) S-SW 209 ° 0 min 0 W/m² 4,4 °C 5,1 °C 6,4 km/h (2 Bft)
14.11.2024 04:28 21,0 °C 5,2 °C 57 % 95 % 1024,3 hPa 0,0 l/m² 4,2 km/h (1 Bft) S-SW 209 ° 0 min 0 W/m² 4,5 °C 5,2 °C 8,0 km/h (2 Bft)
14.11.2024 04:30 21,0 °C 5,2 °C 57 % 95 % 1024,3 hPa 0,0 l/m² 7,0 km/h (2 Bft) S-SW 209 ° 0 min 0 W/m² 4,5 °C 4,7 °C 11,3 km/h (2 Bft)
14.11.2024 04:31 21,0 °C 5,2 °C 57 % 95 % 1024,2 hPa 0,0 l/m² 7,2 km/h (2 Bft) S-SW 209 ° 0 min 0 W/m² 4,5 °C 4,5 °C 9,7 km/h (2 Bft)
14.11.2024 04:32 21,0 °C 5,2 °C 57 % 95 % 1024,2 hPa 0,0 l/m² 5,8 km/h (2 Bft) S-SW 209 ° 0 min 0 W/m² 4,5 °C 5,2 °C 6,4 km/h (2 Bft)
14.11.2024 04:33 21,0 °C 5,2 °C 57 % 95 % 1024,2 hPa 0,0 l/m² 6,2 km/h (2 Bft) S-SW 208 ° 0 min 0 W/m² 4,5 °C 5,2 °C 6,4 km/h (2 Bft)
14.11.2024 04:35 21,0 °C 5,3 °C 57 % 95 % 1024,2 hPa 0,0 l/m² 5,9 km/h (2 Bft) SW 215 ° 0 min 0 W/m² 4,6 °C 5,3 °C 9,7 km/h (2 Bft)
14.11.2024 04:37 21,0 °C 5,3 °C 57 % 95 % 1024,3 hPa 0,0 l/m² 4,8 km/h (1 Bft) SW 215 ° 0 min 0 W/m² 4,6 °C 5,3 °C 9,7 km/h (2 Bft)
14.11.2024 04:39 21,0 °C 5,3 °C 57 % 95 % 1024,2 hPa 0,0 l/m² 5,1 km/h (1 Bft) SW 215 ° 0 min 0 W/m² 4,6 °C 5,3 °C 9,7 km/h (2 Bft)
14.11.2024 04:40 21,0 °C 5,3 °C 57 % 95 % 1024,2 hPa 0,0 l/m² 3,8 km/h (1 Bft) SW 215 ° 0 min 0 W/m² 4,6 °C 5,3 °C 4,8 km/h (1 Bft)
14.11.2024 04:41 21,0 °C 5,3 °C 57 % 95 % 1024,2 hPa 0,0 l/m² 3,6 km/h (1 Bft) SW 215 ° 0 min 0 W/m² 4,6 °C 5,3 °C 6,4 km/h (2 Bft)
14.11.2024 04:42 21,0 °C 5,3 °C 57 % 95 % 1024,2 hPa 0,0 l/m² 3,7 km/h (1 Bft) SW 215 ° 0 min 0 W/m² 4,6 °C 5,3 °C 4,8 km/h (1 Bft)
14.11.2024 04:44 21,0 °C 5,4 °C 57 % 95 % 1024,2 hPa 0,0 l/m² 4,2 km/h (1 Bft) SW 215 ° 0 min 0 W/m² 4,7 °C 5,4 °C 6,4 km/h (2 Bft)
14.11.2024 04:46 21,0 °C 5,4 °C 57 % 95 % 1024,2 hPa 0,0 l/m² 2,6 km/h (1 Bft) SW 215 ° 0 min 0 W/m² 4,7 °C 5,4 °C 4,8 km/h (1 Bft)
14.11.2024 04:48 21,0 °C 5,4 °C 57 % 95 % 1024,2 hPa 0,0 l/m² 3,9 km/h (1 Bft) SW 215 ° 0 min 0 W/m² 4,7 °C 5,4 °C 6,4 km/h (2 Bft)
14.11.2024 04:50 21,0 °C 5,4 °C 57 % 95 % 1024,1 hPa 0,0 l/m² 4,5 km/h (1 Bft) SW 217 ° 0 min 0 W/m² 4,7 °C 5,4 °C 6,4 km/h (2 Bft)
14.11.2024 04:51 21,0 °C 5,4 °C 57 % 95 % 1024,1 hPa 0,0 l/m² 5,7 km/h (2 Bft) SW 227 ° 0 min 0 W/m² 4,7 °C 5,4 °C 8,0 km/h (2 Bft)
14.11.2024 04:52 21,0 °C 5,4 °C 57 % 95 % 1024,1 hPa 0,0 l/m² 3,9 km/h (1 Bft) SW 227 ° 0 min 0 W/m² 4,7 °C 5,4 °C 4,8 km/h (1 Bft)
14.11.2024 04:53 21,0 °C 5,4 °C 57 % 95 % 1024,2 hPa 0,0 l/m² 6,1 km/h (2 Bft) SW 229 ° 0 min 0 W/m² 4,7 °C 5,4 °C 9,7 km/h (2 Bft)
14.11.2024 04:55 21,0 °C 5,4 °C 57 % 95 % 1024,1 hPa 0,0 l/m² 7,3 km/h (2 Bft) SW 229 ° 0 min 0 W/m² 4,7 °C 4,6 °C 12,9 km/h (3 Bft)
14.11.2024 04:56 21,0 °C 5,4 °C 57 % 95 % 1024,2 hPa 0,0 l/m² 6,6 km/h (2 Bft) SW 232 ° 0 min 0 W/m² 4,7 °C 5,2 °C 9,7 km/h (2 Bft)
14.11.2024 04:58 21,0 °C 5,5 °C 57 % 95 % 1024,1 hPa 0,0 l/m² 6,0 km/h (2 Bft) W-SW 237 ° 0 min 0 W/m² 4,8 °C 5,5 °C 9,7 km/h (2 Bft)
14.11.2024 05:00 21,0 °C 5,5 °C 57 % 95 % 1024,2 hPa 0,0 l/m² 6,1 km/h (2 Bft) SW 233 ° 0 min 0 W/m² 4,8 °C 5,5 °C 8,0 km/h (2 Bft)
14.11.2024 05:01 21,0 °C 5,5 °C 57 % 95 % 1024,2 hPa 0,0 l/m² 6,0 km/h (2 Bft) S-SW 198 ° 0 min 0 W/m² 4,8 °C 5,5 °C 11,3 km/h (2 Bft)
14.11.2024 05:02 21,0 °C 5,6 °C 57 % 95 % 1024,2 hPa 0,0 l/m² 4,4 km/h (1 Bft) SW 221 ° 0 min 0 W/m² 4,9 °C 5,6 °C 8,0 km/h (2 Bft)
14.11.2024 05:03 21,0 °C 5,5 °C 57 % 95 % 1024,2 hPa 0,0 l/m² 5,6 km/h (2 Bft) SW 223 ° 0 min 0 W/m² 4,8 °C 5,5 °C 6,4 km/h (2 Bft)
14.11.2024 05:05 21,0 °C 5,6 °C 57 % 95 % 1024,2 hPa 0,0 l/m² 5,2 km/h (1 Bft) SW 234 ° 0 min 0 W/m² 4,9 °C 5,6 °C 8,0 km/h (2 Bft)
14.11.2024 05:06 21,0 °C 5,6 °C 57 % 95 % 1024,3 hPa 0,0 l/m² 2,9 km/h (1 Bft) SW 234 ° 0 min 0 W/m² 4,9 °C 5,6 °C 4,8 km/h (1 Bft)
14.11.2024 05:08 21,0 °C 5,6 °C 57 % 95 % 1024,2 hPa 0,0 l/m² 7,5 km/h (2 Bft) SW 232 ° 0 min 0 W/m² 4,9 °C 4,6 °C 12,9 km/h (3 Bft)
14.11.2024 05:10 21,0 °C 5,6 °C 57 % 95 % 1024,2 hPa 0,0 l/m² 2,7 km/h (1 Bft) SW 233 ° 0 min 0 W/m² 4,9 °C 5,6 °C 8,0 km/h (2 Bft)
14.11.2024 05:11 21,0 °C 5,6 °C 57 % 95 % 1024,2 hPa 0,0 l/m² 4,5 km/h (1 Bft) SW 234 ° 0 min 0 W/m² 4,9 °C 5,6 °C 8,0 km/h (2 Bft)
14.11.2024 05:12 21,0 °C 5,6 °C 57 % 95 % 1024,2 hPa 0,0 l/m² 5,1 km/h (1 Bft) SW 233 ° 0 min 0 W/m² 4,9 °C 5,6 °C 8,0 km/h (2 Bft)
14.11.2024 05:13 21,0 °C 5,6 °C 57 % 95 % 1024,2 hPa 0,0 l/m² 6,3 km/h (2 Bft) SW 227 ° 0 min 0 W/m² 4,9 °C 5,6 °C 8,0 km/h (2 Bft)
14.11.2024 05:15 21,0 °C 5,6 °C 57 % 95 % 1024,1 hPa 0,0 l/m² 10,3 km/h (2 Bft) SW 223 ° 0 min 0 W/m² 4,9 °C 2,5 °C 16,1 km/h (3 Bft)
14.11.2024 05:17 21,0 °C 5,6 °C 57 % 95 % 1024,1 hPa 0,0 l/m² 6,3 km/h (2 Bft) SW 234 ° 0 min 0 W/m² 4,9 °C 5,6 °C 9,7 km/h (2 Bft)
14.11.2024 05:19 21,0 °C 5,7 °C 57 % 95 % 1024,1 hPa 0,0 l/m² 5,6 km/h (2 Bft) SW 236 ° 0 min 0 W/m² 5,0 °C 5,7 °C 8,0 km/h (2 Bft)
14.11.2024 05:20 21,0 °C 5,7 °C 57 % 95 % 1024,1 hPa 0,0 l/m² 4,8 km/h (1 Bft) SW 232 ° 0 min 0 W/m² 5,0 °C 5,7 °C 6,4 km/h (2 Bft)
14.11.2024 05:22 21,0 °C 5,7 °C 57 % 95 % 1024,2 hPa 0,0 l/m² 4,9 km/h (1 Bft) SW 232 ° 0 min 0 W/m² 5,0 °C 5,7 °C 6,4 km/h (2 Bft)
14.11.2024 05:24 21,0 °C 5,7 °C 57 % 95 % 1024,1 hPa 0,0 l/m² 5,6 km/h (2 Bft) SW 225 ° 0 min 0 W/m² 5,0 °C 5,7 °C 8,0 km/h (2 Bft)
14.11.2024 05:26 21,0 °C 5,7 °C 57 % 95 % 1024,1 hPa 0,0 l/m² 9,2 km/h (2 Bft) S-SW 213 ° 0 min 0 W/m² 5,0 °C 3,4 °C 12,9 km/h (3 Bft)
14.11.2024 05:28 21,0 °C 5,7 °C 57 % 95 % 1024,0 hPa 0,0 l/m² 7,4 km/h (2 Bft) SW 215 ° 0 min 0 W/m² 5,0 °C 4,8 °C 11,3 km/h (2 Bft)
14.11.2024 05:30 20,9 °C 5,7 °C 57 % 95 % 1024,0 hPa 0,0 l/m² 8,4 km/h (2 Bft) SW 218 ° 0 min 0 W/m² 5,0 °C 4,0 °C 12,9 km/h (3 Bft)
14.11.2024 05:31 21,0 °C 5,7 °C 57 % 95 % 1024,1 hPa 0,0 l/m² 8,4 km/h (2 Bft) SW 217 ° 0 min 0 W/m² 5,0 °C 4,0 °C 12,9 km/h (3 Bft)
14.11.2024 05:32 20,9 °C 5,7 °C 57 % 95 % 1024,0 hPa 0,0 l/m² 4,9 km/h (1 Bft) SW 225 ° 0 min 0 W/m² 5,0 °C 5,7 °C 8,0 km/h (2 Bft)
14.11.2024 05:33 21,0 °C 5,7 °C 57 % 95 % 1024,0 hPa 0,0 l/m² 6,5 km/h (2 Bft) W-SW 239 ° 0 min 0 W/m² 5,0 °C 5,6 °C 12,9 km/h (3 Bft)
14.11.2024 05:35 21,0 °C 5,8 °C 57 % 95 % 1024,0 hPa 0,0 l/m² 8,1 km/h (2 Bft) SW 221 ° 0 min 0 W/m² 5,1 °C 4,4 °C 11,3 km/h (2 Bft)
14.11.2024 05:36 21,0 °C 5,8 °C 57 % 95 % 1023,9 hPa 0,0 l/m² 6,9 km/h (2 Bft) SW 231 ° 0 min 0 W/m² 5,1 °C 5,4 °C 9,7 km/h (2 Bft)
14.11.2024 05:38 21,0 °C 5,8 °C 57 % 95 % 1024,0 hPa 0,0 l/m² 9,5 km/h (2 Bft) SW 236 ° 0 min 0 W/m² 5,1 °C 3,3 °C 16,1 km/h (3 Bft)
14.11.2024 05:40 21,0 °C 5,8 °C 57 % 95 % 1024,0 hPa 0,0 l/m² 7,6 km/h (2 Bft) SW 222 ° 0 min 0 W/m² 5,1 °C 4,8 °C 11,3 km/h (2 Bft)
14.11.2024 05:41 21,0 °C 5,8 °C 57 % 95 % 1023,9 hPa 0,0 l/m² 6,2 km/h (2 Bft) W-SW 248 ° 0 min 0 W/m² 5,1 °C 5,8 °C 12,9 km/h (3 Bft)
14.11.2024 05:42 21,0 °C 5,8 °C 57 % 95 % 1024,1 hPa 0,0 l/m² 7,2 km/h (2 Bft) SW 236 ° 0 min 0 W/m² 5,1 °C 5,1 °C 9,7 km/h (2 Bft)
14.11.2024 05:43 21,0 °C 5,8 °C 57 % 95 % 1023,9 hPa 0,0 l/m² 6,0 km/h (2 Bft) SW 235 ° 0 min 0 W/m² 5,1 °C 5,8 °C 8,0 km/h (2 Bft)
14.11.2024 05:45 21,0 °C 5,8 °C 57 % 95 % 1023,9 hPa 0,0 l/m² 6,9 km/h (2 Bft) W-SW 240 ° 0 min 0 W/m² 5,1 °C 5,4 °C 9,7 km/h (2 Bft)
14.11.2024 05:47 21,0 °C 5,8 °C 57 % 95 % 1023,8 hPa 0,0 l/m² 6,8 km/h (2 Bft) SW 221 ° 0 min 0 W/m² 5,1 °C 5,5 °C 11,3 km/h (2 Bft)
14.11.2024 05:49 21,0 °C 5,8 °C 57 % 95 % 1023,9 hPa 0,0 l/m² 10,1 km/h (2 Bft) SW 221 ° 0 min 0 W/m² 5,1 °C 2,9 °C 14,5 km/h (3 Bft)
14.11.2024 05:50 21,0 °C 5,8 °C 57 % 95 % 1023,8 hPa 0,0 l/m² 7,0 km/h (2 Bft) SW 230 ° 0 min 0 W/m² 5,1 °C 5,3 °C 11,3 km/h (2 Bft)
14.11.2024 05:51 21,0 °C 5,8 °C 57 % 95 % 1023,8 hPa 0,0 l/m² 5,7 km/h (2 Bft) SW 230 ° 0 min 0 W/m² 5,1 °C 5,8 °C 8,0 km/h (2 Bft)
14.11.2024 05:52 21,0 °C 5,8 °C 57 % 95 % 1023,9 hPa 0,0 l/m² 7,4 km/h (2 Bft) SW 227 ° 0 min 0 W/m² 5,1 °C 4,9 °C 9,7 km/h (2 Bft)
14.11.2024 05:54 21,0 °C 5,8 °C 57 % 95 % 1023,8 hPa 0,0 l/m² 8,2 km/h (2 Bft) SW 223 ° 0 min 0 W/m² 5,1 °C 4,3 °C 12,9 km/h (3 Bft)
14.11.2024 05:56 21,0 °C 5,9 °C 57 % 95 % 1023,8 hPa 0,0 l/m² 7,3 km/h (2 Bft) SW 216 ° 0 min 0 W/m² 5,2 °C 5,1 °C 11,3 km/h (2 Bft)
14.11.2024 05:58 21,0 °C 5,9 °C 57 % 95 % 1023,9 hPa 0,0 l/m² 7,6 km/h (2 Bft) SW 232 ° 0 min 0 W/m² 5,2 °C 4,9 °C 11,3 km/h (2 Bft)
14.11.2024 06:00 21,0 °C 5,9 °C 57 % 95 % 1023,8 hPa 0,0 l/m² 9,7 km/h (2 Bft) SW 220 ° 0 min 0 W/m² 5,2 °C 3,3 °C 12,9 km/h (3 Bft)
14.11.2024 06:01 21,0 °C 5,9 °C 57 % 95 % 1023,8 hPa 0,0 l/m² 9,5 km/h (2 Bft) SW 221 ° 0 min 0 W/m² 5,2 °C 3,4 °C 12,9 km/h (3 Bft)
14.11.2024 06:02 21,0 °C 5,9 °C 57 % 95 % 1023,8 hPa 0,0 l/m² 8,3 km/h (2 Bft) SW 228 ° 0 min 0 W/m² 5,2 °C 4,3 °C 9,7 km/h (2 Bft)
14.11.2024 06:03 21,0 °C 5,9 °C 57 % 95 % 1023,8 hPa 0,0 l/m² 7,8 km/h (2 Bft) S-SW 213 ° 0 min 0 W/m² 5,2 °C 4,7 °C 11,3 km/h (2 Bft)
14.11.2024 06:05 21,0 °C 5,9 °C 57 % 95 % 1023,7 hPa 0,0 l/m² 8,4 km/h (2 Bft) SW 215 ° 0 min 0 W/m² 5,2 °C 4,2 °C 12,9 km/h (3 Bft)
14.11.2024 06:07 21,0 °C 5,9 °C 57 % 95 % 1023,7 hPa 0,0 l/m² 8,8 km/h (2 Bft) S-SW 205 ° 0 min 0 W/m² 5,2 °C 3,9 °C 12,9 km/h (3 Bft)
14.11.2024 06:09 21,0 °C 5,9 °C 57 % 95 % 1023,7 hPa 0,0 l/m² 11,8 km/h (2 Bft) SW 225 ° 0 min 0 W/m² 5,2 °C 1,9 °C 14,5 km/h (3 Bft)
14.11.2024 06:11 21,0 °C 5,9 °C 57 % 95 % 1023,6 hPa 0,0 l/m² 8,2 km/h (2 Bft) S-SW 213 ° 0 min 0 W/m² 5,2 °C 4,4 °C 11,3 km/h (2 Bft)
14.11.2024 06:12 21,0 °C 5,9 °C 57 % 95 % 1023,6 hPa 0,0 l/m² 10,5 km/h (2 Bft) SW 215 ° 0 min 0 W/m² 5,2 °C 2,7 °C 14,5 km/h (3 Bft)
14.11.2024 06:13 21,0 °C 5,9 °C 57 % 95 % 1023,5 hPa 0,0 l/m² 10,5 km/h (2 Bft) SW 225 ° 0 min 0 W/m² 5,2 °C 2,7 °C 12,9 km/h (3 Bft)
14.11.2024 06:14 21,0 °C 5,9 °C 57 % 95 % 1023,5 hPa 0,0 l/m² 10,5 km/h (2 Bft) SW 224 ° 0 min 0 W/m² 5,2 °C 2,7 °C 16,1 km/h (3 Bft)
14.11.2024 06:16 21,0 °C 5,9 °C 57 % 95 % 1023,6 hPa 0,0 l/m² 8,8 km/h (2 Bft) SW 219 ° 0 min 0 W/m² 5,2 °C 3,9 °C 12,9 km/h (3 Bft)
14.11.2024 06:18 21,1 °C 5,9 °C 57 % 95 % 1023,6 hPa 0,0 l/m² 10,1 km/h (2 Bft) SW 228 ° 0 min 0 W/m² 5,2 °C 3,0 °C 12,9 km/h (3 Bft)
14.11.2024 06:20 21,0 °C 5,9 °C 57 % 95 % 1023,6 hPa 0,0 l/m² 11,7 km/h (2 Bft) SW 223 ° 0 min 0 W/m² 5,2 °C 2,0 °C 16,1 km/h (3 Bft)
14.11.2024 06:21 21,0 °C 6,0 °C 58 % 95 % 1023,7 hPa 0,0 l/m² 8,2 km/h (2 Bft) W-SW 238 ° 0 min 0 W/m² 5,3 °C 4,5 °C 12,9 km/h (3 Bft)
14.11.2024 06:23 21,0 °C 6,0 °C 58 % 95 % 1023,6 hPa 0,0 l/m² 11,9 km/h (2 Bft) SW 224 ° 0 min 0 W/m² 5,3 °C 2,0 °C 17,7 km/h (3 Bft)
14.11.2024 06:25 21,0 °C 6,0 °C 58 % 95 % 1023,6 hPa 0,0 l/m² 7,8 km/h (2 Bft) W-SW 240 ° 0 min 0 W/m² 5,3 °C 4,8 °C 11,3 km/h (2 Bft)
14.11.2024 06:27 21,0 °C 6,0 °C 58 % 95 % 1023,6 hPa 0,0 l/m² 8,0 km/h (2 Bft) SW 235 ° 0 min 0 W/m² 5,3 °C 4,7 °C 12,9 km/h (3 Bft)
14.11.2024 06:29 21,1 °C 6,0 °C 58 % 95 % 1023,6 hPa 0,0 l/m² 8,1 km/h (2 Bft) SW 234 ° 0 min 0 W/m² 5,3 °C 4,6 °C 11,3 km/h (2 Bft)
14.11.2024 06:31 21,0 °C 6,0 °C 58 % 95 % 1023,5 hPa 0,0 l/m² 10,0 km/h (2 Bft) SW 221 ° 0 min 0 W/m² 5,3 °C 3,2 °C 12,9 km/h (3 Bft)
14.11.2024 06:33 21,0 °C 6,1 °C 58 % 95 % 1023,6 hPa 0,2 l/m² 11,1 km/h (2 Bft) SW 234 ° 0 min 0 W/m² 5,4 °C 2,6 °C 14,5 km/h (3 Bft)
14.11.2024 06:35 21,1 °C 6,1 °C 58 % 95 % 1023,5 hPa 0,0 l/m² 9,9 km/h (2 Bft) SW 227 ° 0 min 0 W/m² 5,4 °C 3,4 °C 16,1 km/h (3 Bft)
14.11.2024 06:37 21,0 °C 6,1 °C 58 % 95 % 1023,5 hPa 0,0 l/m² 11,8 km/h (2 Bft) SW 214 ° 0 min 0 W/m² 5,4 °C 2,1 °C 17,7 km/h (3 Bft)
14.11.2024 06:39 21,0 °C 6,1 °C 58 % 95 % 1023,5 hPa 0,0 l/m² 9,2 km/h (2 Bft) SW 221 ° 0 min 0 W/m² 5,4 °C 3,8 °C 12,9 km/h (3 Bft)
14.11.2024 06:41 21,1 °C 6,1 °C 58 % 95 % 1023,5 hPa 0,0 l/m² 8,9 km/h (2 Bft) SW 217 ° 0 min 0 W/m² 5,4 °C 4,1 °C 12,9 km/h (3 Bft)
14.11.2024 06:43 21,0 °C 6,1 °C 58 % 95 % 1023,4 hPa 0,0 l/m² 9,0 km/h (2 Bft) SW 218 ° 0 min 0 W/m² 5,4 °C 4,0 °C 12,9 km/h (3 Bft)
14.11.2024 06:45 21,0 °C 6,1 °C 57 % 95 % 1023,5 hPa 0,0 l/m² 9,1 km/h (2 Bft) SW 219 ° 0 min 0 W/m² 5,4 °C 3,9 °C 12,9 km/h (3 Bft)
14.11.2024 06:47 21,0 °C 6,1 °C 57 % 95 % 1023,5 hPa 0,0 l/m² 7,9 km/h (2 Bft) SW 222 ° 0 min 0 W/m² 5,4 °C 4,8 °C 11,3 km/h (2 Bft)
14.11.2024 06:48 21,0 °C 6,1 °C 57 % 95 % 1023,5 hPa 0,0 l/m² 6,4 km/h (2 Bft) SW 219 ° 0 min 0 W/m² 5,4 °C 6,1 °C 9,7 km/h (2 Bft)
14.11.2024 06:50 21,0 °C 6,1 °C 57 % 95 % 1023,5 hPa 0,0 l/m² 6,1 km/h (2 Bft) SW 220 ° 0 min 0 W/m² 5,4 °C 6,1 °C 9,7 km/h (2 Bft)
14.11.2024 06:52 21,0 °C 6,1 °C 57 % 95 % 1023,5 hPa 0,0 l/m² 7,6 km/h (2 Bft) SW 223 ° 0 min 0 W/m² 5,4 °C 5,1 °C 11,3 km/h (2 Bft)
14.11.2024 06:54 21,0 °C 6,1 °C 57 % 95 % 1023,5 hPa 0,0 l/m² 6,8 km/h (2 Bft) SW 227 ° 0 min 0 W/m² 5,4 °C 5,8 °C 9,7 km/h (2 Bft)
14.11.2024 06:56 21,0 °C 6,1 °C 58 % 96 % 1023,4 hPa 0,0 l/m² 6,4 km/h (2 Bft) SW 225 ° 0 min 0 W/m² 5,5 °C 6,1 °C 9,7 km/h (2 Bft)
14.11.2024 06:58 21,0 °C 6,1 °C 58 % 96 % 1023,4 hPa 0,0 l/m² 7,0 km/h (2 Bft) SW 223 ° 0 min 0 W/m² 5,5 °C 5,6 °C 8,0 km/h (2 Bft)
14.11.2024 07:00 21,0 °C 6,1 °C 58 % 96 % 1023,5 hPa 0,2 l/m² 6,8 km/h (2 Bft) SW 227 ° 0 min 0 W/m² 5,5 °C 5,8 °C 9,7 km/h (2 Bft)
14.11.2024 07:01 21,0 °C 6,1 °C 58 % 96 % 1023,4 hPa 0,0 l/m² 6,9 km/h (2 Bft) SW 226 ° 0 min 0 W/m² 5,5 °C 5,7 °C 9,7 km/h (2 Bft)
14.11.2024 07:02 21,0 °C 6,1 °C 58 % 96 % 1023,4 hPa 0,0 l/m² 5,3 km/h (1 Bft) SW 227 ° 0 min 0 W/m² 5,5 °C 6,1 °C 6,4 km/h (2 Bft)
14.11.2024 07:04 21,0 °C 6,1 °C 58 % 96 % 1023,5 hPa 0,0 l/m² 6,0 km/h (2 Bft) SW 225 ° 0 min 0 W/m² 5,5 °C 6,1 °C 8,0 km/h (2 Bft)
14.11.2024 07:06 21,0 °C 6,1 °C 58 % 96 % 1023,5 hPa 0,0 l/m² 6,8 km/h (2 Bft) SW 225 ° 0 min 0 W/m² 5,5 °C 5,8 °C 8,0 km/h (2 Bft)
14.11.2024 07:08 21,0 °C 6,1 °C 58 % 96 % 1023,5 hPa 0,0 l/m² 5,8 km/h (2 Bft) SW 224 ° 0 min 0 W/m² 5,5 °C 6,1 °C 6,4 km/h (2 Bft)
14.11.2024 07:10 21,0 °C 6,1 °C 58 % 96 % 1023,5 hPa 0,0 l/m² 6,3 km/h (2 Bft) SW 223 ° 0 min 0 W/m² 5,5 °C 6,1 °C 8,0 km/h (2 Bft)
14.11.2024 07:11 21,0 °C 6,1 °C 58 % 96 % 1023,5 hPa 0,0 l/m² 5,5 km/h (2 Bft) SW 223 ° 0 min 0 W/m² 5,5 °C 6,1 °C 8,0 km/h (2 Bft)
14.11.2024 07:12 21,0 °C 6,1 °C 58 % 96 % 1023,5 hPa 0,0 l/m² 7,6 km/h (2 Bft) S-SW 213 ° 0 min 0 W/m² 5,5 °C 5,1 °C 9,7 km/h (2 Bft)
14.11.2024 07:13 21,0 °C 6,1 °C 58 % 96 % 1023,5 hPa 0,0 l/m² 5,9 km/h (2 Bft) S-SW 211 ° 0 min 0 W/m² 5,5 °C 6,1 °C 9,7 km/h (2 Bft)
14.11.2024 07:15 21,0 °C 6,1 °C 58 % 96 % 1023,6 hPa 0,0 l/m² 5,9 km/h (2 Bft) S-SW 211 ° 0 min 0 W/m² 5,5 °C 6,1 °C 8,0 km/h (2 Bft)
14.11.2024 07:17 21,0 °C 6,1 °C 58 % 96 % 1023,5 hPa 0,0 l/m² 7,0 km/h (2 Bft) S-SW 211 ° 0 min 0 W/m² 5,5 °C 5,6 °C 9,7 km/h (2 Bft)
14.11.2024 07:19 21,0 °C 6,1 °C 58 % 96 % 1023,4 hPa 0,0 l/m² 5,7 km/h (2 Bft) S-SW 210 ° 0 min 0 W/m² 5,5 °C 6,1 °C 8,0 km/h (2 Bft)
14.11.2024 07:21 21,0 °C 6,1 °C 58 % 96 % 1023,5 hPa 0,0 l/m² 4,9 km/h (1 Bft) S-SW 210 ° 0 min 0 W/m² 5,5 °C 6,1 °C 6,4 km/h (2 Bft)
14.11.2024 07:23 21,0 °C 6,2 °C 58 % 96 % 1023,4 hPa 0,0 l/m² 5,6 km/h (2 Bft) S-SW 210 ° 0 min 0 W/m² 5,6 °C 6,2 °C 8,0 km/h (2 Bft)
14.11.2024 07:25 21,0 °C 6,2 °C 58 % 96 % 1023,4 hPa 0,0 l/m² 5,5 km/h (2 Bft) S-SW 210 ° 0 min 0 W/m² 5,6 °C 6,2 °C 6,4 km/h (2 Bft)
14.11.2024 07:27 21,0 °C 6,2 °C 58 % 96 % 1023,4 hPa 0,2 l/m² 4,7 km/h (1 Bft) S-SW 210 ° 0 min 0 W/m² 5,6 °C 6,2 °C 6,4 km/h (2 Bft)
14.11.2024 07:29 21,0 °C 6,2 °C 58 % 96 % 1023,4 hPa 0,0 l/m² 6,2 km/h (2 Bft) S-SW 210 ° 0 min 0 W/m² 5,6 °C 6,2 °C 8,0 km/h (2 Bft)
14.11.2024 07:31 20,9 °C 6,2 °C 58 % 96 % 1023,4 hPa 0,0 l/m² 6,7 km/h (2 Bft) S-SW 210 ° 0 min 0 W/m² 5,6 °C 6,0 °C 8,0 km/h (2 Bft)
14.11.2024 07:33 20,9 °C 6,2 °C 58 % 96 % 1023,4 hPa 0,0 l/m² 5,8 km/h (2 Bft) S-SW 210 ° 0 min 0 W/m² 5,6 °C 6,2 °C 8,0 km/h (2 Bft)
14.11.2024 07:35 20,9 °C 6,2 °C 58 % 96 % 1023,4 hPa 0,0 l/m² 5,1 km/h (1 Bft) S-SW 210 ° 0 min 0 W/m² 5,6 °C 6,2 °C 6,4 km/h (2 Bft)
14.11.2024 07:37 21,0 °C 6,2 °C 58 % 96 % 1023,4 hPa 0,0 l/m² 3,4 km/h (1 Bft) S-SW 210 ° 0 min 0 W/m² 5,6 °C 6,2 °C 4,8 km/h (1 Bft)
14.11.2024 07:39 21,0 °C 6,2 °C 58 % 96 % 1023,4 hPa 0,0 l/m² 4,9 km/h (1 Bft) S-SW 210 ° 0 min 0 W/m² 5,6 °C 6,2 °C 6,4 km/h (2 Bft)
14.11.2024 07:41 20,9 °C 6,2 °C 58 % 96 % 1023,4 hPa 0,0 l/m² 4,0 km/h (1 Bft) S-SW 210 ° 0 min 0 W/m² 5,6 °C 6,2 °C 4,8 km/h (1 Bft)
14.11.2024 07:43 21,0 °C 6,2 °C 58 % 96 % 1023,4 hPa 0,0 l/m² 4,7 km/h (1 Bft) S-SW 210 ° 0 min 0 W/m² 5,6 °C 6,2 °C 6,4 km/h (2 Bft)
14.11.2024 07:45 20,9 °C 6,2 °C 58 % 96 % 1023,4 hPa 0,0 l/m² 4,7 km/h (1 Bft) S-SW 210 ° 0 min 0 W/m² 5,6 °C 6,2 °C 6,4 km/h (2 Bft)
14.11.2024 07:47 21,0 °C 6,2 °C 58 % 96 % 1023,5 hPa 0,0 l/m² 4,3 km/h (1 Bft) S-SW 210 ° 0 min 0 W/m² 5,6 °C 6,2 °C 6,4 km/h (2 Bft)
14.11.2024 07:49 20,9 °C 6,2 °C 58 % 96 % 1023,5 hPa 0,0 l/m² 5,8 km/h (2 Bft) S-SW 210 ° 0 min 5 W/m² 5,6 °C 6,2 °C 8,0 km/h (2 Bft)
14.11.2024 07:51 20,9 °C 6,2 °C 58 % 96 % 1023,4 hPa 0,0 l/m² 7,1 km/h (2 Bft) S-SW 209 ° 0 min 5 W/m² 5,6 °C 5,6 °C 8,0 km/h (2 Bft)
14.11.2024 07:53 20,9 °C 6,3 °C 58 % 96 % 1023,3 hPa 0,0 l/m² 6,6 km/h (2 Bft) S-SW 210 ° 0 min 5 W/m² 5,7 °C 6,2 °C 8,0 km/h (2 Bft)
14.11.2024 07:55 20,9 °C 6,2 °C 58 % 95 % 1023,3 hPa 0,0 l/m² 7,0 km/h (2 Bft) S-SW 210 ° 0 min 7 W/m² 5,5 °C 5,7 °C 9,7 km/h (2 Bft)
14.11.2024 07:57 20,9 °C 6,3 °C 58 % 96 % 1023,4 hPa 0,0 l/m² 6,6 km/h (2 Bft) S-SW 210 ° 0 min 7 W/m² 5,7 °C 6,2 °C 8,0 km/h (2 Bft)
14.11.2024 07:59 20,9 °C 6,3 °C 58 % 96 % 1023,4 hPa 0,0 l/m² 6,7 km/h (2 Bft) S-SW 210 ° 0 min 9 W/m² 5,7 °C 6,1 °C 9,7 km/h (2 Bft)
14.11.2024 08:01 20,9 °C 6,3 °C 58 % 95 % 1023,3 hPa 0,0 l/m² 7,9 km/h (2 Bft) S-SW 210 ° 0 min 11 W/m² 5,6 °C 5,0 °C 11,3 km/h (2 Bft)
14.11.2024 08:03 20,9 °C 6,3 °C 58 % 95 % 1023,3 hPa 0,0 l/m² 7,1 km/h (2 Bft) S-SW 212 ° 0 min 12 W/m² 5,6 °C 5,7 °C 9,7 km/h (2 Bft)
14.11.2024 08:05 20,9 °C 6,3 °C 56 % 95 % 1023,4 hPa 0,0 l/m² 6,4 km/h (2 Bft) SW 222 ° 0 min 12 W/m² 5,6 °C 6,3 °C 9,7 km/h (2 Bft)
14.11.2024 08:07 20,9 °C 6,3 °C 56 % 95 % 1023,5 hPa 0,0 l/m² 5,8 km/h (2 Bft) SW 234 ° 0 min 16 W/m² 5,6 °C 6,3 °C 9,7 km/h (2 Bft)
14.11.2024 08:09 20,9 °C 6,4 °C 56 % 95 % 1023,5 hPa 0,0 l/m² 5,9 km/h (2 Bft) SW 232 ° 0 min 16 W/m² 5,7 °C 6,4 °C 9,7 km/h (2 Bft)
14.11.2024 08:11 20,9 °C 6,4 °C 56 % 96 % 1023,5 hPa 0,0 l/m² 7,8 km/h (2 Bft) SW 224 ° 0 min 21 W/m² 5,8 °C 5,2 °C 11,3 km/h (2 Bft)
14.11.2024 08:13 20,8 °C 6,4 °C 56 % 96 % 1023,6 hPa 0,0 l/m² 5,5 km/h (2 Bft) SW 225 ° 0 min 23 W/m² 5,8 °C 6,4 °C 9,7 km/h (2 Bft)
14.11.2024 08:15 20,8 °C 6,5 °C 56 % 96 % 1023,5 hPa 0,0 l/m² 9,0 km/h (2 Bft) S-SW 208 ° 0 min 25 W/m² 5,9 °C 4,4 °C 12,9 km/h (3 Bft)
14.11.2024 08:17 20,9 °C 6,5 °C 56 % 96 % 1023,5 hPa 0,2 l/m² 9,4 km/h (2 Bft) SW 215 ° 0 min 23 W/m² 5,9 °C 4,1 °C 11,3 km/h (2 Bft)
14.11.2024 08:19 20,8 °C 6,6 °C 56 % 96 % 1023,6 hPa 0,0 l/m² 8,8 km/h (2 Bft) SW 221 ° 0 min 21 W/m² 6,0 °C 4,7 °C 11,3 km/h (2 Bft)
14.11.2024 08:21 20,8 °C 6,6 °C 56 % 96 % 1023,6 hPa 0,0 l/m² 9,1 km/h (2 Bft) S-SW 209 ° 0 min 21 W/m² 6,0 °C 4,5 °C 11,3 km/h (2 Bft)
14.11.2024 08:23 20,8 °C 6,6 °C 56 % 96 % 1023,6 hPa 0,0 l/m² 7,6 km/h (2 Bft) S-SW 209 ° 0 min 26 W/m² 6,0 °C 5,6 °C 9,7 km/h (2 Bft)
14.11.2024 08:25 20,9 °C 6,6 °C 56 % 96 % 1023,5 hPa 0,0 l/m² 8,8 km/h (2 Bft) S-SW 196 ° 0 min 25 W/m² 6,0 °C 4,7 °C 11,3 km/h (2 Bft)
14.11.2024 08:27 20,8 °C 6,7 °C 56 % 96 % 1023,6 hPa 0,0 l/m² 7,6 km/h (2 Bft) S-SW 207 ° 0 min 16 W/m² 6,1 °C 5,7 °C 11,3 km/h (2 Bft)
14.11.2024 08:29 20,8 °C 6,7 °C 56 % 96 % 1023,6 hPa 0,0 l/m² 7,3 km/h (2 Bft) S-SW 205 ° 0 min 18 W/m² 6,1 °C 6,0 °C 9,7 km/h (2 Bft)
14.11.2024 08:31 20,8 °C 6,7 °C 56 % 96 % 1023,6 hPa 0,0 l/m² 5,9 km/h (2 Bft) S-SW 197 ° 0 min 18 W/m² 6,1 °C 6,7 °C 8,0 km/h (2 Bft)
14.11.2024 08:33 20,8 °C 6,7 °C 56 % 96 % 1023,6 hPa 0,0 l/m² 3,3 km/h (1 Bft) S-SW 197 ° 0 min 16 W/m² 6,1 °C 6,7 °C 4,8 km/h (1 Bft)
14.11.2024 08:35 20,9 °C 6,7 °C 56 % 96 % 1023,6 hPa 0,0 l/m² 2,4 km/h (1 Bft) S-SW 197 ° 0 min 18 W/m² 6,1 °C 6,7 °C 3,2 km/h (1 Bft)
14.11.2024 08:37 20,9 °C 6,7 °C 56 % 96 % 1023,4 hPa 0,0 l/m² 2,8 km/h (1 Bft) S-SW 197 ° 0 min 14 W/m² 6,1 °C 6,7 °C 6,4 km/h (2 Bft)
14.11.2024 08:39 20,9 °C 6,8 °C 56 % 96 % 1023,5 hPa 0,0 l/m² 0,9 km/h (0 Bft) S-SW 197 ° 0 min 12 W/m² 6,2 °C 6,8 °C 3,2 km/h (1 Bft)
14.11.2024 08:41 20,9 °C 6,8 °C 56 % 96 % 1023,4 hPa 0,0 l/m² 0,0 km/h (0 Bft) S-SW 197 ° 0 min 16 W/m² 6,2 °C 6,8 °C 1,6 km/h (1 Bft)
14.11.2024 08:43 20,9 °C 6,8 °C 56 % 96 % 1023,5 hPa 0,0 l/m² 0,0 km/h (0 Bft) S-SW 197 ° 0 min 12 W/m² 6,2 °C 6,8 °C 0,0 km/h (0 Bft)
14.11.2024 08:45 20,9 °C 6,8 °C 56 % 96 % 1023,4 hPa 0,0 l/m² 3,1 km/h (1 Bft) W-SW 243 ° 0 min 11 W/m² 6,2 °C 6,8 °C 11,3 km/h (2 Bft)
14.11.2024 08:47 20,9 °C 6,8 °C 56 % 96 % 1023,4 hPa 0,0 l/m² 6,6 km/h (2 Bft) W-SW 238 ° 0 min 12 W/m² 6,2 °C 6,7 °C 11,3 km/h (2 Bft)
14.11.2024 08:49 20,9 °C 6,8 °C 56 % 96 % 1023,4 hPa 0,0 l/m² 5,7 km/h (2 Bft) W-SW 241 ° 0 min 9 W/m² 6,2 °C 6,8 °C 8,0 km/h (2 Bft)
14.11.2024 08:51 20,9 °C 6,8 °C 56 % 96 % 1023,4 hPa 0,0 l/m² 4,4 km/h (1 Bft) W-SW 240 ° 0 min 12 W/m² 6,2 °C 6,8 °C 8,0 km/h (2 Bft)
14.11.2024 08:53 20,9 °C 6,8 °C 56 % 96 % 1023,4 hPa 0,0 l/m² 4,1 km/h (1 Bft) W-SW 240 ° 0 min 16 W/m² 6,2 °C 6,8 °C 6,4 km/h (2 Bft)
14.11.2024 08:55 20,9 °C 6,9 °C 56 % 96 % 1023,4 hPa 0,0 l/m² 5,7 km/h (2 Bft) SW 234 ° 0 min 21 W/m² 6,3 °C 6,9 °C 8,0 km/h (2 Bft)
14.11.2024 08:57 20,9 °C 6,9 °C 56 % 96 % 1023,4 hPa 0,0 l/m² 5,8 km/h (2 Bft) SW 229 ° 0 min 21 W/m² 6,3 °C 6,9 °C 9,7 km/h (2 Bft)
14.11.2024 08:59 20,9 °C 6,9 °C 56 % 96 % 1023,4 hPa 0,0 l/m² 8,1 km/h (2 Bft) W-SW 239 ° 0 min 18 W/m² 6,3 °C 5,5 °C 14,5 km/h (3 Bft)
14.11.2024 09:01 20,9 °C 6,9 °C 56 % 96 % 1023,4 hPa 0,0 l/m² 4,7 km/h (1 Bft) W-SW 243 ° 0 min 16 W/m² 6,3 °C 6,9 °C 8,0 km/h (2 Bft)
14.11.2024 09:03 20,9 °C 6,9 °C 56 % 96 % 1023,4 hPa 0,0 l/m² 4,9 km/h (1 Bft) W-SW 241 ° 0 min 18 W/m² 6,3 °C 6,9 °C 6,4 km/h (2 Bft)
14.11.2024 09:05 20,9 °C 7,0 °C 56 % 96 % 1023,3 hPa 0,0 l/m² 6,6 km/h (2 Bft) W-SW 244 ° 0 min 14 W/m² 6,4 °C 6,9 °C 11,3 km/h (2 Bft)
14.11.2024 09:07 20,9 °C 6,9 °C 56 % 96 % 1023,3 hPa 0,0 l/m² 6,1 km/h (2 Bft) W-SW 241 ° 0 min 11 W/m² 6,3 °C 6,9 °C 9,7 km/h (2 Bft)
14.11.2024 09:09 20,9 °C 7,0 °C 57 % 96 % 1023,1 hPa 0,0 l/m² 6,6 km/h (2 Bft) SW 234 ° 0 min 12 W/m² 6,4 °C 6,9 °C 11,3 km/h (2 Bft)
14.11.2024 09:11 20,9 °C 7,0 °C 57 % 96 % 1023,1 hPa 0,0 l/m² 6,6 km/h (2 Bft) SW 235 ° 0 min 14 W/m² 6,4 °C 6,9 °C 8,0 km/h (2 Bft)
14.11.2024 09:13 20,9 °C 7,0 °C 57 % 96 % 1023,1 hPa 0,0 l/m² 6,6 km/h (2 Bft) W-SW 237 ° 0 min 21 W/m² 6,4 °C 6,9 °C 9,7 km/h (2 Bft)
14.11.2024 09:15 20,9 °C 7,1 °C 57 % 96 % 1023,1 hPa 0,0 l/m² 7,8 km/h (2 Bft) SW 229 ° 0 min 40 W/m² 6,5 °C 6,0 °C 11,3 km/h (2 Bft)
14.11.2024 09:17 20,9 °C 7,1 °C 57 % 96 % 1023,1 hPa 0,0 l/m² 9,6 km/h (2 Bft) SW 232 ° 2 min 69 W/m² 6,5 °C 4,7 °C 16,1 km/h (3 Bft)
14.11.2024 09:19 20,9 °C 7,1 °C 57 % 96 % 1023,0 hPa 0,0 l/m² 7,1 km/h (2 Bft) SW 236 ° 2 min 84 W/m² 6,5 °C 6,5 °C 9,7 km/h (2 Bft)
14.11.2024 09:21 20,9 °C 7,1 °C 57 % 96 % 1023,1 hPa 0,0 l/m² 6,7 km/h (2 Bft) SW 230 ° 2 min 102 W/m² 6,5 °C 6,9 °C 9,7 km/h (2 Bft)
14.11.2024 09:23 20,9 °C 7,2 °C 57 % 96 % 1023,0 hPa 0,0 l/m² 7,3 km/h (2 Bft) W-SW 243 ° 2 min 100 W/m² 6,6 °C 6,5 °C 11,3 km/h (2 Bft)
14.11.2024 09:25 20,9 °C 7,3 °C 57 % 96 % 1023,0 hPa 0,0 l/m² 8,2 km/h (2 Bft) SW 234 ° 2 min 79 W/m² 6,7 °C 5,9 °C 12,9 km/h (3 Bft)
14.11.2024 09:27 20,9 °C 7,3 °C 57 % 96 % 1023,0 hPa 0,0 l/m² 8,9 km/h (2 Bft) W-SW 256 ° 2 min 62 W/m² 6,7 °C 5,4 °C 11,3 km/h (2 Bft)
14.11.2024 09:29 21,0 °C 7,3 °C 57 % 96 % 1023,1 hPa 0,0 l/m² 8,5 km/h (2 Bft) W-SW 245 ° 2 min 63 W/m² 6,7 °C 5,6 °C 16,1 km/h (3 Bft)
14.11.2024 09:31 20,9 °C 7,3 °C 57 % 96 % 1023,0 hPa 0,0 l/m² 9,8 km/h (2 Bft) W-SW 238 ° 2 min 74 W/m² 6,7 °C 4,7 °C 16,1 km/h (3 Bft)
14.11.2024 09:33 21,0 °C 7,3 °C 56 % 96 % 1023,1 hPa 0,0 l/m² 7,3 km/h (2 Bft) W-SW 244 ° 2 min 72 W/m² 6,7 °C 6,6 °C 12,9 km/h (3 Bft)
14.11.2024 09:35 21,0 °C 7,3 °C 57 % 96 % 1023,0 hPa 0,0 l/m² 9,4 km/h (2 Bft) SW 227 ° 2 min 76 W/m² 6,7 °C 5,0 °C 14,5 km/h (3 Bft)
14.11.2024 09:37 20,9 °C 7,4 °C 56 % 96 % 1023,0 hPa 0,0 l/m² 10,6 km/h (2 Bft) SW 229 ° 2 min 74 W/m² 6,8 °C 4,3 °C 14,5 km/h (3 Bft)
14.11.2024 09:39 21,0 °C 7,4 °C 57 % 96 % 1022,9 hPa 0,0 l/m² 9,0 km/h (2 Bft) SW 215 ° 2 min 77 W/m² 6,8 °C 5,4 °C 14,5 km/h (3 Bft)
14.11.2024 09:41 21,0 °C 7,4 °C 56 % 96 % 1022,9 hPa 0,0 l/m² 13,0 km/h (3 Bft) SW 215 ° 2 min 70 W/m² 6,8 °C 3,0 °C 19,3 km/h (3 Bft)
14.11.2024 09:43 21,0 °C 7,4 °C 56 % 96 % 1023,0 hPa 0,0 l/m² 14,0 km/h (3 Bft) SW 215 ° 2 min 67 W/m² 6,8 °C 2,5 °C 19,3 km/h (3 Bft)
14.11.2024 09:45 21,0 °C 7,4 °C 56 % 96 % 1023,1 hPa 0,0 l/m² 13,0 km/h (3 Bft) SW 225 ° 2 min 62 W/m² 6,8 °C 3,0 °C 19,3 km/h (3 Bft)
14.11.2024 09:47 21,0 °C 7,4 °C 56 % 96 % 1023,1 hPa 0,0 l/m² 11,9 km/h (2 Bft) SW 220 ° 0 min 51 W/m² 6,8 °C 3,6 °C 16,1 km/h (3 Bft)
14.11.2024 09:48 21,0 °C 7,4 °C 56 % 96 % 1023,1 hPa 0,0 l/m² 11,0 km/h (2 Bft) SW 232 ° 0 min 49 W/m² 6,8 °C 4,1 °C 16,1 km/h (3 Bft)
14.11.2024 09:50 21,0 °C 7,4 °C 56 % 96 % 1023,1 hPa 0,0 l/m² 12,5 km/h (2 Bft) SW 223 ° 2 min 56 W/m² 6,8 °C 3,2 °C 19,3 km/h (3 Bft)
14.11.2024 09:52 21,0 °C 7,4 °C 56 % 96 % 1023,1 hPa 0,0 l/m² 10,3 km/h (2 Bft) SW 223 ° 2 min 62 W/m² 6,8 °C 4,5 °C 16,1 km/h (3 Bft)
14.11.2024 09:54 21,0 °C 7,5 °C 56 % 96 % 1023,2 hPa 0,0 l/m² 11,6 km/h (2 Bft) W-SW 256 ° 0 min 47 W/m² 6,9 °C 3,9 °C 17,7 km/h (3 Bft)
14.11.2024 09:56 21,0 °C 7,6 °C 56 % 96 % 1023,1 hPa 0,0 l/m² 12,3 km/h (2 Bft) SW 217 ° 2 min 53 W/m² 7,0 °C 3,6 °C 17,7 km/h (3 Bft)
14.11.2024 09:58 21,0 °C 7,6 °C 56 % 96 % 1023,2 hPa 0,0 l/m² 10,4 km/h (2 Bft) SW 227 ° 2 min 62 W/m² 7,0 °C 4,7 °C 14,5 km/h (3 Bft)
14.11.2024 10:00 21,0 °C 7,6 °C 56 % 96 % 1023,2 hPa 0,0 l/m² 13,0 km/h (3 Bft) SW 221 ° 0 min 46 W/m² 7,0 °C 3,2 °C 17,7 km/h (3 Bft)
14.11.2024 10:01 21,0 °C 7,6 °C 56 % 96 % 1023,3 hPa 0,0 l/m² 8,7 km/h (2 Bft) SW 230 ° 0 min 39 W/m² 7,0 °C 5,8 °C 11,3 km/h (2 Bft)
14.11.2024 10:02 21,0 °C 7,6 °C 56 % 96 % 1023,3 hPa 0,0 l/m² 11,0 km/h (2 Bft) SW 221 ° 0 min 37 W/m² 7,0 °C 4,3 °C 14,5 km/h (3 Bft)
14.11.2024 10:04 21,0 °C 7,6 °C 56 % 96 % 1023,4 hPa 0,0 l/m² 9,7 km/h (2 Bft) SW 227 ° 0 min 40 W/m² 7,0 °C 5,1 °C 14,5 km/h (3 Bft)
14.11.2024 10:06 21,0 °C 7,6 °C 56 % 96 % 1023,4 hPa 0,0 l/m² 12,7 km/h (3 Bft) SW 232 ° 0 min 40 W/m² 7,0 °C 3,4 °C 17,7 km/h (3 Bft)
14.11.2024 10:08 21,0 °C 7,6 °C 56 % 96 % 1023,3 hPa 0,0 l/m² 10,0 km/h (2 Bft) SW 216 ° 0 min 47 W/m² 7,0 °C 4,9 °C 14,5 km/h (3 Bft)
14.11.2024 10:10 21,0 °C 7,6 °C 56 % 96 % 1023,3 hPa 0,0 l/m² 9,5 km/h (2 Bft) S-SW 213 ° 0 min 51 W/m² 7,0 °C 5,3 °C 14,5 km/h (3 Bft)
14.11.2024 10:12 21,0 °C 7,7 °C 56 % 96 % 1023,3 hPa 0,0 l/m² 11,3 km/h (2 Bft) S-SW 208 ° 2 min 53 W/m² 7,1 °C 4,3 °C 16,1 km/h (3 Bft)
14.11.2024 10:13 21,0 °C 7,6 °C 56 % 96 % 1023,4 hPa 0,0 l/m² 10,8 km/h (2 Bft) SW 215 ° 1 min 56 W/m² 7,0 °C 4,4 °C 17,7 km/h (3 Bft)
14.11.2024 10:14 21,0 °C 7,6 °C 56 % 96 % 1023,4 hPa 0,0 l/m² 17,2 km/h (3 Bft) SW 225 ° 1 min 58 W/m² 7,0 °C 1,3 °C 20,9 km/h (4 Bft)
14.11.2024 10:16 21,0 °C 7,6 °C 56 % 96 % 1023,4 hPa 0,0 l/m² 13,9 km/h (3 Bft) S-SW 213 ° 2 min 56 W/m² 7,0 °C 2,8 °C 20,9 km/h (4 Bft)
14.11.2024 10:18 21,0 °C 7,7 °C 56 % 96 % 1023,5 hPa 0,0 l/m² 12,2 km/h (2 Bft) SW 222 ° 2 min 56 W/m² 7,1 °C 3,8 °C 19,3 km/h (3 Bft)
14.11.2024 10:20 21,0 °C 7,7 °C 56 % 96 % 1023,4 hPa 0,0 l/m² 13,8 km/h (3 Bft) SW 222 ° 2 min 63 W/m² 7,1 °C 2,9 °C 20,9 km/h (4 Bft)
14.11.2024 10:22 21,1 °C 7,7 °C 56 % 96 % 1023,4 hPa 0,0 l/m² 12,2 km/h (2 Bft) SW 220 ° 2 min 56 W/m² 7,1 °C 3,8 °C 17,7 km/h (3 Bft)
14.11.2024 10:24 21,0 °C 7,7 °C 56 % 96 % 1023,5 hPa 0,0 l/m² 14,8 km/h (3 Bft) S-SW 212 ° 2 min 54 W/m² 7,1 °C 2,4 °C 20,9 km/h (4 Bft)
14.11.2024 10:26 21,1 °C 7,7 °C 56 % 96 % 1023,4 hPa 0,0 l/m² 13,4 km/h (3 Bft) SW 234 ° 2 min 65 W/m² 7,1 °C 3,1 °C 20,9 km/h (4 Bft)
14.11.2024 10:28 21,0 °C 7,8 °C 56 % 96 % 1023,5 hPa 0,0 l/m² 14,9 km/h (3 Bft) SW 227 ° 2 min 65 W/m² 7,2 °C 2,5 °C 22,5 km/h (4 Bft)
14.11.2024 10:30 21,0 °C 7,8 °C 56 % 96 % 1023,5 hPa 0,0 l/m² 14,6 km/h (3 Bft) SW 214 ° 2 min 76 W/m² 7,2 °C 2,7 °C 20,9 km/h (4 Bft)
14.11.2024 10:32 21,0 °C 7,8 °C 56 % 96 % 1023,4 hPa 0,0 l/m² 13,7 km/h (3 Bft) S-SW 209 ° 2 min 72 W/m² 7,2 °C 3,1 °C 19,3 km/h (3 Bft)
14.11.2024 10:34 21,0 °C 7,8 °C 56 % 96 % 1023,4 hPa 0,0 l/m² 13,7 km/h (3 Bft) S-SW 210 ° 2 min 58 W/m² 7,2 °C 3,1 °C 20,9 km/h (4 Bft)
14.11.2024 10:36 21,0 °C 7,8 °C 56 % 96 % 1023,4 hPa 0,0 l/m² 12,7 km/h (3 Bft) W-SW 240 ° 0 min 44 W/m² 7,2 °C 3,6 °C 19,3 km/h (3 Bft)
14.11.2024 10:38 21,0 °C 7,8 °C 56 % 96 % 1023,5 hPa 0,0 l/m² 14,1 km/h (3 Bft) SW 219 ° 0 min 37 W/m² 7,2 °C 2,9 °C 20,9 km/h (4 Bft)
14.11.2024 10:40 21,0 °C 7,9 °C 56 % 96 % 1023,4 hPa 0,0 l/m² 13,6 km/h (3 Bft) SW 223 ° 0 min 32 W/m² 7,3 °C 3,3 °C 19,3 km/h (3 Bft)
14.11.2024 10:42 21,0 °C 7,9 °C 56 % 96 % 1023,4 hPa 0,0 l/m² 13,1 km/h (3 Bft) SW 219 ° 0 min 28 W/m² 7,3 °C 3,5 °C 20,9 km/h (4 Bft)
14.11.2024 10:44 21,1 °C 7,9 °C 56 % 96 % 1023,4 hPa 0,0 l/m² 12,6 km/h (3 Bft) SW 227 ° 0 min 26 W/m² 7,3 °C 3,8 °C 24,1 km/h (4 Bft)
14.11.2024 10:46 21,0 °C 7,9 °C 56 % 96 % 1023,3 hPa 0,0 l/m² 10,9 km/h (2 Bft) SW 229 ° 0 min 25 W/m² 7,3 °C 4,7 °C 19,3 km/h (3 Bft)
14.11.2024 10:48 21,0 °C 7,9 °C 56 % 96 % 1023,3 hPa 0,0 l/m² 11,5 km/h (2 Bft) S-SW 212 ° 0 min 23 W/m² 7,3 °C 4,4 °C 16,1 km/h (3 Bft)
14.11.2024 10:50 21,0 °C 7,9 °C 57 % 95 % 1023,4 hPa 0,0 l/m² 12,6 km/h (3 Bft) SW 227 ° 0 min 21 W/m² 7,1 °C 3,8 °C 17,7 km/h (3 Bft)
14.11.2024 10:52 21,0 °C 7,9 °C 57 % 95 % 1023,5 hPa 0,0 l/m² 10,9 km/h (2 Bft) SW 223 ° 0 min 21 W/m² 7,1 °C 4,7 °C 19,3 km/h (3 Bft)
14.11.2024 10:54 21,0 °C 7,9 °C 57 % 95 % 1023,7 hPa 0,0 l/m² 11,1 km/h (2 Bft) W-SW 248 ° 0 min 21 W/m² 7,1 °C 4,6 °C 17,7 km/h (3 Bft)
14.11.2024 10:55 21,0 °C 7,9 °C 57 % 95 % 1023,6 hPa 0,0 l/m² 9,8 km/h (2 Bft) SW 229 ° 0 min 21 W/m² 7,1 °C 5,4 °C 16,1 km/h (3 Bft)
14.11.2024 10:56 21,0 °C 7,9 °C 57 % 95 % 1023,6 hPa 0,0 l/m² 8,2 km/h (2 Bft) W-SW 246 ° 0 min 21 W/m² 7,1 °C 6,5 °C 11,3 km/h (2 Bft)
14.11.2024 10:58 21,0 °C 7,9 °C 57 % 95 % 1023,7 hPa 0,0 l/m² 9,2 km/h (2 Bft) W-SW 254 ° 0 min 19 W/m² 7,1 °C 5,8 °C 14,5 km/h (3 Bft)
14.11.2024 11:00 21,1 °C 7,9 °C 57 % 95 % 1023,7 hPa 0,0 l/m² 8,5 km/h (2 Bft) SW 229 ° 0 min 23 W/m² 7,1 °C 6,3 °C 12,9 km/h (3 Bft)
14.11.2024 11:02 21,0 °C 7,9 °C 57 % 95 % 1023,6 hPa 0,0 l/m² 8,8 km/h (2 Bft) W-SW 247 ° 0 min 33 W/m² 7,1 °C 6,1 °C 14,5 km/h (3 Bft)
14.11.2024 11:04 21,0 °C 7,9 °C 57 % 95 % 1023,6 hPa 0,0 l/m² 8,0 km/h (2 Bft) W-SW 244 ° 0 min 32 W/m² 7,1 °C 6,6 °C 11,3 km/h (2 Bft)
14.11.2024 11:06 21,0 °C 7,9 °C 57 % 95 % 1023,6 hPa 0,0 l/m² 8,1 km/h (2 Bft) SW 236 ° 0 min 37 W/m² 7,1 °C 6,6 °C 11,3 km/h (2 Bft)
14.11.2024 11:08 21,0 °C 7,9 °C 57 % 95 % 1023,7 hPa 0,0 l/m² 8,5 km/h (2 Bft) W-SW 254 ° 0 min 30 W/m² 7,1 °C 6,3 °C 16,1 km/h (3 Bft)
14.11.2024 11:09 21,0 °C 8,0 °C 57 % 95 % 1023,7 hPa 0,0 l/m² 9,3 km/h (2 Bft) W 269 ° 0 min 30 W/m² 7,2 °C 5,8 °C 12,9 km/h (3 Bft)
14.11.2024 11:10 21,0 °C 8,0 °C 57 % 95 % 1023,7 hPa 0,0 l/m² 6,0 km/h (2 Bft) W 278 ° 0 min 30 W/m² 7,2 °C 8,0 °C 11,3 km/h (2 Bft)
14.11.2024 11:12 21,0 °C 8,0 °C 57 % 95 % 1023,5 hPa 0,0 l/m² 8,5 km/h (2 Bft) W 266 ° 0 min 33 W/m² 7,2 °C 6,4 °C 14,5 km/h (3 Bft)
14.11.2024 11:14 21,0 °C 8,0 °C 57 % 95 % 1023,6 hPa 0,0 l/m² 7,4 km/h (2 Bft) W-SW 245 ° 0 min 40 W/m² 7,2 °C 7,2 °C 12,9 km/h (3 Bft)
14.11.2024 11:16 21,0 °C 8,1 °C 57 % 95 % 1023,5 hPa 0,0 l/m² 11,3 km/h (2 Bft) W-SW 241 ° 0 min 40 W/m² 7,3 °C 4,7 °C 16,1 km/h (3 Bft)
14.11.2024 11:18 21,0 °C 8,1 °C 57 % 95 % 1023,5 hPa 0,0 l/m² 9,6 km/h (2 Bft) SW 229 ° 0 min 47 W/m² 7,3 °C 5,8 °C 16,1 km/h (3 Bft)
14.11.2024 11:20 20,9 °C 8,1 °C 57 % 95 % 1023,5 hPa 0,0 l/m² 8,3 km/h (2 Bft) W-SW 254 ° 0 min 51 W/m² 7,3 °C 6,6 °C 14,5 km/h (3 Bft)
14.11.2024 11:22 21,0 °C 8,1 °C 57 % 95 % 1023,6 hPa 0,0 l/m² 11,4 km/h (2 Bft) W-SW 240 ° 2 min 63 W/m² 7,3 °C 4,7 °C 16,1 km/h (3 Bft)
14.11.2024 11:24 21,0 °C 8,1 °C 57 % 95 % 1023,5 hPa 0,0 l/m² 10,0 km/h (2 Bft) SW 220 ° 2 min 81 W/m² 7,3 °C 5,5 °C 16,1 km/h (3 Bft)
14.11.2024 11:26 21,0 °C 8,1 °C 57 % 95 % 1023,5 hPa 0,0 l/m² 9,2 km/h (2 Bft) W-SW 240 ° 2 min 63 W/m² 7,3 °C 6,0 °C 12,9 km/h (3 Bft)
14.11.2024 11:28 21,0 °C 8,2 °C 57 % 95 % 1023,4 hPa 0,0 l/m² 7,4 km/h (2 Bft) SW 229 ° 2 min 77 W/m² 7,4 °C 7,4 °C 11,3 km/h (2 Bft)
14.11.2024 11:30 21,0 °C 8,2 °C 57 % 95 % 1023,6 hPa 0,0 l/m² 8,4 km/h (2 Bft) W-SW 242 ° 2 min 84 W/m² 7,4 °C 6,7 °C 12,9 km/h (3 Bft)
14.11.2024 11:32 20,9 °C 8,2 °C 57 % 95 % 1023,5 hPa 0,0 l/m² 9,8 km/h (2 Bft) SW 227 ° 2 min 88 W/m² 7,4 °C 5,7 °C 14,5 km/h (3 Bft)
14.11.2024 11:34 21,0 °C 8,2 °C 57 % 95 % 1023,5 hPa 0,0 l/m² 8,3 km/h (2 Bft) SW 234 ° 2 min 83 W/m² 7,4 °C 6,7 °C 14,5 km/h (3 Bft)
14.11.2024 11:36 21,0 °C 8,3 °C 58 % 95 % 1023,4 hPa 0,0 l/m² 9,0 km/h (2 Bft) SW 223 ° 2 min 72 W/m² 7,5 °C 6,4 °C 16,1 km/h (3 Bft)
14.11.2024 11:38 21,0 °C 8,3 °C 58 % 95 % 1023,3 hPa 0,0 l/m² 8,0 km/h (2 Bft) W-SW 253 ° 2 min 62 W/m² 7,5 °C 7,1 °C 11,3 km/h (2 Bft)
14.11.2024 11:40 21,0 °C 8,3 °C 58 % 95 % 1023,4 hPa 0,0 l/m² 7,2 km/h (2 Bft) W-SW 244 ° 0 min 46 W/m² 7,5 °C 7,7 °C 11,3 km/h (2 Bft)
14.11.2024 11:41 21,0 °C 8,3 °C 58 % 95 % 1023,3 hPa 0,0 l/m² 8,8 km/h (2 Bft) SW 223 ° 0 min 42 W/m² 7,5 °C 6,5 °C 11,3 km/h (2 Bft)
14.11.2024 11:42 21,0 °C 8,4 °C 58 % 95 % 1023,4 hPa 0,0 l/m² 9,9 km/h (2 Bft) W-SW 244 ° 0 min 39 W/m² 7,6 °C 5,9 °C 11,3 km/h (2 Bft)
14.11.2024 11:43 21,0 °C 8,4 °C 58 % 95 % 1023,4 hPa 0,0 l/m² 7,7 km/h (2 Bft) SW 230 ° 0 min 37 W/m² 7,6 °C 7,4 °C 9,7 km/h (2 Bft)
14.11.2024 11:45 21,0 °C 8,4 °C 58 % 95 % 1023,5 hPa 0,0 l/m² 9,6 km/h (2 Bft) W-SW 257 ° 0 min 40 W/m² 7,6 °C 6,1 °C 14,5 km/h (3 Bft)
14.11.2024 11:47 21,0 °C 8,4 °C 58 % 95 % 1023,5 hPa 0,0 l/m² 13,4 km/h (3 Bft) W-SW 258 ° 0 min 30 W/m² 7,6 °C 3,9 °C 22,5 km/h (4 Bft)
14.11.2024 11:49 21,0 °C 8,5 °C 58 % 95 % 1023,6 hPa 0,0 l/m² 14,2 km/h (3 Bft) W-NW 287 ° 0 min 28 W/m² 7,7 °C 3,7 °C 20,9 km/h (4 Bft)
14.11.2024 11:51 21,0 °C 8,5 °C 58 % 95 % 1023,7 hPa 0,0 l/m² 11,1 km/h (2 Bft) W-NW 289 ° 0 min 33 W/m² 7,7 °C 5,3 °C 17,7 km/h (3 Bft)
14.11.2024 11:53 21,0 °C 8,6 °C 58 % 95 % 1023,7 hPa 0,0 l/m² 13,6 km/h (3 Bft) N 355 ° 0 min 42 W/m² 7,8 °C 4,1 °C 24,1 km/h (4 Bft)
14.11.2024 11:55 21,0 °C 8,6 °C 58 % 95 % 1023,7 hPa 0,0 l/m² 10,6 km/h (2 Bft) W-NW 303 ° 0 min 46 W/m² 7,8 °C 5,7 °C 17,7 km/h (3 Bft)
14.11.2024 11:56 21,0 °C 8,6 °C 58 % 95 % 1023,6 hPa 0,0 l/m² 8,8 km/h (2 Bft) NW 315 ° 0 min 46 W/m² 7,8 °C 6,8 °C 16,1 km/h (3 Bft)
14.11.2024 11:57 21,0 °C 8,6 °C 58 % 95 % 1023,5 hPa 0,0 l/m² 11,1 km/h (2 Bft) N-NW 340 ° 0 min 44 W/m² 7,8 °C 5,4 °C 16,1 km/h (3 Bft)
14.11.2024 11:58 21,0 °C 8,6 °C 58 % 95 % 1023,5 hPa 0,0 l/m² 11,5 km/h (2 Bft) NW 319 ° 0 min 42 W/m² 7,8 °C 5,2 °C 17,7 km/h (3 Bft)
14.11.2024 12:00 21,0 °C 8,6 °C 58 % 95 % 1023,4 hPa 0,0 l/m² 8,8 km/h (2 Bft) NW 312 ° 0 min 42 W/m² 7,8 °C 6,8 °C 16,1 km/h (3 Bft)
14.11.2024 12:02 21,0 °C 8,6 °C 58 % 95 % 1023,4 hPa 0,0 l/m² 9,2 km/h (2 Bft) NW 314 ° 0 min 42 W/m² 7,8 °C 6,6 °C 17,7 km/h (3 Bft)
14.11.2024 12:04 21,0 °C 8,6 °C 58 % 95 % 1023,4 hPa 0,0 l/m² 9,5 km/h (2 Bft) NW 315 ° 0 min 42 W/m² 7,8 °C 6,4 °C 16,1 km/h (3 Bft)
14.11.2024 12:06 21,0 °C 8,6 °C 58 % 95 % 1023,5 hPa 0,0 l/m² 9,5 km/h (2 Bft) W 277 ° 0 min 42 W/m² 7,8 °C 6,4 °C 17,7 km/h (3 Bft)
14.11.2024 12:08 21,0 °C 8,6 °C 59 % 95 % 1023,5 hPa 0,0 l/m² 5,5 km/h (2 Bft) W-NW 282 ° 0 min 46 W/m² 7,8 °C 8,6 °C 11,3 km/h (2 Bft)
14.11.2024 12:10 21,0 °C 8,6 °C 59 % 95 % 1023,4 hPa 0,0 l/m² 3,8 km/h (1 Bft) W 280 ° 0 min 51 W/m² 7,8 °C 8,6 °C 8,0 km/h (2 Bft)
14.11.2024 12:12 21,0 °C 8,7 °C 59 % 95 % 1023,4 hPa 0,0 l/m² 4,5 km/h (1 Bft) W-NW 299 ° 2 min 58 W/m² 7,9 °C 8,7 °C 11,3 km/h (2 Bft)
14.11.2024 12:14 21,0 °C 8,6 °C 59 % 95 % 1023,3 hPa 0,0 l/m² 6,8 km/h (2 Bft) W 269 ° 2 min 67 W/m² 7,8 °C 8,3 °C 12,9 km/h (3 Bft)
14.11.2024 12:16 21,0 °C 8,6 °C 59 % 95 % 1023,2 hPa 0,0 l/m² 8,3 km/h (2 Bft) W-NW 290 ° 2 min 86 W/m² 7,8 °C 7,2 °C 14,5 km/h (3 Bft)
14.11.2024 12:18 20,9 °C 8,7 °C 59 % 95 % 1023,2 hPa 0,0 l/m² 9,0 km/h (2 Bft) W 265 ° 2 min 95 W/m² 7,9 °C 6,8 °C 12,9 km/h (3 Bft)
14.11.2024 12:20 21,0 °C 8,7 °C 59 % 95 % 1023,1 hPa 0,0 l/m² 9,0 km/h (2 Bft) W 263 ° 2 min 100 W/m² 7,9 °C 6,8 °C 11,3 km/h (2 Bft)
14.11.2024 12:21 21,0 °C 8,7 °C 59 % 95 % 1023,2 hPa 0,0 l/m² 4,4 km/h (1 Bft) W-SW 251 ° 1 min 90 W/m² 7,9 °C 8,7 °C 9,7 km/h (2 Bft)
14.11.2024 12:22 21,0 °C 8,7 °C 59 % 95 % 1023,3 hPa 0,0 l/m² 6,4 km/h (2 Bft) W-SW 257 ° 1 min 83 W/m² 7,9 °C 8,7 °C 11,3 km/h (2 Bft)
14.11.2024 12:23 21,0 °C 8,7 °C 59 % 95 % 1023,3 hPa 0,0 l/m² 5,6 km/h (2 Bft) W-SW 252 ° 1 min 77 W/m² 7,9 °C 8,7 °C 6,4 km/h (2 Bft)
14.11.2024 12:25 21,0 °C 8,8 °C 59 % 95 % 1023,2 hPa 0,0 l/m² 7,2 km/h (2 Bft) W 264 ° 2 min 77 W/m² 8,0 °C 8,2 °C 11,3 km/h (2 Bft)
14.11.2024 12:27 21,0 °C 8,8 °C 59 % 95 % 1023,2 hPa 0,0 l/m² 7,6 km/h (2 Bft) W 273 ° 2 min 77 W/m² 8,0 °C 7,9 °C 12,9 km/h (3 Bft)
14.11.2024 12:29 21,0 °C 8,8 °C 59 % 95 % 1023,3 hPa 0,0 l/m² 7,1 km/h (2 Bft) W 264 ° 2 min 86 W/m² 8,0 °C 8,3 °C 11,3 km/h (2 Bft)
14.11.2024 12:31 21,0 °C 8,8 °C 59 % 95 % 1023,3 hPa 0,0 l/m² 7,0 km/h (2 Bft) W 279 ° 2 min 90 W/m² 8,0 °C 8,3 °C 11,3 km/h (2 Bft)
14.11.2024 12:33 21,0 °C 8,8 °C 59 % 95 % 1023,3 hPa 0,0 l/m² 5,5 km/h (2 Bft) W 269 ° 2 min 95 W/m² 8,0 °C 8,8 °C 11,3 km/h (2 Bft)
14.11.2024 12:35 21,0 °C 8,8 °C 59 % 95 % 1023,3 hPa 0,0 l/m² 6,8 km/h (2 Bft) W-NW 283 ° 2 min 98 W/m² 8,0 °C 8,5 °C 11,3 km/h (2 Bft)
14.11.2024 12:37 21,0 °C 8,8 °C 59 % 95 % 1023,3 hPa 0,0 l/m² 10,0 km/h (2 Bft) W 275 ° 2 min 95 W/m² 8,0 °C 6,3 °C 16,1 km/h (3 Bft)
14.11.2024 12:39 21,0 °C 8,8 °C 59 % 95 % 1023,2 hPa 0,0 l/m² 10,8 km/h (2 Bft) W 276 ° 2 min 90 W/m² 8,0 °C 5,8 °C 16,1 km/h (3 Bft)
14.11.2024 12:41 21,0 °C 8,9 °C 59 % 95 % 1023,2 hPa 0,0 l/m² 10,5 km/h (2 Bft) W 271 ° 2 min 91 W/m² 8,1 °C 6,1 °C 14,5 km/h (3 Bft)
14.11.2024 12:43 21,0 °C 8,9 °C 59 % 95 % 1023,3 hPa 0,0 l/m² 7,2 km/h (2 Bft) W-NW 282 ° 2 min 93 W/m² 8,1 °C 8,3 °C 12,9 km/h (3 Bft)
14.11.2024 12:45 21,0 °C 8,9 °C 59 % 95 % 1023,3 hPa 0,0 l/m² 9,9 km/h (2 Bft) W 270 ° 2 min 91 W/m² 8,1 °C 6,4 °C 19,3 km/h (3 Bft)
14.11.2024 12:47 21,0 °C 8,9 °C 59 % 95 % 1023,2 hPa 0,0 l/m² 12,9 km/h (3 Bft) W-NW 288 ° 2 min 98 W/m² 8,1 °C 4,8 °C 19,3 km/h (3 Bft)
14.11.2024 12:48 21,0 °C 8,9 °C 59 % 95 % 1023,2 hPa 0,0 l/m² 12,5 km/h (2 Bft) W-NW 290 ° 1 min 104 W/m² 8,1 °C 5,0 °C 17,7 km/h (3 Bft)
14.11.2024 12:50 21,0 °C 8,9 °C 59 % 95 % 1023,2 hPa 0,0 l/m² 11,0 km/h (2 Bft) W-NW 298 ° 2 min 107 W/m² 8,1 °C 5,8 °C 20,9 km/h (4 Bft)
14.11.2024 12:52 21,0 °C 9,0 °C 59 % 95 % 1023,3 hPa 0,0 l/m² 11,2 km/h (2 Bft) W 259 ° 2 min 83 W/m² 8,2 °C 5,8 °C 17,7 km/h (3 Bft)
14.11.2024 12:54 21,0 °C 9,1 °C 59 % 94 % 1023,2 hPa 0,0 l/m² 11,1 km/h (2 Bft) W 263 ° 2 min 70 W/m² 8,2 °C 6,0 °C 16,1 km/h (3 Bft)
14.11.2024 12:56 20,9 °C 9,1 °C 59 % 94 % 1023,3 hPa 0,0 l/m² 15,2 km/h (3 Bft) W 275 ° 2 min 65 W/m² 8,2 °C 4,0 °C 24,1 km/h (4 Bft)
14.11.2024 12:58 20,9 °C 9,1 °C 59 % 94 % 1023,4 hPa 0,0 l/m² 13,1 km/h (3 Bft) W-NW 286 ° 2 min 69 W/m² 8,2 °C 4,9 °C 17,7 km/h (3 Bft)
14.11.2024 13:00 20,9 °C 9,2 °C 59 % 93 % 1023,3 hPa 0,0 l/m² 13,5 km/h (3 Bft) W 274 ° 2 min 72 W/m² 8,1 °C 4,8 °C 17,7 km/h (3 Bft)
14.11.2024 13:01 20,9 °C 9,2 °C 59 % 93 % 1023,3 hPa 0,0 l/m² 12,3 km/h (2 Bft) W 281 ° 1 min 76 W/m² 8,1 °C 5,4 °C 16,1 km/h (3 Bft)
14.11.2024 13:02 20,9 °C 9,2 °C 59 % 93 % 1023,4 hPa 0,0 l/m² 11,6 km/h (2 Bft) W 259 ° 1 min 74 W/m² 8,1 °C 5,8 °C 14,5 km/h (3 Bft)
14.11.2024 13:03 20,9 °C 9,2 °C 59 % 93 % 1023,4 hPa 0,0 l/m² 7,8 km/h (2 Bft) W 265 ° 1 min 69 W/m² 8,1 °C 8,2 °C 14,5 km/h (3 Bft)
14.11.2024 13:05 20,9 °C 9,2 °C 59 % 93 % 1023,3 hPa 0,0 l/m² 13,5 km/h (3 Bft) W 263 ° 2 min 65 W/m² 8,1 °C 4,8 °C 24,1 km/h (4 Bft)
14.11.2024 13:07 20,9 °C 9,2 °C 59 % 93 % 1023,3 hPa 0,0 l/m² 14,4 km/h (3 Bft) W 259 ° 2 min 62 W/m² 8,1 °C 4,4 °C 20,9 km/h (4 Bft)
14.11.2024 13:08 20,9 °C 9,2 °C 59 % 93 % 1023,3 hPa 0,0 l/m² 12,3 km/h (2 Bft) W-SW 257 ° 1 min 58 W/m² 8,1 °C 5,4 °C 19,3 km/h (3 Bft)
14.11.2024 13:09 20,9 °C 9,2 °C 59 % 93 % 1023,3 hPa 0,0 l/m² 17,5 km/h (3 Bft) W 273 ° 1 min 54 W/m² 8,1 °C 3,1 °C 22,5 km/h (4 Bft)
14.11.2024 13:11 20,9 °C 9,2 °C 59 % 92 % 1023,3 hPa 0,0 l/m² 17,8 km/h (3 Bft) W 277 ° 2 min 53 W/m² 8,0 °C 3,0 °C 22,5 km/h (4 Bft)
14.11.2024 13:13 20,9 °C 9,2 °C 59 % 91 % 1023,3 hPa 0,0 l/m² 14,6 km/h (3 Bft) W 275 ° 2 min 54 W/m² 7,8 °C 4,3 °C 20,9 km/h (4 Bft)
14.11.2024 13:14 20,9 °C 9,2 °C 59 % 91 % 1023,2 hPa 0,0 l/m² 16,0 km/h (3 Bft) W-NW 282 ° 0 min 51 W/m² 7,8 °C 3,7 °C 22,5 km/h (4 Bft)
14.11.2024 13:15 20,9 °C 9,2 °C 59 % 91 % 1023,2 hPa 0,0 l/m² 10,5 km/h (2 Bft) W 273 ° 0 min 49 W/m² 7,8 °C 6,4 °C 17,7 km/h (3 Bft)
14.11.2024 13:17 20,9 °C 9,2 °C 59 % 91 % 1023,1 hPa 0,0 l/m² 10,0 km/h (2 Bft) W 261 ° 0 min 49 W/m² 7,8 °C 6,7 °C 16,1 km/h (3 Bft)
14.11.2024 13:19 20,9 °C 9,2 °C 59 % 90 % 1023,1 hPa 0,0 l/m² 5,2 km/h (1 Bft) W 280 ° 0 min 51 W/m² 7,6 °C 9,2 °C 12,9 km/h (3 Bft)
14.11.2024 13:21 20,9 °C 9,2 °C 59 % 90 % 1023,1 hPa 0,0 l/m² 9,1 km/h (2 Bft) W-NW 286 ° 0 min 47 W/m² 7,6 °C 7,3 °C 16,1 km/h (3 Bft)
14.11.2024 13:23 20,9 °C 9,3 °C 59 % 90 % 1023,1 hPa 0,0 l/m² 7,6 km/h (2 Bft) W 281 ° 0 min 44 W/m² 7,7 °C 8,4 °C 16,1 km/h (3 Bft)
14.11.2024 13:25 20,9 °C 9,2 °C 59 % 89 % 1023,0 hPa 0,0 l/m² 9,4 km/h (2 Bft) W-SW 257 ° 0 min 40 W/m² 7,5 °C 7,1 °C 16,1 km/h (3 Bft)
14.11.2024 13:26 20,9 °C 9,3 °C 59 % 89 % 1023,0 hPa 0,0 l/m² 12,2 km/h (2 Bft) W-NW 290 ° 0 min 39 W/m² 7,6 °C 5,6 °C 16,1 km/h (3 Bft)
14.11.2024 13:27 20,9 °C 9,2 °C 59 % 89 % 1023,0 hPa 0,0 l/m² 12,1 km/h (2 Bft) W-NW 302 ° 0 min 35 W/m² 7,5 °C 5,5 °C 14,5 km/h (3 Bft)
14.11.2024 13:29 20,9 °C 9,3 °C 59 % 89 % 1023,1 hPa 0,0 l/m² 7,8 km/h (2 Bft) W-NW 283 ° 0 min 32 W/m² 7,6 °C 8,3 °C 16,1 km/h (3 Bft)
14.11.2024 13:31 20,9 °C 9,3 °C 59 % 88 % 1023,1 hPa 0,0 l/m² 10,8 km/h (2 Bft) W 268 ° 0 min 30 W/m² 7,4 °C 6,4 °C 17,7 km/h (3 Bft)
14.11.2024 13:33 20,9 °C 9,3 °C 59 % 88 % 1023,1 hPa 0,0 l/m² 10,1 km/h (2 Bft) W-NW 292 ° 0 min 28 W/m² 7,4 °C 6,8 °C 14,5 km/h (3 Bft)
14.11.2024 13:35 20,9 °C 9,3 °C 59 % 88 % 1023,1 hPa 0,0 l/m² 11,6 km/h (2 Bft) W 273 ° 0 min 32 W/m² 7,4 °C 5,9 °C 19,3 km/h (3 Bft)
14.11.2024 13:37 20,9 °C 9,3 °C 59 % 88 % 1023,1 hPa 0,0 l/m² 13,6 km/h (3 Bft) W 277 ° 0 min 39 W/m² 7,4 °C 4,9 °C 19,3 km/h (3 Bft)
14.11.2024 13:39 20,9 °C 9,3 °C 59 % 88 % 1023,1 hPa 0,0 l/m² 13,9 km/h (3 Bft) W 263 ° 0 min 42 W/m² 7,4 °C 4,8 °C 20,9 km/h (4 Bft)
14.11.2024 13:41 20,9 °C 9,3 °C 59 % 88 % 1023,1 hPa 0,0 l/m² 15,3 km/h (3 Bft) W 260 ° 0 min 37 W/m² 7,4 °C 4,2 °C 22,5 km/h (4 Bft)
14.11.2024 13:43 20,9 °C 9,3 °C 59 % 88 % 1023,1 hPa 0,2 l/m² 22,9 km/h (4 Bft) W 274 ° 0 min 39 W/m² 7,4 °C 1,5 °C 32,2 km/h (5 Bft)
14.11.2024 13:45 20,9 °C 9,3 °C 59 % 88 % 1023,0 hPa 0,0 l/m² 16,5 km/h (3 Bft) W 273 ° 0 min 39 W/m² 7,4 °C 3,7 °C 22,5 km/h (4 Bft)
14.11.2024 13:47 20,9 °C 9,3 °C 59 % 88 % 1023,0 hPa 0,0 l/m² 17,4 km/h (3 Bft) W 267 ° 0 min 37 W/m² 7,4 °C 3,3 °C 24,1 km/h (4 Bft)
14.11.2024 13:49 20,9 °C 9,3 °C 59 % 88 % 1023,0 hPa 0,0 l/m² 17,3 km/h (3 Bft) W-NW 300 ° 0 min 35 W/m² 7,4 °C 3,3 °C 25,7 km/h (4 Bft)
14.11.2024 13:51 20,9 °C 9,3 °C 59 % 88 % 1023,0 hPa 0,0 l/m² 19,9 km/h (4 Bft) W-NW 292 ° 0 min 37 W/m² 7,4 °C 2,4 °C 27,4 km/h (5 Bft)
14.11.2024 13:53 20,9 °C 9,3 °C 59 % 88 % 1022,9 hPa 0,0 l/m² 19,4 km/h (3 Bft) W 273 ° 0 min 37 W/m² 7,4 °C 2,6 °C 24,1 km/h (4 Bft)
14.11.2024 13:55 20,9 °C 9,3 °C 59 % 88 % 1022,9 hPa 0,0 l/m² 17,8 km/h (3 Bft) W 269 ° 0 min 40 W/m² 7,4 °C 3,2 °C 24,1 km/h (4 Bft)
14.11.2024 13:57 20,9 °C 9,2 °C 59 % 88 % 1022,9 hPa 0,0 l/m² 15,5 km/h (3 Bft) W-NW 283 ° 0 min 42 W/m² 7,3 °C 4,0 °C 22,5 km/h (4 Bft)
14.11.2024 13:59 20,9 °C 9,2 °C 59 % 88 % 1023,0 hPa 0,0 l/m² 17,2 km/h (3 Bft) W-NW 290 ° 0 min 42 W/m² 7,3 °C 3,3 °C 22,5 km/h (4 Bft)
14.11.2024 14:01 20,9 °C 9,2 °C 59 % 88 % 1022,9 hPa 0,0 l/m² 16,6 km/h (3 Bft) W-NW 289 ° 0 min 47 W/m² 7,3 °C 3,5 °C 22,5 km/h (4 Bft)
14.11.2024 14:03 20,9 °C 9,2 °C 58 % 88 % 1022,9 hPa 0,0 l/m² 13,9 km/h (3 Bft) W-NW 294 ° 0 min 44 W/m² 7,3 °C 4,7 °C 19,3 km/h (3 Bft)
14.11.2024 14:05 20,9 °C 9,2 °C 59 % 88 % 1023,0 hPa 0,0 l/m² 11,7 km/h (2 Bft) W 271 ° 0 min 46 W/m² 7,3 °C 5,8 °C 17,7 km/h (3 Bft)
14.11.2024 14:06 20,9 °C 9,2 °C 59 % 88 % 1023,0 hPa 0,0 l/m² 14,4 km/h (3 Bft) W-NW 303 ° 0 min 46 W/m² 7,3 °C 4,4 °C 19,3 km/h (3 Bft)
14.11.2024 14:07 20,9 °C 9,2 °C 59 % 88 % 1023,0 hPa 0,0 l/m² 15,4 km/h (3 Bft) W-SW 244 ° 0 min 47 W/m² 7,3 °C 4,0 °C 19,3 km/h (3 Bft)
14.11.2024 14:08 20,9 °C 9,2 °C 58 % 88 % 1023,0 hPa 0,0 l/m² 12,3 km/h (2 Bft) W-NW 283 ° 0 min 49 W/m² 7,3 °C 5,4 °C 17,7 km/h (3 Bft)
14.11.2024 14:09 20,9 °C 9,2 °C 58 % 88 % 1022,9 hPa 0,0 l/m² 10,6 km/h (2 Bft) W 265 ° 0 min 51 W/m² 7,3 °C 6,4 °C 14,5 km/h (3 Bft)
14.11.2024 14:10 21,0 °C 9,2 °C 58 % 88 % 1022,8 hPa 0,0 l/m² 13,9 km/h (3 Bft) W 269 ° 1 min 54 W/m² 7,3 °C 4,7 °C 17,7 km/h (3 Bft)
14.11.2024 14:11 20,9 °C 9,2 °C 58 % 89 % 1022,9 hPa 0,0 l/m² 11,4 km/h (2 Bft) W-NW 284 ° 1 min 56 W/m² 7,5 °C 5,9 °C 16,1 km/h (3 Bft)
14.11.2024 14:12 20,9 °C 9,2 °C 58 % 89 % 1022,8 hPa 0,0 l/m² 11,6 km/h (2 Bft) W-SW 256 ° 1 min 54 W/m² 7,5 °C 5,8 °C 16,1 km/h (3 Bft)
14.11.2024 14:13 20,9 °C 9,2 °C 58 % 89 % 1022,8 hPa 0,0 l/m² 13,3 km/h (3 Bft) W 271 ° 1 min 53 W/m² 7,5 °C 4,9 °C 17,7 km/h (3 Bft)
14.11.2024 14:14 20,9 °C 9,2 °C 58 % 89 % 1022,9 hPa 0,0 l/m² 11,6 km/h (2 Bft) W-SW 258 ° 1 min 53 W/m² 7,5 °C 5,8 °C 14,5 km/h (3 Bft)
14.11.2024 14:15 21,0 °C 9,2 °C 58 % 89 % 1022,8 hPa 0,0 l/m² 11,7 km/h (2 Bft) W 281 ° 1 min 53 W/m² 7,5 °C 5,8 °C 17,7 km/h (3 Bft)
14.11.2024 14:16 20,9 °C 9,2 °C 58 % 89 % 1022,9 hPa 0,0 l/m² 8,6 km/h (2 Bft) W-NW 297 ° 1 min 53 W/m² 7,5 °C 7,6 °C 16,1 km/h (3 Bft)
14.11.2024 14:17 21,0 °C 9,2 °C 58 % 89 % 1022,9 hPa 0,0 l/m² 13,1 km/h (3 Bft) W-SW 254 ° 1 min 53 W/m² 7,5 °C 5,0 °C 19,3 km/h (3 Bft)
14.11.2024 14:18 20,9 °C 9,2 °C 58 % 89 % 1022,8 hPa 0,0 l/m² 12,9 km/h (3 Bft) W 277 ° 0 min 51 W/m² 7,5 °C 5,1 °C 17,7 km/h (3 Bft)
14.11.2024 14:19 20,9 °C 9,2 °C 58 % 89 % 1022,9 hPa 0,0 l/m² 10,2 km/h (2 Bft) W 266 ° 0 min 47 W/m² 7,5 °C 6,6 °C 12,9 km/h (3 Bft)
14.11.2024 14:20 21,0 °C 9,2 °C 58 % 89 % 1022,9 hPa 0,0 l/m² 8,6 km/h (2 Bft) W 259 ° 0 min 46 W/m² 7,5 °C 7,6 °C 11,3 km/h (2 Bft)
14.11.2024 14:21 21,0 °C 9,2 °C 58 % 89 % 1022,9 hPa 0,0 l/m² 10,4 km/h (2 Bft) W 279 ° 0 min 44 W/m² 7,5 °C 6,5 °C 14,5 km/h (3 Bft)
14.11.2024 14:22 21,0 °C 9,2 °C 58 % 89 % 1022,9 hPa 0,0 l/m² 12,2 km/h (2 Bft) W-NW 285 ° 0 min 40 W/m² 7,5 °C 5,5 °C 17,7 km/h (3 Bft)
14.11.2024 14:23 21,0 °C 9,2 °C 58 % 89 % 1023,0 hPa 0,0 l/m² 11,3 km/h (2 Bft) W-NW 282 ° 0 min 39 W/m² 7,5 °C 6,0 °C 17,7 km/h (3 Bft)
14.11.2024 14:24 21,0 °C 9,2 °C 58 % 89 % 1023,0 hPa 0,0 l/m² 15,8 km/h (3 Bft) W 263 ° 0 min 37 W/m² 7,5 °C 3,8 °C 19,3 km/h (3 Bft)
14.11.2024 14:25 20,9 °C 9,2 °C 58 % 89 % 1023,0 hPa 0,0 l/m² 12,3 km/h (2 Bft) W 265 ° 0 min 35 W/m² 7,5 °C 5,4 °C 16,1 km/h (3 Bft)
14.11.2024 14:26 21,0 °C 9,2 °C 58 % 89 % 1023,0 hPa 0,0 l/m² 11,9 km/h (2 Bft) W 274 ° 0 min 35 W/m² 7,5 °C 5,6 °C 16,1 km/h (3 Bft)
14.11.2024 14:27 20,9 °C 9,2 °C 58 % 89 % 1022,9 hPa 0,0 l/m² 11,2 km/h (2 Bft) W 269 ° 0 min 33 W/m² 7,5 °C 6,0 °C 14,5 km/h (3 Bft)
14.11.2024 14:28 21,0 °C 9,2 °C 58 % 89 % 1022,9 hPa 0,0 l/m² 12,1 km/h (2 Bft) W 275 ° 0 min 32 W/m² 7,5 °C 5,5 °C 16,1 km/h (3 Bft)
14.11.2024 14:29 20,9 °C 9,2 °C 58 % 89 % 1022,9 hPa 0,0 l/m² 13,5 km/h (3 Bft) W 280 ° 0 min 30 W/m² 7,5 °C 4,8 °C 20,9 km/h (4 Bft)
14.11.2024 14:30 20,9 °C 9,2 °C 58 % 89 % 1022,9 hPa 0,0 l/m² 10,1 km/h (2 Bft) W-NW 286 ° 0 min 30 W/m² 7,5 °C 6,7 °C 14,5 km/h (3 Bft)
14.11.2024 14:31 21,0 °C 9,2 °C 58 % 89 % 1023,0 hPa 0,0 l/m² 12,3 km/h (2 Bft) W-SW 257 ° 0 min 32 W/m² 7,5 °C 5,4 °C 17,7 km/h (3 Bft)
14.11.2024 14:32 21,0 °C 9,2 °C 58 % 89 % 1023,0 hPa 0,0 l/m² 14,2 km/h (3 Bft) W 267 ° 0 min 33 W/m² 7,5 °C 4,5 °C 17,7 km/h (3 Bft)
14.11.2024 14:33 21,0 °C 9,1 °C 58 % 89 % 1023,0 hPa 0,0 l/m² 13,3 km/h (3 Bft) W 267 ° 0 min 37 W/m² 7,4 °C 4,8 °C 17,7 km/h (3 Bft)
14.11.2024 14:34 21,0 °C 9,2 °C 58 % 89 % 1022,9 hPa 0,0 l/m² 11,3 km/h (2 Bft) W 275 ° 0 min 40 W/m² 7,5 °C 6,0 °C 17,7 km/h (3 Bft)
14.11.2024 14:35 21,0 °C 9,2 °C 58 % 89 % 1023,0 hPa 0,0 l/m² 11,7 km/h (2 Bft) W 263 ° 0 min 44 W/m² 7,5 °C 5,8 °C 17,7 km/h (3 Bft)
14.11.2024 14:36 21,0 °C 9,2 °C 58 % 89 % 1022,9 hPa 0,0 l/m² 11,2 km/h (2 Bft) W 262 ° 0 min 46 W/m² 7,5 °C 6,0 °C 16,1 km/h (3 Bft)
14.11.2024 14:37 21,0 °C 9,2 °C 58 % 89 % 1023,0 hPa 0,0 l/m² 13,6 km/h (3 Bft) W 271 ° 0 min 44 W/m² 7,5 °C 4,8 °C 17,7 km/h (3 Bft)
14.11.2024 14:38 21,0 °C 9,2 °C 58 % 89 % 1022,9 hPa 0,0 l/m² 9,8 km/h (2 Bft) W 265 ° 0 min 44 W/m² 7,5 °C 6,8 °C 12,9 km/h (3 Bft)
14.11.2024 14:39 21,0 °C 9,2 °C 58 % 89 % 1023,0 hPa 0,0 l/m² 10,3 km/h (2 Bft) W 267 ° 0 min 44 W/m² 7,5 °C 6,5 °C 12,9 km/h (3 Bft)
14.11.2024 14:40 21,0 °C 9,2 °C 58 % 89 % 1023,0 hPa 0,0 l/m² 9,5 km/h (2 Bft) W-NW 288 ° 0 min 42 W/m² 7,5 °C 7,0 °C 12,9 km/h (3 Bft)
14.11.2024 14:41 21,0 °C 9,2 °C 58 % 89 % 1023,0 hPa 0,0 l/m² 8,9 km/h (2 Bft) W 269 ° 0 min 40 W/m² 7,5 °C 7,4 °C 12,9 km/h (3 Bft)
14.11.2024 14:42 21,0 °C 9,2 °C 58 % 89 % 1023,0 hPa 0,0 l/m² 6,7 km/h (2 Bft) W 263 ° 0 min 33 W/m² 7,5 °C 9,0 °C 9,7 km/h (2 Bft)
14.11.2024 14:43 21,0 °C 9,2 °C 58 % 89 % 1023,0 hPa 0,0 l/m² 7,8 km/h (2 Bft) W-SW 251 ° 0 min 32 W/m² 7,5 °C 8,2 °C 16,1 km/h (3 Bft)
14.11.2024 14:44 21,0 °C 9,2 °C 58 % 89 % 1023,1 hPa 0,0 l/m² 9,1 km/h (2 Bft) W 265 ° 0 min 30 W/m² 7,5 °C 7,3 °C 12,9 km/h (3 Bft)
14.11.2024 14:45 21,0 °C 9,2 °C 58 % 89 % 1023,1 hPa 0,0 l/m² 8,6 km/h (2 Bft) W 276 ° 0 min 28 W/m² 7,5 °C 7,6 °C 12,9 km/h (3 Bft)
14.11.2024 14:46 21,0 °C 9,2 °C 58 % 89 % 1023,0 hPa 0,0 l/m² 7,8 km/h (2 Bft) W-SW 251 ° 0 min 26 W/m² 7,5 °C 8,2 °C 12,9 km/h (3 Bft)
14.11.2024 14:47 21,0 °C 9,2 °C 58 % 89 % 1023,1 hPa 0,0 l/m² 7,2 km/h (2 Bft) W 266 ° 0 min 25 W/m² 7,5 °C 8,6 °C 9,7 km/h (2 Bft)
14.11.2024 14:48 21,0 °C 9,2 °C 58 % 89 % 1023,1 hPa 0,0 l/m² 6,9 km/h (2 Bft) W 273 ° 0 min 23 W/m² 7,5 °C 8,8 °C 11,3 km/h (2 Bft)
14.11.2024 14:49 21,0 °C 9,2 °C 58 % 89 % 1023,0 hPa 0,0 l/m² 8,2 km/h (2 Bft) W-SW 244 ° 0 min 25 W/m² 7,5 °C 7,9 °C 11,3 km/h (2 Bft)
14.11.2024 14:50 21,0 °C 9,2 °C 58 % 89 % 1023,1 hPa 0,0 l/m² 7,6 km/h (2 Bft) W-SW 245 ° 0 min 23 W/m² 7,5 °C 8,3 °C 11,3 km/h (2 Bft)
14.11.2024 14:51 21,0 °C 9,2 °C 58 % 89 % 1023,1 hPa 0,0 l/m² 5,4 km/h (2 Bft) W 273 ° 0 min 21 W/m² 7,5 °C 9,2 °C 11,3 km/h (2 Bft)
14.11.2024 14:52 20,9 °C 9,2 °C 58 % 89 % 1023,1 hPa 0,0 l/m² 9,4 km/h (2 Bft) W-SW 248 ° 0 min 21 W/m² 7,5 °C 7,1 °C 14,5 km/h (3 Bft)
14.11.2024 14:53 21,0 °C 9,2 °C 58 % 89 % 1023,1 hPa 0,0 l/m² 8,5 km/h (2 Bft) W 279 ° 0 min 19 W/m² 7,5 °C 7,7 °C 11,3 km/h (2 Bft)
14.11.2024 14:54 21,0 °C 9,2 °C 58 % 89 % 1023,1 hPa 0,0 l/m² 5,9 km/h (2 Bft) W 261 ° 0 min 16 W/m² 7,5 °C 9,2 °C 12,9 km/h (3 Bft)
14.11.2024 14:55 21,0 °C 9,2 °C 58 % 89 % 1023,1 hPa 0,0 l/m² 8,2 km/h (2 Bft) W-NW 286 ° 0 min 16 W/m² 7,5 °C 7,9 °C 12,9 km/h (3 Bft)
14.11.2024 14:56 21,0 °C 9,2 °C 58 % 89 % 1023,2 hPa 0,0 l/m² 8,5 km/h (2 Bft) W 276 ° 0 min 14 W/m² 7,5 °C 7,7 °C 14,5 km/h (3 Bft)
14.11.2024 14:57 21,0 °C 9,2 °C 58 % 89 % 1023,1 hPa 0,0 l/m² 10,2 km/h (2 Bft) W 263 ° 0 min 14 W/m² 7,5 °C 6,6 °C 14,5 km/h (3 Bft)
14.11.2024 14:58 21,0 °C 9,2 °C 58 % 89 % 1023,2 hPa 0,0 l/m² 10,1 km/h (2 Bft) W 266 ° 0 min 16 W/m² 7,5 °C 6,7 °C 14,5 km/h (3 Bft)
14.11.2024 14:59 21,0 °C 9,2 °C 58 % 89 % 1023,2 hPa 0,0 l/m² 12,9 km/h (3 Bft) W 273 ° 0 min 16 W/m² 7,5 °C 5,1 °C 16,1 km/h (3 Bft)
14.11.2024 15:00 21,0 °C 9,2 °C 58 % 89 % 1023,2 hPa 0,0 l/m² 12,0 km/h (2 Bft) W-NW 285 ° 0 min 14 W/m² 7,5 °C 5,6 °C 14,5 km/h (3 Bft)
14.11.2024 15:01 21,0 °C 9,2 °C 58 % 89 % 1023,2 hPa 0,0 l/m² 11,8 km/h (2 Bft) W 269 ° 0 min 16 W/m² 7,5 °C 5,7 °C 16,1 km/h (3 Bft)
14.11.2024 15:02 21,0 °C 9,2 °C 58 % 89 % 1023,2 hPa 0,0 l/m² 12,8 km/h (3 Bft) W 264 ° 0 min 18 W/m² 7,5 °C 5,2 °C 16,1 km/h (3 Bft)
14.11.2024 15:03 21,0 °C 9,2 °C 58 % 89 % 1023,3 hPa 0,0 l/m² 10,9 km/h (2 Bft) W 268 ° 0 min 18 W/m² 7,5 °C 6,2 °C 12,9 km/h (3 Bft)
14.11.2024 15:04 21,1 °C 9,2 °C 58 % 89 % 1023,2 hPa 0,0 l/m² 12,5 km/h (2 Bft) W 267 ° 0 min 18 W/m² 7,5 °C 5,3 °C 17,7 km/h (3 Bft)
14.11.2024 15:05 21,0 °C 9,2 °C 58 % 89 % 1023,2 hPa 0,0 l/m² 14,1 km/h (3 Bft) W 281 ° 0 min 14 W/m² 7,5 °C 4,6 °C 19,3 km/h (3 Bft)
14.11.2024 15:06 21,0 °C 9,2 °C 58 % 89 % 1023,3 hPa 0,0 l/m² 16,4 km/h (3 Bft) W-NW 288 ° 0 min 12 W/m² 7,5 °C 3,6 °C 19,3 km/h (3 Bft)
14.11.2024 15:07 21,0 °C 9,2 °C 58 % 89 % 1023,2 hPa 0,0 l/m² 14,5 km/h (3 Bft) W 275 ° 0 min 11 W/m² 7,5 °C 4,4 °C 16,1 km/h (3 Bft)
14.11.2024 15:08 21,0 °C 9,2 °C 58 % 89 % 1023,2 hPa 0,0 l/m² 14,1 km/h (3 Bft) W-NW 283 ° 0 min 9 W/m² 7,5 °C 4,6 °C 19,3 km/h (3 Bft)
14.11.2024 15:09 21,0 °C 9,2 °C 58 % 89 % 1023,2 hPa 0,0 l/m² 10,0 km/h (2 Bft) W-NW 296 ° 0 min 9 W/m² 7,5 °C 6,7 °C 14,5 km/h (3 Bft)
14.11.2024 15:10 21,0 °C 9,2 °C 58 % 89 % 1023,2 hPa 0,0 l/m² 12,2 km/h (2 Bft) W 279 ° 0 min 9 W/m² 7,5 °C 5,5 °C 16,1 km/h (3 Bft)
14.11.2024 15:11 21,0 °C 9,2 °C 58 % 89 % 1023,1 hPa 0,0 l/m² 11,9 km/h (2 Bft) W-NW 288 ° 0 min 9 W/m² 7,5 °C 5,6 °C 16,1 km/h (3 Bft)
14.11.2024 15:12 21,0 °C 9,2 °C 58 % 89 % 1023,2 hPa 0,0 l/m² 14,3 km/h (3 Bft) W 278 ° 0 min 11 W/m² 7,5 °C 4,5 °C 17,7 km/h (3 Bft)
14.11.2024 15:13 21,0 °C 9,2 °C 58 % 89 % 1023,2 hPa 0,0 l/m² 12,4 km/h (2 Bft) W-NW 301 ° 0 min 12 W/m² 7,5 °C 5,4 °C 17,7 km/h (3 Bft)
14.11.2024 15:14 21,0 °C 9,2 °C 58 % 89 % 1023,1 hPa 0,0 l/m² 9,2 km/h (2 Bft) W 274 ° 0 min 14 W/m² 7,5 °C 7,2 °C 12,9 km/h (3 Bft)
14.11.2024 15:16 21,0 °C 9,2 °C 58 % 89 % 1023,1 hPa 0,0 l/m² 10,0 km/h (2 Bft) W 261 ° 0 min 18 W/m² 7,5 °C 6,7 °C 16,1 km/h (3 Bft)
14.11.2024 15:17 21,0 °C 9,2 °C 58 % 89 % 1023,1 hPa 0,0 l/m² 13,4 km/h (3 Bft) W 262 ° 0 min 23 W/m² 7,5 °C 4,9 °C 17,7 km/h (3 Bft)
14.11.2024 15:18 21,0 °C 9,2 °C 58 % 89 % 1023,1 hPa 0,0 l/m² 9,5 km/h (2 Bft) W 262 ° 0 min 25 W/m² 7,5 °C 7,0 °C 14,5 km/h (3 Bft)
14.11.2024 15:19 21,0 °C 9,2 °C 58 % 89 % 1023,1 hPa 0,0 l/m² 8,6 km/h (2 Bft) W-SW 248 ° 0 min 26 W/m² 7,5 °C 7,6 °C 14,5 km/h (3 Bft)
14.11.2024 15:20 21,0 °C 9,2 °C 58 % 89 % 1023,1 hPa 0,0 l/m² 6,8 km/h (2 Bft) W-SW 248 ° 0 min 26 W/m² 7,5 °C 8,9 °C 9,7 km/h (2 Bft)
14.11.2024 15:21 21,0 °C 9,2 °C 58 % 89 % 1023,1 hPa 0,0 l/m² 6,8 km/h (2 Bft) W 264 ° 0 min 25 W/m² 7,5 °C 8,9 °C 11,3 km/h (2 Bft)
14.11.2024 15:22 21,0 °C 9,2 °C 58 % 89 % 1023,1 hPa 0,0 l/m² 5,7 km/h (2 Bft) W-SW 256 ° 0 min 25 W/m² 7,5 °C 9,2 °C 8,0 km/h (2 Bft)
14.11.2024 15:23 21,0 °C 9,2 °C 58 % 89 % 1023,0 hPa 0,0 l/m² 4,6 km/h (1 Bft) W 263 ° 0 min 23 W/m² 7,5 °C 9,2 °C 9,7 km/h (2 Bft)
14.11.2024 15:24 21,0 °C 9,2 °C 58 % 89 % 1023,1 hPa 0,0 l/m² 6,1 km/h (2 Bft) W 263 ° 0 min 23 W/m² 7,5 °C 9,2 °C 11,3 km/h (2 Bft)
14.11.2024 15:25 21,0 °C 9,2 °C 59 % 89 % 1023,1 hPa 0,0 l/m² 10,4 km/h (2 Bft) W-NW 282 ° 0 min 21 W/m² 7,5 °C 6,5 °C 16,1 km/h (3 Bft)
14.11.2024 15:26 21,0 °C 9,2 °C 58 % 89 % 1023,1 hPa 0,0 l/m² 10,1 km/h (2 Bft) W 272 ° 0 min 21 W/m² 7,5 °C 6,7 °C 11,3 km/h (2 Bft)
14.11.2024 15:27 21,0 °C 9,2 °C 58 % 89 % 1023,1 hPa 0,0 l/m² 8,5 km/h (2 Bft) W 269 ° 0 min 21 W/m² 7,5 °C 7,7 °C 11,3 km/h (2 Bft)
14.11.2024 15:28 21,0 °C 9,2 °C 59 % 89 % 1023,1 hPa 0,0 l/m² 8,6 km/h (2 Bft) W 271 ° 0 min 21 W/m² 7,5 °C 7,6 °C 14,5 km/h (3 Bft)
14.11.2024 15:29 21,0 °C 9,1 °C 59 % 89 % 1023,1 hPa 0,0 l/m² 9,3 km/h (2 Bft) W 270 ° 0 min 23 W/m² 7,4 °C 7,0 °C 12,9 km/h (3 Bft)
14.11.2024 15:30 21,0 °C 9,1 °C 59 % 89 % 1023,1 hPa 0,0 l/m² 3,8 km/h (1 Bft) W 279 ° 0 min 21 W/m² 7,4 °C 9,1 °C 6,4 km/h (2 Bft)
14.11.2024 15:31 21,0 °C 9,2 °C 59 % 89 % 1023,0 hPa 0,0 l/m² 6,9 km/h (2 Bft) W-NW 284 ° 0 min 21 W/m² 7,5 °C 8,8 °C 12,9 km/h (3 Bft)
14.11.2024 15:32 21,0 °C 9,1 °C 59 % 89 % 1023,0 hPa 0,0 l/m² 9,9 km/h (2 Bft) W-NW 282 ° 0 min 19 W/m² 7,4 °C 6,7 °C 12,9 km/h (3 Bft)
14.11.2024 15:33 21,0 °C 9,1 °C 59 % 89 % 1023,0 hPa 0,0 l/m² 6,9 km/h (2 Bft) W-SW 247 ° 0 min 18 W/m² 7,4 °C 8,7 °C 11,3 km/h (2 Bft)
14.11.2024 15:34 21,0 °C 9,1 °C 59 % 89 % 1023,0 hPa 0,0 l/m² 7,9 km/h (2 Bft) W 263 ° 0 min 16 W/m² 7,4 °C 8,0 °C 11,3 km/h (2 Bft)
14.11.2024 15:35 21,0 °C 9,1 °C 59 % 89 % 1023,1 hPa 0,0 l/m² 9,5 km/h (2 Bft) W-SW 258 ° 0 min 14 W/m² 7,4 °C 6,9 °C 11,3 km/h (2 Bft)
14.11.2024 15:36 21,0 °C 9,1 °C 59 % 89 % 1023,0 hPa 0,0 l/m² 9,5 km/h (2 Bft) W 273 ° 0 min 14 W/m² 7,4 °C 6,9 °C 12,9 km/h (3 Bft)
14.11.2024 15:37 21,0 °C 9,1 °C 59 % 89 % 1023,1 hPa 0,0 l/m² 6,0 km/h (2 Bft) W 262 ° 0 min 16 W/m² 7,4 °C 9,1 °C 9,7 km/h (2 Bft)
14.11.2024 15:38 21,0 °C 9,1 °C 59 % 89 % 1023,1 hPa 0,0 l/m² 7,4 km/h (2 Bft) W-NW 287 ° 0 min 14 W/m² 7,4 °C 8,3 °C 12,9 km/h (3 Bft)
14.11.2024 15:39 21,0 °C 9,1 °C 59 % 89 % 1023,1 hPa 0,0 l/m² 8,2 km/h (2 Bft) W-SW 257 ° 0 min 12 W/m² 7,4 °C 7,8 °C 12,9 km/h (3 Bft)
14.11.2024 15:40 21,0 °C 9,1 °C 59 % 89 % 1023,0 hPa 0,0 l/m² 7,0 km/h (2 Bft) W 272 ° 0 min 12 W/m² 7,4 °C 8,7 °C 11,3 km/h (2 Bft)
14.11.2024 15:41 21,0 °C 9,1 °C 59 % 89 % 1023,0 hPa 0,0 l/m² 7,0 km/h (2 Bft) W-SW 256 ° 0 min 12 W/m² 7,4 °C 8,7 °C 11,3 km/h (2 Bft)
14.11.2024 15:42 21,0 °C 9,1 °C 59 % 89 % 1023,0 hPa 0,0 l/m² 5,3 km/h (1 Bft) W 274 ° 0 min 11 W/m² 7,4 °C 9,1 °C 8,0 km/h (2 Bft)
14.11.2024 15:43 21,0 °C 9,1 °C 59 % 89 % 1023,0 hPa 0,0 l/m² 7,0 km/h (2 Bft) W 275 ° 0 min 11 W/m² 7,4 °C 8,7 °C 11,3 km/h (2 Bft)
14.11.2024 15:45 21,0 °C 9,1 °C 59 % 89 % 1023,0 hPa 0,0 l/m² 9,5 km/h (2 Bft) W 267 ° 0 min 9 W/m² 7,4 °C 6,9 °C 14,5 km/h (3 Bft)
14.11.2024 15:46 21,0 °C 9,1 °C 59 % 89 % 1023,0 hPa 0,0 l/m² 9,7 km/h (2 Bft) W 279 ° 0 min 7 W/m² 7,4 °C 6,8 °C 12,9 km/h (3 Bft)
14.11.2024 15:47 21,0 °C 9,1 °C 59 % 89 % 1023,1 hPa 0,0 l/m² 9,1 km/h (2 Bft) W-SW 240 ° 0 min 7 W/m² 7,4 °C 7,2 °C 12,9 km/h (3 Bft)
14.11.2024 15:48 21,0 °C 9,1 °C 59 % 89 % 1023,1 hPa 0,0 l/m² 7,4 km/h (2 Bft) W 263 ° 0 min 7 W/m² 7,4 °C 8,3 °C 11,3 km/h (2 Bft)
14.11.2024 15:49 21,0 °C 9,1 °C 59 % 89 % 1023,1 hPa 0,0 l/m² 5,8 km/h (2 Bft) W 277 ° 0 min 5 W/m² 7,4 °C 9,1 °C 9,7 km/h (2 Bft)
14.11.2024 15:50 21,0 °C 9,1 °C 59 % 89 % 1023,1 hPa 0,0 l/m² 7,9 km/h (2 Bft) W 266 ° 0 min 5 W/m² 7,4 °C 8,0 °C 11,3 km/h (2 Bft)
14.11.2024 15:51 21,0 °C 9,1 °C 59 % 89 % 1023,2 hPa 0,0 l/m² 5,6 km/h (2 Bft) W-NW 296 ° 0 min 5 W/m² 7,4 °C 9,1 °C 9,7 km/h (2 Bft)
14.11.2024 15:52 21,0 °C 9,1 °C 59 % 89 % 1023,2 hPa 0,0 l/m² 5,6 km/h (2 Bft) NW 305 ° 0 min 5 W/m² 7,4 °C 9,1 °C 9,7 km/h (2 Bft)
14.11.2024 15:53 21,0 °C 9,1 °C 59 % 89 % 1023,2 hPa 0,0 l/m² 5,4 km/h (2 Bft) W 281 ° 0 min 0 W/m² 7,4 °C 9,1 °C 11,3 km/h (2 Bft)
14.11.2024 15:54 20,9 °C 9,1 °C 59 % 89 % 1023,2 hPa 0,0 l/m² 2,0 km/h (1 Bft) W-NW 301 ° 0 min 0 W/m² 7,4 °C 9,1 °C 6,4 km/h (2 Bft)
14.11.2024 15:55 21,0 °C 9,1 °C 59 % 89 % 1023,2 hPa 0,0 l/m² 3,6 km/h (1 Bft) N-NW 346 ° 0 min 0 W/m² 7,4 °C 9,1 °C 6,4 km/h (2 Bft)
14.11.2024 15:56 21,0 °C 9,1 °C 59 % 89 % 1023,2 hPa 0,0 l/m² 3,6 km/h (1 Bft) W-NW 286 ° 0 min 0 W/m² 7,4 °C 9,1 °C 6,4 km/h (2 Bft)
14.11.2024 15:57 21,0 °C 9,1 °C 59 % 89 % 1023,2 hPa 0,0 l/m² 5,6 km/h (2 Bft) NW 309 ° 0 min 0 W/m² 7,4 °C 9,1 °C 8,0 km/h (2 Bft)
14.11.2024 15:58 21,0 °C 9,1 °C 59 % 89 % 1023,2 hPa 0,0 l/m² 6,6 km/h (2 Bft) NW 325 ° 0 min 0 W/m² 7,4 °C 9,0 °C 11,3 km/h (2 Bft)
14.11.2024 15:59 21,0 °C 9,1 °C 59 % 89 % 1023,3 hPa 0,0 l/m² 8,1 km/h (2 Bft) NW 309 ° 0 min 0 W/m² 7,4 °C 7,8 °C 12,9 km/h (3 Bft)
14.11.2024 16:00 21,0 °C 9,1 °C 58 % 89 % 1023,3 hPa 0,0 l/m² 5,2 km/h (1 Bft) W-NW 300 ° 0 min 0 W/m² 7,4 °C 9,1 °C 11,3 km/h (2 Bft)
14.11.2024 16:01 21,0 °C 9,0 °C 58 % 89 % 1023,4 hPa 0,0 l/m² 6,4 km/h (2 Bft) NW 311 ° 0 min 0 W/m² 7,3 °C 9,0 °C 19,3 km/h (3 Bft)
14.11.2024 16:02 20,9 °C 9,1 °C 58 % 89 % 1023,4 hPa 0,0 l/m² 12,1 km/h (2 Bft) W-NW 302 ° 0 min 0 W/m² 7,4 °C 5,4 °C 17,7 km/h (3 Bft)
14.11.2024 16:03 20,9 °C 9,1 °C 58 % 89 % 1023,4 hPa 0,0 l/m² 8,9 km/h (2 Bft) W-NW 302 ° 0 min 0 W/m² 7,4 °C 7,3 °C 14,5 km/h (3 Bft)
14.11.2024 16:04 20,9 °C 9,1 °C 58 % 89 % 1023,4 hPa 0,0 l/m² 6,9 km/h (2 Bft) W-NW 291 ° 0 min 0 W/m² 7,4 °C 8,7 °C 11,3 km/h (2 Bft)
14.11.2024 16:05 20,9 °C 9,0 °C 58 % 89 % 1023,3 hPa 0,0 l/m² 8,2 km/h (2 Bft) NW 309 ° 0 min 0 W/m² 7,3 °C 7,7 °C 12,9 km/h (3 Bft)
14.11.2024 16:06 20,9 °C 9,0 °C 58 % 89 % 1023,4 hPa 0,0 l/m² 6,4 km/h (2 Bft) NW 306 ° 0 min 0 W/m² 7,3 °C 9,0 °C 9,7 km/h (2 Bft)
14.11.2024 16:07 20,9 °C 9,0 °C 58 % 89 % 1023,4 hPa 0,0 l/m² 5,6 km/h (2 Bft) W-NW 301 ° 0 min 0 W/m² 7,3 °C 9,0 °C 12,9 km/h (3 Bft)
14.11.2024 16:08 20,9 °C 9,0 °C 58 % 89 % 1023,4 hPa 0,0 l/m² 5,0 km/h (1 Bft) W 266 ° 0 min 0 W/m² 7,3 °C 9,0 °C 9,7 km/h (2 Bft)
14.11.2024 16:09 20,9 °C 9,1 °C 58 % 89 % 1023,4 hPa 0,0 l/m² 6,7 km/h (2 Bft) W-NW 286 ° 0 min 0 W/m² 7,4 °C 8,9 °C 11,3 km/h (2 Bft)
14.11.2024 16:10 20,9 °C 9,0 °C 58 % 89 % 1023,4 hPa 0,0 l/m² 5,4 km/h (2 Bft) NW 313 ° 0 min 0 W/m² 7,3 °C 9,0 °C 9,7 km/h (2 Bft)
14.11.2024 16:11 20,9 °C 9,0 °C 58 % 89 % 1023,5 hPa 0,0 l/m² 6,1 km/h (2 Bft) W 269 ° 0 min 0 W/m² 7,3 °C 9,0 °C 11,3 km/h (2 Bft)
14.11.2024 16:12 20,9 °C 9,0 °C 58 % 89 % 1023,4 hPa 0,0 l/m² 7,6 km/h (2 Bft) W 261 ° 0 min 0 W/m² 7,3 °C 8,1 °C 14,5 km/h (3 Bft)
14.11.2024 16:13 20,9 °C 9,0 °C 58 % 89 % 1023,4 hPa 0,0 l/m² 11,8 km/h (2 Bft) W 281 ° 0 min 0 W/m² 7,3 °C 5,5 °C 16,1 km/h (3 Bft)
14.11.2024 16:14 20,9 °C 8,9 °C 58 % 89 % 1023,5 hPa 0,0 l/m² 8,1 km/h (2 Bft) W-NW 290 ° 0 min 0 W/m² 7,2 °C 7,6 °C 14,5 km/h (3 Bft)
14.11.2024 16:15 20,9 °C 8,9 °C 58 % 89 % 1023,5 hPa 0,0 l/m² 7,8 km/h (2 Bft) W 281 ° 0 min 0 W/m² 7,2 °C 7,8 °C 17,7 km/h (3 Bft)
14.11.2024 16:16 20,9 °C 8,9 °C 58 % 90 % 1023,5 hPa 0,0 l/m² 10,1 km/h (2 Bft) W 259 ° 0 min 0 W/m² 7,4 °C 6,3 °C 17,7 km/h (3 Bft)
14.11.2024 16:17 20,9 °C 8,9 °C 58 % 90 % 1023,5 hPa 0,0 l/m² 11,7 km/h (2 Bft) W 277 ° 0 min 0 W/m² 7,4 °C 5,4 °C 17,7 km/h (3 Bft)
14.11.2024 16:18 20,9 °C 8,9 °C 58 % 90 % 1023,4 hPa 0,0 l/m² 7,1 km/h (2 Bft) W 273 ° 0 min 0 W/m² 7,4 °C 8,4 °C 11,3 km/h (2 Bft)
14.11.2024 16:19 20,9 °C 8,9 °C 58 % 90 % 1023,5 hPa 0,0 l/m² 7,2 km/h (2 Bft) W 274 ° 0 min 0 W/m² 7,4 °C 8,3 °C 11,3 km/h (2 Bft)
14.11.2024 16:20 20,9 °C 8,9 °C 58 % 90 % 1023,5 hPa 0,0 l/m² 6,2 km/h (2 Bft) W 262 ° 0 min 0 W/m² 7,4 °C 8,9 °C 9,7 km/h (2 Bft)
14.11.2024 16:21 20,9 °C 8,9 °C 58 % 89 % 1023,5 hPa 0,0 l/m² 4,4 km/h (1 Bft) W 274 ° 0 min 0 W/m² 7,2 °C 8,9 °C 9,7 km/h (2 Bft)
14.11.2024 16:22 20,9 °C 8,9 °C 58 % 89 % 1023,5 hPa 0,0 l/m² 8,6 km/h (2 Bft) W 273 ° 0 min 0 W/m² 7,2 °C 7,3 °C 11,3 km/h (2 Bft)
14.11.2024 16:23 20,9 °C 8,9 °C 58 % 89 % 1023,5 hPa 0,0 l/m² 7,4 km/h (2 Bft) W 265 ° 0 min 0 W/m² 7,2 °C 8,1 °C 11,3 km/h (2 Bft)
14.11.2024 16:24 20,9 °C 8,9 °C 58 % 90 % 1023,4 hPa 0,0 l/m² 6,0 km/h (2 Bft) W 267 ° 0 min 0 W/m² 7,4 °C 8,9 °C 9,7 km/h (2 Bft)
14.11.2024 16:25 20,9 °C 8,8 °C 58 % 90 % 1023,5 hPa 0,0 l/m² 6,4 km/h (2 Bft) W 279 ° 0 min 0 W/m² 7,3 °C 8,8 °C 12,9 km/h (3 Bft)
14.11.2024 16:26 20,9 °C 8,8 °C 58 % 90 % 1023,4 hPa 0,0 l/m² 4,9 km/h (1 Bft) W 268 ° 0 min 0 W/m² 7,3 °C 8,8 °C 9,7 km/h (2 Bft)
14.11.2024 16:27 20,9 °C 8,8 °C 58 % 90 % 1023,4 hPa 0,0 l/m² 7,8 km/h (2 Bft) W 271 ° 0 min 0 W/m² 7,3 °C 7,7 °C 11,3 km/h (2 Bft)
14.11.2024 16:28 20,9 °C 8,8 °C 58 % 90 % 1023,5 hPa 0,0 l/m² 9,5 km/h (2 Bft) W 276 ° 0 min 0 W/m² 7,3 °C 6,6 °C 14,5 km/h (3 Bft)
14.11.2024 16:29 20,9 °C 8,8 °C 58 % 90 % 1023,5 hPa 0,0 l/m² 9,5 km/h (2 Bft) W 275 ° 0 min 0 W/m² 7,3 °C 6,6 °C 12,9 km/h (3 Bft)
14.11.2024 16:30 20,9 °C 8,8 °C 58 % 90 % 1023,4 hPa 0,0 l/m² 6,8 km/h (2 Bft) W 272 ° 0 min 0 W/m² 7,3 °C 8,5 °C 12,9 km/h (3 Bft)
14.11.2024 16:31 20,9 °C 8,8 °C 58 % 90 % 1023,4 hPa 0,0 l/m² 10,4 km/h (2 Bft) W 274 ° 0 min 0 W/m² 7,3 °C 6,0 °C 14,5 km/h (3 Bft)
14.11.2024 16:32 20,9 °C 8,8 °C 58 % 90 % 1023,4 hPa 0,0 l/m² 8,6 km/h (2 Bft) W 265 ° 0 min 0 W/m² 7,3 °C 7,2 °C 11,3 km/h (2 Bft)
14.11.2024 16:33 20,9 °C 8,8 °C 58 % 90 % 1023,5 hPa 0,0 l/m² 6,8 km/h (2 Bft) W-NW 283 ° 0 min 0 W/m² 7,3 °C 8,5 °C 9,7 km/h (2 Bft)
14.11.2024 16:34 20,9 °C 8,8 °C 58 % 90 % 1023,5 hPa 0,0 l/m² 7,7 km/h (2 Bft) W 271 ° 0 min 0 W/m² 7,3 °C 7,8 °C 11,3 km/h (2 Bft)
14.11.2024 16:35 20,9 °C 8,8 °C 58 % 90 % 1023,5 hPa 0,0 l/m² 5,1 km/h (1 Bft) W 271 ° 0 min 0 W/m² 7,3 °C 8,8 °C 6,4 km/h (2 Bft)
14.11.2024 16:36 20,9 °C 8,8 °C 58 % 90 % 1023,5 hPa 0,0 l/m² 5,6 km/h (2 Bft) W 270 ° 0 min 0 W/m² 7,3 °C 8,8 °C 9,7 km/h (2 Bft)
14.11.2024 16:37 20,9 °C 8,8 °C 58 % 90 % 1023,5 hPa 0,0 l/m² 5,7 km/h (2 Bft) W-NW 290 ° 0 min 0 W/m² 7,3 °C 8,8 °C 9,7 km/h (2 Bft)
14.11.2024 16:38 20,9 °C 8,8 °C 58 % 90 % 1023,5 hPa 0,0 l/m² 5,1 km/h (1 Bft) W 277 ° 0 min 0 W/m² 7,3 °C 8,8 °C 9,7 km/h (2 Bft)
14.11.2024 16:39 20,9 °C 8,8 °C 58 % 90 % 1023,6 hPa 0,0 l/m² 5,6 km/h (2 Bft) W 265 ° 0 min 0 W/m² 7,3 °C 8,8 °C 9,7 km/h (2 Bft)
14.11.2024 16:40 20,9 °C 8,8 °C 58 % 90 % 1023,5 hPa 0,0 l/m² 4,8 km/h (1 Bft) W 270 ° 0 min 0 W/m² 7,3 °C 8,8 °C 6,4 km/h (2 Bft)
14.11.2024 16:41 20,9 °C 8,8 °C 58 % 90 % 1023,5 hPa 0,0 l/m² 5,5 km/h (2 Bft) W 278 ° 0 min 0 W/m² 7,3 °C 8,8 °C 6,4 km/h (2 Bft)
14.11.2024 16:42 20,9 °C 8,8 °C 58 % 90 % 1023,5 hPa 0,0 l/m² 4,7 km/h (1 Bft) W 274 ° 0 min 0 W/m² 7,3 °C 8,8 °C 6,4 km/h (2 Bft)
14.11.2024 16:43 20,9 °C 8,8 °C 58 % 90 % 1023,6 hPa 0,0 l/m² 4,7 km/h (1 Bft) W 271 ° 0 min 0 W/m² 7,3 °C 8,8 °C 9,7 km/h (2 Bft)
14.11.2024 16:44 20,9 °C 8,7 °C 58 % 90 % 1023,6 hPa 0,0 l/m² 2,8 km/h (1 Bft) W 271 ° 0 min 0 W/m² 7,2 °C 8,7 °C 4,8 km/h (1 Bft)
14.11.2024 16:45 20,9 °C 8,7 °C 58 % 90 % 1023,5 hPa 0,0 l/m² 2,0 km/h (1 Bft) W 271 ° 0 min 0 W/m² 7,2 °C 8,7 °C 3,2 km/h (1 Bft)
14.11.2024 16:46 20,9 °C 8,8 °C 58 % 90 % 1023,6 hPa 0,0 l/m² 3,8 km/h (1 Bft) W 268 ° 0 min 0 W/m² 7,3 °C 8,8 °C 9,7 km/h (2 Bft)
14.11.2024 16:47 20,9 °C 8,7 °C 58 % 90 % 1023,5 hPa 0,0 l/m² 3,6 km/h (1 Bft) W 279 ° 0 min 0 W/m² 7,2 °C 8,7 °C 4,8 km/h (1 Bft)
14.11.2024 16:48 20,9 °C 8,7 °C 58 % 90 % 1023,6 hPa 0,0 l/m² 3,6 km/h (1 Bft) W 264 ° 0 min 0 W/m² 7,2 °C 8,7 °C 6,4 km/h (2 Bft)
14.11.2024 16:49 20,9 °C 8,7 °C 58 % 90 % 1023,6 hPa 0,0 l/m² 3,2 km/h (1 Bft) W 276 ° 0 min 0 W/m² 7,2 °C 8,7 °C 6,4 km/h (2 Bft)
14.11.2024 16:50 20,9 °C 8,7 °C 58 % 90 % 1023,6 hPa 0,0 l/m² 5,0 km/h (1 Bft) W 274 ° 0 min 0 W/m² 7,2 °C 8,7 °C 6,4 km/h (2 Bft)
14.11.2024 16:51 20,9 °C 8,7 °C 58 % 90 % 1023,6 hPa 0,0 l/m² 3,8 km/h (1 Bft) W 273 ° 0 min 0 W/m² 7,2 °C 8,7 °C 6,4 km/h (2 Bft)
14.11.2024 16:52 20,9 °C 8,7 °C 58 % 90 % 1023,5 hPa 0,0 l/m² 3,0 km/h (1 Bft) W 277 ° 0 min 0 W/m² 7,2 °C 8,7 °C 4,8 km/h (1 Bft)
14.11.2024 16:53 21,0 °C 8,7 °C 58 % 90 % 1023,6 hPa 0,0 l/m² 4,3 km/h (1 Bft) W 273 ° 0 min 0 W/m² 7,2 °C 8,7 °C 6,4 km/h (2 Bft)
14.11.2024 16:54 21,0 °C 8,7 °C 58 % 90 % 1023,6 hPa 0,0 l/m² 4,7 km/h (1 Bft) W-NW 284 ° 0 min 0 W/m² 7,2 °C 8,7 °C 9,7 km/h (2 Bft)
14.11.2024 16:55 21,0 °C 8,7 °C 59 % 90 % 1023,7 hPa 0,0 l/m² 5,1 km/h (1 Bft) W 263 ° 0 min 0 W/m² 7,2 °C 8,7 °C 9,7 km/h (2 Bft)
14.11.2024 16:56 21,0 °C 8,7 °C 59 % 90 % 1023,7 hPa 0,0 l/m² 6,2 km/h (2 Bft) W 275 ° 0 min 0 W/m² 7,2 °C 8,7 °C 9,7 km/h (2 Bft)
14.11.2024 16:57 21,0 °C 8,7 °C 59 % 90 % 1023,6 hPa 0,0 l/m² 4,8 km/h (1 Bft) W 278 ° 0 min 0 W/m² 7,2 °C 8,7 °C 6,4 km/h (2 Bft)
14.11.2024 16:58 21,0 °C 8,7 °C 59 % 90 % 1023,6 hPa 0,0 l/m² 4,2 km/h (1 Bft) W 269 ° 0 min 0 W/m² 7,2 °C 8,7 °C 6,4 km/h (2 Bft)
14.11.2024 16:59 21,0 °C 8,7 °C 59 % 90 % 1023,6 hPa 0,0 l/m² 3,4 km/h (1 Bft) W-SW 254 ° 0 min 0 W/m² 7,2 °C 8,7 °C 4,8 km/h (1 Bft)
14.11.2024 17:00 21,0 °C 8,7 °C 59 % 90 % 1023,6 hPa 0,0 l/m² 3,1 km/h (1 Bft) W-SW 257 ° 0 min 0 W/m² 7,2 °C 8,7 °C 4,8 km/h (1 Bft)
14.11.2024 17:01 21,0 °C 8,7 °C 59 % 90 % 1023,6 hPa 0,0 l/m² 4,9 km/h (1 Bft) W 259 ° 0 min 0 W/m² 7,2 °C 8,7 °C 9,7 km/h (2 Bft)
14.11.2024 17:03 21,0 °C 8,6 °C 59 % 90 % 1023,7 hPa 0,0 l/m² 3,8 km/h (1 Bft) W 259 ° 0 min 0 W/m² 7,1 °C 8,6 °C 6,4 km/h (2 Bft)
14.11.2024 17:04 21,0 °C 8,6 °C 59 % 90 % 1023,7 hPa 0,0 l/m² 3,5 km/h (1 Bft) W 270 ° 0 min 0 W/m² 7,1 °C 8,6 °C 4,8 km/h (1 Bft)
14.11.2024 17:05 21,0 °C 8,7 °C 59 % 90 % 1023,7 hPa 0,0 l/m² 2,9 km/h (1 Bft) W 269 ° 0 min 0 W/m² 7,2 °C 8,7 °C 4,8 km/h (1 Bft)
14.11.2024 17:06 21,0 °C 8,7 °C 59 % 90 % 1023,7 hPa 0,0 l/m² 2,3 km/h (1 Bft) W 263 ° 0 min 0 W/m² 7,2 °C 8,7 °C 3,2 km/h (1 Bft)
14.11.2024 17:07 21,0 °C 8,6 °C 59 % 90 % 1023,7 hPa 0,0 l/m² 3,2 km/h (1 Bft) W-SW 258 ° 0 min 0 W/m² 7,1 °C 8,6 °C 4,8 km/h (1 Bft)
14.11.2024 17:08 21,0 °C 8,6 °C 59 % 90 % 1023,7 hPa 0,0 l/m² 3,0 km/h (1 Bft) W 259 ° 0 min 0 W/m² 7,1 °C 8,6 °C 4,8 km/h (1 Bft)
14.11.2024 17:09 21,0 °C 8,6 °C 59 % 90 % 1023,6 hPa 0,0 l/m² 2,9 km/h (1 Bft) W 261 ° 0 min 0 W/m² 7,1 °C 8,6 °C 4,8 km/h (1 Bft)
14.11.2024 17:10 21,0 °C 8,6 °C 59 % 90 % 1023,8 hPa 0,0 l/m² 2,0 km/h (1 Bft) W 261 ° 0 min 0 W/m² 7,1 °C 8,6 °C 4,8 km/h (1 Bft)
14.11.2024 17:11 21,0 °C 8,6 °C 59 % 90 % 1023,7 hPa 0,0 l/m² 3,1 km/h (1 Bft) W-SW 257 ° 0 min 0 W/m² 7,1 °C 8,6 °C 4,8 km/h (1 Bft)
14.11.2024 17:12 21,0 °C 8,6 °C 59 % 90 % 1023,8 hPa 0,0 l/m² 4,3 km/h (1 Bft) W-SW 248 ° 0 min 0 W/m² 7,1 °C 8,6 °C 6,4 km/h (2 Bft)
14.11.2024 17:13 21,0 °C 8,6 °C 59 % 90 % 1023,7 hPa 0,0 l/m² 5,8 km/h (2 Bft) W-SW 258 ° 0 min 0 W/m² 7,1 °C 8,6 °C 9,7 km/h (2 Bft)
14.11.2024 17:14 21,0 °C 8,6 °C 59 % 90 % 1023,9 hPa 0,0 l/m² 5,6 km/h (2 Bft) W 268 ° 0 min 0 W/m² 7,1 °C 8,6 °C 8,0 km/h (2 Bft)
14.11.2024 17:15 21,0 °C 8,6 °C 59 % 90 % 1023,8 hPa 0,0 l/m² 4,8 km/h (1 Bft) W-SW 250 ° 0 min 0 W/m² 7,1 °C 8,6 °C 6,4 km/h (2 Bft)
14.11.2024 17:17 21,0 °C 8,6 °C 59 % 90 % 1023,8 hPa 0,0 l/m² 7,7 km/h (2 Bft) W-SW 248 ° 0 min 0 W/m² 7,1 °C 7,6 °C 11,3 km/h (2 Bft)
14.11.2024 17:18 21,0 °C 8,6 °C 59 % 90 % 1023,8 hPa 0,0 l/m² 5,9 km/h (2 Bft) W-SW 253 ° 0 min 0 W/m² 7,1 °C 8,6 °C 9,7 km/h (2 Bft)
14.11.2024 17:19 21,0 °C 8,6 °C 59 % 90 % 1023,8 hPa 0,0 l/m² 6,4 km/h (2 Bft) W 269 ° 0 min 0 W/m² 7,1 °C 8,6 °C 11,3 km/h (2 Bft)
14.11.2024 17:20 21,0 °C 8,6 °C 59 % 90 % 1023,8 hPa 0,0 l/m² 8,4 km/h (2 Bft) W-SW 248 ° 0 min 0 W/m² 7,1 °C 7,1 °C 11,3 km/h (2 Bft)
14.11.2024 17:21 21,0 °C 8,6 °C 59 % 90 % 1023,9 hPa 0,0 l/m² 9,0 km/h (2 Bft) W 264 ° 0 min 0 W/m² 7,1 °C 6,7 °C 12,9 km/h (3 Bft)
14.11.2024 17:22 21,0 °C 8,6 °C 59 % 90 % 1023,7 hPa 0,0 l/m² 8,4 km/h (2 Bft) W-SW 253 ° 0 min 0 W/m² 7,1 °C 7,1 °C 11,3 km/h (2 Bft)
14.11.2024 17:23 21,0 °C 8,6 °C 59 % 90 % 1023,7 hPa 0,0 l/m² 5,6 km/h (2 Bft) W 262 ° 0 min 0 W/m² 7,1 °C 8,6 °C 9,7 km/h (2 Bft)
14.11.2024 17:24 21,0 °C 8,6 °C 59 % 90 % 1023,8 hPa 0,0 l/m² 5,8 km/h (2 Bft) W 259 ° 0 min 0 W/m² 7,1 °C 8,6 °C 9,7 km/h (2 Bft)
14.11.2024 17:25 21,0 °C 8,6 °C 59 % 90 % 1023,7 hPa 0,0 l/m² 9,5 km/h (2 Bft) W 269 ° 0 min 0 W/m² 7,1 °C 6,4 °C 12,9 km/h (3 Bft)
14.11.2024 17:26 21,1 °C 8,6 °C 59 % 90 % 1023,8 hPa 0,0 l/m² 8,0 km/h (2 Bft) W 280 ° 0 min 0 W/m² 7,1 °C 7,4 °C 11,3 km/h (2 Bft)
14.11.2024 17:27 21,1 °C 8,6 °C 59 % 90 % 1023,8 hPa 0,0 l/m² 5,8 km/h (2 Bft) W 264 ° 0 min 0 W/m² 7,1 °C 8,6 °C 9,7 km/h (2 Bft)
14.11.2024 17:28 21,0 °C 8,6 °C 59 % 90 % 1023,9 hPa 0,0 l/m² 6,2 km/h (2 Bft) W 272 ° 0 min 0 W/m² 7,1 °C 8,6 °C 11,3 km/h (2 Bft)
14.11.2024 17:29 21,0 °C 8,6 °C 59 % 90 % 1023,9 hPa 0,0 l/m² 5,7 km/h (2 Bft) W 273 ° 0 min 0 W/m² 7,1 °C 8,6 °C 6,4 km/h (2 Bft)
14.11.2024 17:30 21,0 °C 8,6 °C 59 % 90 % 1023,9 hPa 0,0 l/m² 5,7 km/h (2 Bft) W 270 ° 0 min 0 W/m² 7,1 °C 8,6 °C 9,7 km/h (2 Bft)
14.11.2024 17:31 21,0 °C 8,6 °C 59 % 90 % 1023,9 hPa 0,0 l/m² 5,4 km/h (2 Bft) W 266 ° 0 min 0 W/m² 7,1 °C 8,6 °C 6,4 km/h (2 Bft)
14.11.2024 17:32 21,0 °C 8,6 °C 59 % 90 % 1023,8 hPa 0,0 l/m² 3,6 km/h (1 Bft) W-SW 250 ° 0 min 0 W/m² 7,1 °C 8,6 °C 6,4 km/h (2 Bft)
14.11.2024 17:33 21,0 °C 8,6 °C 59 % 90 % 1023,9 hPa 0,0 l/m² 5,3 km/h (1 Bft) W 267 ° 0 min 0 W/m² 7,1 °C 8,6 °C 6,4 km/h (2 Bft)
14.11.2024 17:34 21,0 °C 8,6 °C 59 % 90 % 1023,8 hPa 0,0 l/m² 5,1 km/h (1 Bft) W-SW 258 ° 0 min 0 W/m² 7,1 °C 8,6 °C 9,7 km/h (2 Bft)
14.11.2024 17:35 21,0 °C 8,5 °C 59 % 90 % 1023,8 hPa 0,0 l/m² 4,6 km/h (1 Bft) W 259 ° 0 min 0 W/m² 7,0 °C 8,5 °C 9,7 km/h (2 Bft)
14.11.2024 17:36 21,0 °C 8,6 °C 59 % 91 % 1023,8 hPa 0,0 l/m² 3,6 km/h (1 Bft) W 264 ° 0 min 0 W/m² 7,2 °C 8,6 °C 4,8 km/h (1 Bft)
14.11.2024 17:37 21,0 °C 8,6 °C 59 % 91 % 1023,9 hPa 0,0 l/m² 3,7 km/h (1 Bft) W 272 ° 0 min 0 W/m² 7,2 °C 8,6 °C 6,4 km/h (2 Bft)
14.11.2024 17:39 21,0 °C 8,6 °C 59 % 91 % 1023,8 hPa 0,0 l/m² 4,0 km/h (1 Bft) W 261 ° 0 min 0 W/m² 7,2 °C 8,6 °C 9,7 km/h (2 Bft)
14.11.2024 17:40 21,0 °C 8,5 °C 59 % 91 % 1023,8 hPa 0,0 l/m² 3,6 km/h (1 Bft) W-SW 245 ° 0 min 0 W/m² 7,1 °C 8,5 °C 6,4 km/h (2 Bft)
14.11.2024 17:41 20,9 °C 8,6 °C 59 % 91 % 1023,8 hPa 0,0 l/m² 4,8 km/h (1 Bft) W-SW 256 ° 0 min 0 W/m² 7,2 °C 8,6 °C 9,7 km/h (2 Bft)
14.11.2024 17:42 21,0 °C 8,5 °C 59 % 91 % 1023,8 hPa 0,0 l/m² 5,1 km/h (1 Bft) W 268 ° 0 min 0 W/m² 7,1 °C 8,5 °C 9,7 km/h (2 Bft)
14.11.2024 17:43 21,0 °C 8,5 °C 59 % 91 % 1023,9 hPa 0,0 l/m² 4,9 km/h (1 Bft) W 271 ° 0 min 0 W/m² 7,1 °C 8,5 °C 6,4 km/h (2 Bft)
14.11.2024 17:44 21,0 °C 8,6 °C 59 % 91 % 1023,9 hPa 0,0 l/m² 3,4 km/h (1 Bft) W 277 ° 0 min 0 W/m² 7,2 °C 8,6 °C 6,4 km/h (2 Bft)
14.11.2024 17:45 20,9 °C 8,5 °C 59 % 91 % 1023,9 hPa 0,0 l/m² 5,2 km/h (1 Bft) W 277 ° 0 min 0 W/m² 7,1 °C 8,5 °C 9,7 km/h (2 Bft)
14.11.2024 17:46 21,0 °C 8,5 °C 59 % 91 % 1023,9 hPa 0,0 l/m² 3,1 km/h (1 Bft) W 265 ° 0 min 0 W/m² 7,1 °C 8,5 °C 4,8 km/h (1 Bft)
14.11.2024 17:47 21,0 °C 8,5 °C 59 % 91 % 1023,9 hPa 0,0 l/m² 1,7 km/h (1 Bft) W 272 ° 0 min 0 W/m² 7,1 °C 8,5 °C 4,8 km/h (1 Bft)
14.11.2024 17:48 20,9 °C 8,5 °C 59 % 91 % 1023,9 hPa 0,0 l/m² 7,3 km/h (2 Bft) W 262 ° 0 min 0 W/m² 7,1 °C 7,8 °C 11,3 km/h (2 Bft)
14.11.2024 17:49 20,9 °C 8,5 °C 59 % 91 % 1023,9 hPa 0,0 l/m² 9,0 km/h (2 Bft) W-SW 249 ° 0 min 0 W/m² 7,1 °C 6,6 °C 14,5 km/h (3 Bft)
14.11.2024 17:51 20,9 °C 8,5 °C 59 % 91 % 1023,9 hPa 0,0 l/m² 8,2 km/h (2 Bft) W 274 ° 0 min 0 W/m² 7,1 °C 7,1 °C 16,1 km/h (3 Bft)
14.11.2024 17:52 20,9 °C 8,5 °C 59 % 91 % 1023,9 hPa 0,0 l/m² 8,7 km/h (2 Bft) W-SW 239 ° 0 min 0 W/m² 7,1 °C 6,8 °C 12,9 km/h (3 Bft)
14.11.2024 17:53 20,9 °C 8,5 °C 59 % 91 % 1023,9 hPa 0,0 l/m² 7,4 km/h (2 Bft) SW 223 ° 0 min 0 W/m² 7,1 °C 7,7 °C 12,9 km/h (3 Bft)
14.11.2024 17:54 20,9 °C 8,5 °C 59 % 91 % 1023,9 hPa 0,0 l/m² 8,8 km/h (2 Bft) W-SW 247 ° 0 min 0 W/m² 7,1 °C 6,7 °C 14,5 km/h (3 Bft)
14.11.2024 17:55 20,9 °C 8,5 °C 60 % 91 % 1023,9 hPa 0,0 l/m² 12,9 km/h (3 Bft) W-SW 257 ° 0 min 0 W/m² 7,1 °C 4,3 °C 16,1 km/h (3 Bft)
14.11.2024 17:56 20,9 °C 8,5 °C 60 % 91 % 1024,0 hPa 0,0 l/m² 9,9 km/h (2 Bft) W 265 ° 0 min 0 W/m² 7,1 °C 6,0 °C 12,9 km/h (3 Bft)
14.11.2024 17:57 20,9 °C 8,5 °C 60 % 91 % 1023,9 hPa 0,0 l/m² 6,4 km/h (2 Bft) W 275 ° 0 min 0 W/m² 7,1 °C 8,5 °C 11,3 km/h (2 Bft)
14.11.2024 17:58 20,9 °C 8,5 °C 60 % 91 % 1023,9 hPa 0,0 l/m² 7,8 km/h (2 Bft) W 272 ° 0 min 0 W/m² 7,1 °C 7,4 °C 12,9 km/h (3 Bft)
14.11.2024 17:59 20,9 °C 8,5 °C 60 % 91 % 1024,1 hPa 0,0 l/m² 7,4 km/h (2 Bft) W 271 ° 0 min 0 W/m² 7,1 °C 7,7 °C 11,3 km/h (2 Bft)
14.11.2024 18:00 20,9 °C 8,5 °C 60 % 91 % 1024,0 hPa 0,0 l/m² 7,4 km/h (2 Bft) W 271 ° 0 min 0 W/m² 7,1 °C 7,7 °C 12,9 km/h (3 Bft)
14.11.2024 18:01 20,9 °C 8,5 °C 60 % 91 % 1023,9 hPa 0,0 l/m² 7,0 km/h (2 Bft) W 271 ° 0 min 0 W/m² 7,1 °C 8,0 °C 12,9 km/h (3 Bft)
14.11.2024 18:02 20,9 °C 8,5 °C 60 % 91 % 1023,9 hPa 0,0 l/m² 9,1 km/h (2 Bft) W 267 ° 0 min 0 W/m² 7,1 °C 6,5 °C 12,9 km/h (3 Bft)
14.11.2024 18:03 20,9 °C 8,5 °C 60 % 91 % 1024,0 hPa 0,0 l/m² 10,7 km/h (2 Bft) W-SW 240 ° 0 min 0 W/m² 7,1 °C 5,5 °C 14,5 km/h (3 Bft)
14.11.2024 18:04 20,9 °C 8,5 °C 60 % 91 % 1024,0 hPa 0,0 l/m² 7,5 km/h (2 Bft) W 277 ° 0 min 0 W/m² 7,1 °C 7,6 °C 12,9 km/h (3 Bft)
14.11.2024 18:05 20,9 °C 8,5 °C 60 % 91 % 1023,9 hPa 0,0 l/m² 6,7 km/h (2 Bft) W 269 ° 0 min 0 W/m² 7,1 °C 8,3 °C 11,3 km/h (2 Bft)
14.11.2024 18:06 20,9 °C 8,5 °C 60 % 91 % 1024,0 hPa 0,0 l/m² 5,4 km/h (2 Bft) W-SW 255 ° 0 min 0 W/m² 7,1 °C 8,5 °C 11,3 km/h (2 Bft)
14.11.2024 18:07 20,9 °C 8,5 °C 60 % 91 % 1024,0 hPa 0,0 l/m² 4,8 km/h (1 Bft) W-SW 254 ° 0 min 0 W/m² 7,1 °C 8,5 °C 6,4 km/h (2 Bft)
14.11.2024 18:08 20,9 °C 8,5 °C 60 % 91 % 1023,9 hPa 0,0 l/m² 6,2 km/h (2 Bft) W 262 ° 0 min 0 W/m² 7,1 °C 8,5 °C 9,7 km/h (2 Bft)
14.11.2024 18:09 20,9 °C 8,5 °C 60 % 91 % 1023,9 hPa 0,0 l/m² 5,0 km/h (1 Bft) W-SW 256 ° 0 min 0 W/m² 7,1 °C 8,5 °C 9,7 km/h (2 Bft)
14.11.2024 18:10 20,9 °C 8,5 °C 60 % 91 % 1023,9 hPa 0,0 l/m² 5,6 km/h (2 Bft) W-SW 247 ° 0 min 0 W/m² 7,1 °C 8,5 °C 9,7 km/h (2 Bft)
14.11.2024 18:11 20,9 °C 8,4 °C 60 % 91 % 1023,9 hPa 0,0 l/m² 5,6 km/h (2 Bft) W 263 ° 0 min 0 W/m² 7,0 °C 8,4 °C 9,7 km/h (2 Bft)
14.11.2024 18:12 20,9 °C 8,5 °C 60 % 91 % 1024,0 hPa 0,0 l/m² 4,4 km/h (1 Bft) W 266 ° 0 min 0 W/m² 7,1 °C 8,5 °C 6,4 km/h (2 Bft)
14.11.2024 18:13 20,9 °C 8,5 °C 60 % 91 % 1024,0 hPa 0,0 l/m² 4,2 km/h (1 Bft) W 261 ° 0 min 0 W/m² 7,1 °C 8,5 °C 6,4 km/h (2 Bft)
14.11.2024 18:14 20,9 °C 8,5 °C 60 % 91 % 1024,1 hPa 0,0 l/m² 5,2 km/h (1 Bft) W-SW 257 ° 0 min 0 W/m² 7,1 °C 8,5 °C 6,4 km/h (2 Bft)
14.11.2024 18:15 20,9 °C 8,5 °C 60 % 91 % 1024,1 hPa 0,0 l/m² 5,9 km/h (2 Bft) W-SW 256 ° 0 min 0 W/m² 7,1 °C 8,5 °C 9,7 km/h (2 Bft)
14.11.2024 18:16 20,9 °C 8,5 °C 60 % 91 % 1024,1 hPa 0,0 l/m² 5,7 km/h (2 Bft) W-SW 251 ° 0 min 0 W/m² 7,1 °C 8,5 °C 8,0 km/h (2 Bft)
14.11.2024 18:17 20,9 °C 8,5 °C 60 % 91 % 1024,1 hPa 0,0 l/m² 5,8 km/h (2 Bft) W 264 ° 0 min 0 W/m² 7,1 °C 8,5 °C 9,7 km/h (2 Bft)
14.11.2024 18:18 20,9 °C 8,5 °C 60 % 91 % 1024,1 hPa 0,0 l/m² 4,7 km/h (1 Bft) W 261 ° 0 min 0 W/m² 7,1 °C 8,5 °C 6,4 km/h (2 Bft)
14.11.2024 18:19 20,9 °C 8,5 °C 60 % 91 % 1024,1 hPa 0,0 l/m² 5,0 km/h (1 Bft) W 261 ° 0 min 0 W/m² 7,1 °C 8,5 °C 6,4 km/h (2 Bft)
14.11.2024 18:20 20,9 °C 8,4 °C 60 % 91 % 1024,1 hPa 0,0 l/m² 3,6 km/h (1 Bft) W 277 ° 0 min 0 W/m² 7,0 °C 8,4 °C 6,4 km/h (2 Bft)
14.11.2024 18:21 20,9 °C 8,4 °C 60 % 91 % 1024,1 hPa 0,0 l/m² 2,6 km/h (1 Bft) W 266 ° 0 min 0 W/m² 7,0 °C 8,4 °C 4,8 km/h (1 Bft)
14.11.2024 18:22 20,9 °C 8,4 °C 60 % 91 % 1024,1 hPa 0,0 l/m² 3,5 km/h (1 Bft) W 267 ° 0 min 0 W/m² 7,0 °C 8,4 °C 4,8 km/h (1 Bft)
14.11.2024 18:23 20,9 °C 8,4 °C 60 % 91 % 1024,1 hPa 0,0 l/m² 3,3 km/h (1 Bft) W 271 ° 0 min 0 W/m² 7,0 °C 8,4 °C 4,8 km/h (1 Bft)
14.11.2024 18:24 20,9 °C 8,4 °C 60 % 91 % 1024,1 hPa 0,0 l/m² 4,1 km/h (1 Bft) W 270 ° 0 min 0 W/m² 7,0 °C 8,4 °C 4,8 km/h (1 Bft)
14.11.2024 18:25 20,9 °C 8,4 °C 60 % 91 % 1024,2 hPa 0,0 l/m² 3,7 km/h (1 Bft) W 261 ° 0 min 0 W/m² 7,0 °C 8,4 °C 6,4 km/h (2 Bft)
14.11.2024 18:26 20,9 °C 8,4 °C 60 % 91 % 1024,2 hPa 0,0 l/m² 3,8 km/h (1 Bft) W 266 ° 0 min 0 W/m² 7,0 °C 8,4 °C 4,8 km/h (1 Bft)
14.11.2024 18:27 20,9 °C 8,4 °C 60 % 91 % 1024,2 hPa 0,0 l/m² 3,4 km/h (1 Bft) W 263 ° 0 min 0 W/m² 7,0 °C 8,4 °C 4,8 km/h (1 Bft)
14.11.2024 18:28 20,9 °C 8,4 °C 60 % 91 % 1024,2 hPa 0,0 l/m² 2,7 km/h (1 Bft) W 265 ° 0 min 0 W/m² 7,0 °C 8,4 °C 6,4 km/h (2 Bft)
14.11.2024 18:29 20,9 °C 8,4 °C 60 % 91 % 1024,2 hPa 0,0 l/m² 3,6 km/h (1 Bft) W 261 ° 0 min 0 W/m² 7,0 °C 8,4 °C 4,8 km/h (1 Bft)
14.11.2024 18:30 20,9 °C 8,4 °C 60 % 91 % 1024,2 hPa 0,0 l/m² 3,2 km/h (1 Bft) W-SW 255 ° 0 min 0 W/m² 7,0 °C 8,4 °C 4,8 km/h (1 Bft)
14.11.2024 18:31 20,9 °C 8,4 °C 60 % 91 % 1024,2 hPa 0,0 l/m² 5,4 km/h (2 Bft) W 272 ° 0 min 0 W/m² 7,0 °C 8,4 °C 8,0 km/h (2 Bft)
14.11.2024 18:32 20,9 °C 8,4 °C 60 % 91 % 1024,2 hPa 0,0 l/m² 6,0 km/h (2 Bft) W-SW 252 ° 0 min 0 W/m² 7,0 °C 8,4 °C 11,3 km/h (2 Bft)
14.11.2024 18:33 20,9 °C 8,4 °C 60 % 91 % 1024,2 hPa 0,0 l/m² 6,6 km/h (2 Bft) W-SW 251 ° 0 min 0 W/m² 7,0 °C 8,3 °C 11,3 km/h (2 Bft)
14.11.2024 18:34 20,9 °C 8,4 °C 60 % 91 % 1024,3 hPa 0,0 l/m² 6,1 km/h (2 Bft) W-SW 240 ° 0 min 0 W/m² 7,0 °C 8,4 °C 11,3 km/h (2 Bft)
14.11.2024 18:35 20,9 °C 8,4 °C 60 % 91 % 1024,3 hPa 0,0 l/m² 7,6 km/h (2 Bft) W-SW 248 ° 0 min 0 W/m² 7,0 °C 7,5 °C 12,9 km/h (3 Bft)
14.11.2024 18:36 20,9 °C 8,4 °C 60 % 91 % 1024,2 hPa 0,0 l/m² 6,7 km/h (2 Bft) W 261 ° 0 min 0 W/m² 7,0 °C 8,2 °C 11,3 km/h (2 Bft)
14.11.2024 18:37 20,9 °C 8,4 °C 60 % 91 % 1024,3 hPa 0,0 l/m² 6,5 km/h (2 Bft) W 259 ° 0 min 0 W/m² 7,0 °C 8,3 °C 8,0 km/h (2 Bft)
14.11.2024 18:38 20,9 °C 8,4 °C 60 % 91 % 1024,3 hPa 0,0 l/m² 4,4 km/h (1 Bft) W-SW 245 ° 0 min 0 W/m² 7,0 °C 8,4 °C 8,0 km/h (2 Bft)
14.11.2024 18:39 20,9 °C 8,3 °C 60 % 91 % 1024,3 hPa 0,0 l/m² 6,9 km/h (2 Bft) W-SW 255 ° 0 min 0 W/m² 6,9 °C 7,9 °C 11,3 km/h (2 Bft)
14.11.2024 18:40 20,9 °C 8,4 °C 61 % 91 % 1024,3 hPa 0,0 l/m² 6,9 km/h (2 Bft) W 263 ° 0 min 0 W/m² 7,0 °C 8,0 °C 11,3 km/h (2 Bft)
14.11.2024 18:41 20,9 °C 8,3 °C 60 % 91 % 1024,4 hPa 0,0 l/m² 9,1 km/h (2 Bft) W 265 ° 0 min 0 W/m² 6,9 °C 6,3 °C 12,9 km/h (3 Bft)
14.11.2024 18:42 20,9 °C 8,3 °C 61 % 91 % 1024,3 hPa 0,0 l/m² 7,1 km/h (2 Bft) W-NW 291 ° 0 min 0 W/m² 6,9 °C 7,8 °C 14,5 km/h (3 Bft)
14.11.2024 18:43 20,9 °C 8,3 °C 61 % 91 % 1024,4 hPa 0,0 l/m² 9,2 km/h (2 Bft) W-SW 255 ° 0 min 0 W/m² 6,9 °C 6,2 °C 12,9 km/h (3 Bft)
14.11.2024 18:44 20,9 °C 8,3 °C 61 % 91 % 1024,3 hPa 0,0 l/m² 7,5 km/h (2 Bft) W 259 ° 0 min 0 W/m² 6,9 °C 7,4 °C 11,3 km/h (2 Bft)
14.11.2024 18:45 20,9 °C 8,3 °C 61 % 91 % 1024,3 hPa 0,0 l/m² 11,3 km/h (2 Bft) W-SW 258 ° 0 min 0 W/m² 6,9 °C 4,9 °C 11,3 km/h (2 Bft)
14.11.2024 18:46 20,9 °C 8,4 °C 61 % 91 % 1024,3 hPa 0,0 l/m² 8,5 km/h (2 Bft) W-SW 257 ° 0 min 0 W/m² 7,0 °C 6,8 °C 12,9 km/h (3 Bft)
14.11.2024 18:47 20,9 °C 8,3 °C 61 % 91 % 1024,3 hPa 0,0 l/m² 8,0 km/h (2 Bft) W-SW 247 ° 0 min 0 W/m² 6,9 °C 7,1 °C 11,3 km/h (2 Bft)
14.11.2024 18:48 20,9 °C 8,4 °C 61 % 91 % 1024,4 hPa 0,0 l/m² 9,5 km/h (2 Bft) W-SW 249 ° 0 min 0 W/m² 7,0 °C 6,1 °C 12,9 km/h (3 Bft)
14.11.2024 18:49 20,9 °C 8,4 °C 61 % 91 % 1024,3 hPa 0,0 l/m² 8,1 km/h (2 Bft) W-SW 257 ° 0 min 0 W/m² 7,0 °C 7,1 °C 11,3 km/h (2 Bft)
14.11.2024 18:50 20,9 °C 8,4 °C 61 % 91 % 1024,3 hPa 0,0 l/m² 8,6 km/h (2 Bft) W-SW 242 ° 0 min 0 W/m² 7,0 °C 6,7 °C 12,9 km/h (3 Bft)
14.11.2024 18:51 20,9 °C 8,4 °C 61 % 91 % 1024,4 hPa 0,0 l/m² 9,5 km/h (2 Bft) W-SW 245 ° 0 min 0 W/m² 7,0 °C 6,1 °C 14,5 km/h (3 Bft)
14.11.2024 18:52 20,9 °C 8,3 °C 61 % 91 % 1024,3 hPa 0,0 l/m² 9,5 km/h (2 Bft) W-SW 250 ° 0 min 0 W/m² 6,9 °C 6,0 °C 14,5 km/h (3 Bft)
14.11.2024 18:53 20,9 °C 8,4 °C 61 % 91 % 1024,4 hPa 0,0 l/m² 9,9 km/h (2 Bft) W-SW 250 ° 0 min 0 W/m² 7,0 °C 5,9 °C 12,9 km/h (3 Bft)
14.11.2024 18:54 20,9 °C 8,3 °C 61 % 91 % 1024,3 hPa 0,0 l/m² 9,3 km/h (2 Bft) W-SW 255 ° 0 min 0 W/m² 6,9 °C 6,2 °C 14,5 km/h (3 Bft)
14.11.2024 18:55 20,9 °C 8,3 °C 61 % 91 % 1024,3 hPa 0,0 l/m² 10,5 km/h (2 Bft) W-SW 238 ° 0 min 0 W/m² 6,9 °C 5,4 °C 12,9 km/h (3 Bft)
14.11.2024 18:56 20,9 °C 8,3 °C 61 % 91 % 1024,4 hPa 0,0 l/m² 10,6 km/h (2 Bft) W-SW 240 ° 0 min 0 W/m² 6,9 °C 5,4 °C 16,1 km/h (3 Bft)
14.11.2024 18:57 20,9 °C 8,3 °C 61 % 91 % 1024,4 hPa 0,0 l/m² 11,7 km/h (2 Bft) W-SW 249 ° 0 min 0 W/m² 6,9 °C 4,7 °C 16,1 km/h (3 Bft)
14.11.2024 18:58 20,9 °C 8,3 °C 61 % 92 % 1024,4 hPa 0,0 l/m² 10,7 km/h (2 Bft) W 263 ° 0 min 0 W/m² 7,1 °C 5,3 °C 14,5 km/h (3 Bft)
14.11.2024 18:59 20,9 °C 8,3 °C 61 % 92 % 1024,3 hPa 0,0 l/m² 10,5 km/h (2 Bft) W 271 ° 0 min 0 W/m² 7,1 °C 5,4 °C 16,1 km/h (3 Bft)
14.11.2024 19:00 20,9 °C 8,3 °C 61 % 92 % 1024,4 hPa 0,0 l/m² 8,3 km/h (2 Bft) W-SW 258 ° 0 min 0 W/m² 7,1 °C 6,9 °C 12,9 km/h (3 Bft)
14.11.2024 19:01 20,9 °C 8,3 °C 61 % 92 % 1024,4 hPa 0,0 l/m² 9,1 km/h (2 Bft) W-SW 258 ° 0 min 0 W/m² 7,1 °C 6,3 °C 12,9 km/h (3 Bft)
14.11.2024 19:02 20,9 °C 8,3 °C 61 % 92 % 1024,4 hPa 0,0 l/m² 10,2 km/h (2 Bft) W-NW 283 ° 0 min 0 W/m² 7,1 °C 5,6 °C 12,9 km/h (3 Bft)
14.11.2024 19:03 20,9 °C 8,3 °C 61 % 92 % 1024,4 hPa 0,0 l/m² 6,9 km/h (2 Bft) W-SW 254 ° 0 min 0 W/m² 7,1 °C 7,9 °C 9,7 km/h (2 Bft)
14.11.2024 19:04 20,9 °C 8,3 °C 62 % 92 % 1024,3 hPa 0,0 l/m² 7,9 km/h (2 Bft) W-SW 244 ° 0 min 0 W/m² 7,1 °C 7,1 °C 12,9 km/h (3 Bft)
14.11.2024 19:05 20,9 °C 8,3 °C 61 % 92 % 1024,4 hPa 0,0 l/m² 7,7 km/h (2 Bft) W-SW 250 ° 0 min 0 W/m² 7,1 °C 7,3 °C 12,9 km/h (3 Bft)
14.11.2024 19:06 20,9 °C 8,3 °C 62 % 92 % 1024,4 hPa 0,0 l/m² 9,9 km/h (2 Bft) W 261 ° 0 min 0 W/m² 7,1 °C 5,8 °C 12,9 km/h (3 Bft)
14.11.2024 19:07 20,9 °C 8,3 °C 62 % 92 % 1024,3 hPa 0,0 l/m² 10,7 km/h (2 Bft) W-SW 257 ° 0 min 0 W/m² 7,1 °C 5,3 °C 16,1 km/h (3 Bft)
14.11.2024 19:08 20,9 °C 8,3 °C 62 % 92 % 1024,4 hPa 0,0 l/m² 9,5 km/h (2 Bft) W-SW 249 ° 0 min 0 W/m² 7,1 °C 6,0 °C 14,5 km/h (3 Bft)
14.11.2024 19:09 21,0 °C 8,3 °C 62 % 92 % 1024,3 hPa 0,0 l/m² 10,2 km/h (2 Bft) W 262 ° 0 min 0 W/m² 7,1 °C 5,6 °C 12,9 km/h (3 Bft)
14.11.2024 19:10 20,9 °C 8,3 °C 62 % 92 % 1024,5 hPa 0,0 l/m² 8,1 km/h (2 Bft) W-NW 299 ° 0 min 0 W/m² 7,1 °C 7,0 °C 12,9 km/h (3 Bft)
14.11.2024 19:11 20,9 °C 8,3 °C 61 % 92 % 1024,4 hPa 0,0 l/m² 8,9 km/h (2 Bft) W 280 ° 0 min 0 W/m² 7,1 °C 6,4 °C 11,3 km/h (2 Bft)
14.11.2024 19:12 21,0 °C 8,3 °C 62 % 92 % 1024,4 hPa 0,0 l/m² 6,0 km/h (2 Bft) W-SW 248 ° 0 min 0 W/m² 7,1 °C 8,3 °C 12,9 km/h (3 Bft)
14.11.2024 19:13 20,9 °C 8,3 °C 62 % 92 % 1024,3 hPa 0,0 l/m² 6,6 km/h (2 Bft) W 266 ° 0 min 0 W/m² 7,1 °C 8,2 °C 9,7 km/h (2 Bft)
14.11.2024 19:14 20,9 °C 8,3 °C 62 % 92 % 1024,4 hPa 0,0 l/m² 7,6 km/h (2 Bft) W 270 ° 0 min 0 W/m² 7,1 °C 7,4 °C 12,9 km/h (3 Bft)
14.11.2024 19:15 20,9 °C 8,3 °C 62 % 92 % 1024,3 hPa 0,0 l/m² 5,2 km/h (1 Bft) W 265 ° 0 min 0 W/m² 7,1 °C 8,3 °C 9,7 km/h (2 Bft)
14.11.2024 19:16 20,9 °C 8,2 °C 62 % 92 % 1024,3 hPa 0,0 l/m² 6,9 km/h (2 Bft) W-SW 252 ° 0 min 0 W/m² 7,0 °C 7,8 °C 9,7 km/h (2 Bft)
14.11.2024 19:17 20,9 °C 8,3 °C 62 % 92 % 1024,3 hPa 0,0 l/m² 6,9 km/h (2 Bft) W-SW 257 ° 0 min 0 W/m² 7,1 °C 7,9 °C 11,3 km/h (2 Bft)
14.11.2024 19:18 20,9 °C 8,2 °C 62 % 92 % 1024,4 hPa 0,0 l/m² 5,7 km/h (2 Bft) W 269 ° 0 min 0 W/m² 7,0 °C 8,2 °C 9,7 km/h (2 Bft)
14.11.2024 19:19 20,9 °C 8,3 °C 62 % 92 % 1024,4 hPa 0,0 l/m² 4,2 km/h (1 Bft) W 277 ° 0 min 0 W/m² 7,1 °C 8,3 °C 6,4 km/h (2 Bft)
14.11.2024 19:20 20,9 °C 8,2 °C 62 % 92 % 1024,3 hPa 0,0 l/m² 5,4 km/h (2 Bft) W 272 ° 0 min 0 W/m² 7,0 °C 8,2 °C 9,7 km/h (2 Bft)
14.11.2024 19:21 20,9 °C 8,3 °C 62 % 92 % 1024,4 hPa 0,0 l/m² 7,1 km/h (2 Bft) W 267 ° 0 min 0 W/m² 7,1 °C 7,8 °C 11,3 km/h (2 Bft)
14.11.2024 19:22 21,0 °C 8,2 °C 62 % 92 % 1024,3 hPa 0,0 l/m² 6,4 km/h (2 Bft) W 275 ° 0 min 0 W/m² 7,0 °C 8,2 °C 11,3 km/h (2 Bft)
14.11.2024 19:23 20,9 °C 8,2 °C 62 % 92 % 1024,3 hPa 0,0 l/m² 7,3 km/h (2 Bft) W 269 ° 0 min 0 W/m² 7,0 °C 7,5 °C 11,3 km/h (2 Bft)
14.11.2024 19:24 21,0 °C 8,2 °C 62 % 92 % 1024,4 hPa 0,0 l/m² 7,5 km/h (2 Bft) W-SW 254 ° 0 min 0 W/m² 7,0 °C 7,3 °C 11,3 km/h (2 Bft)
14.11.2024 19:25 20,9 °C 8,2 °C 62 % 92 % 1024,3 hPa 0,0 l/m² 4,8 km/h (1 Bft) W 263 ° 0 min 0 W/m² 7,0 °C 8,2 °C 6,4 km/h (2 Bft)
14.11.2024 19:26 21,0 °C 8,2 °C 62 % 92 % 1024,5 hPa 0,0 l/m² 4,8 km/h (1 Bft) W-SW 255 ° 0 min 0 W/m² 7,0 °C 8,2 °C 8,0 km/h (2 Bft)
14.11.2024 19:27 21,0 °C 8,2 °C 62 % 92 % 1024,4 hPa 0,0 l/m² 6,2 km/h (2 Bft) W-SW 254 ° 0 min 0 W/m² 7,0 °C 8,2 °C 8,0 km/h (2 Bft)
14.11.2024 19:28 21,0 °C 8,2 °C 62 % 92 % 1024,4 hPa 0,0 l/m² 7,6 km/h (2 Bft) W-SW 254 ° 0 min 0 W/m² 7,0 °C 7,3 °C 9,7 km/h (2 Bft)
14.11.2024 19:29 21,0 °C 8,2 °C 62 % 92 % 1024,4 hPa 0,0 l/m² 4,6 km/h (1 Bft) W-SW 248 ° 0 min 0 W/m² 7,0 °C 8,2 °C 8,0 km/h (2 Bft)
14.11.2024 19:30 21,0 °C 8,2 °C 62 % 92 % 1024,4 hPa 0,0 l/m² 5,6 km/h (2 Bft) W-SW 252 ° 0 min 0 W/m² 7,0 °C 8,2 °C 11,3 km/h (2 Bft)
14.11.2024 19:31 21,0 °C 8,2 °C 62 % 92 % 1024,4 hPa 0,0 l/m² 7,0 km/h (2 Bft) W-SW 258 ° 0 min 0 W/m² 7,0 °C 7,7 °C 12,9 km/h (3 Bft)
14.11.2024 19:32 20,9 °C 8,2 °C 62 % 92 % 1024,4 hPa 0,0 l/m² 5,8 km/h (2 Bft) W 265 ° 0 min 0 W/m² 7,0 °C 8,2 °C 11,3 km/h (2 Bft)
14.11.2024 19:33 21,0 °C 8,2 °C 62 % 92 % 1024,4 hPa 0,0 l/m² 5,0 km/h (1 Bft) W-SW 256 ° 0 min 0 W/m² 7,0 °C 8,2 °C 6,4 km/h (2 Bft)
14.11.2024 19:34 21,0 °C 8,2 °C 62 % 92 % 1024,4 hPa 0,0 l/m² 5,6 km/h (2 Bft) W 261 ° 0 min 0 W/m² 7,0 °C 8,2 °C 8,0 km/h (2 Bft)
14.11.2024 19:35 21,0 °C 8,2 °C 62 % 92 % 1024,5 hPa 0,0 l/m² 4,3 km/h (1 Bft) W-SW 246 ° 0 min 0 W/m² 7,0 °C 8,2 °C 9,7 km/h (2 Bft)
14.11.2024 19:36 21,0 °C 8,2 °C 62 % 92 % 1024,4 hPa 0,0 l/m² 6,1 km/h (2 Bft) W 264 ° 0 min 0 W/m² 7,0 °C 8,2 °C 8,0 km/h (2 Bft)
14.11.2024 19:37 21,1 °C 8,2 °C 62 % 92 % 1024,4 hPa 0,0 l/m² 5,1 km/h (1 Bft) W 263 ° 0 min 0 W/m² 7,0 °C 8,2 °C 6,4 km/h (2 Bft)
14.11.2024 19:38 21,0 °C 8,2 °C 62 % 92 % 1024,6 hPa 0,0 l/m² 5,4 km/h (2 Bft) W 259 ° 0 min 0 W/m² 7,0 °C 8,2 °C 11,3 km/h (2 Bft)
14.11.2024 19:39 21,0 °C 8,2 °C 62 % 93 % 1024,6 hPa 0,0 l/m² 5,2 km/h (1 Bft) W 259 ° 0 min 0 W/m² 7,1 °C 8,2 °C 9,7 km/h (2 Bft)
14.11.2024 19:40 21,1 °C 8,2 °C 62 % 93 % 1024,6 hPa 0,0 l/m² 4,6 km/h (1 Bft) W 267 ° 0 min 0 W/m² 7,1 °C 8,2 °C 9,7 km/h (2 Bft)
14.11.2024 19:41 21,1 °C 8,2 °C 62 % 93 % 1024,6 hPa 0,0 l/m² 4,8 km/h (1 Bft) W 267 ° 0 min 0 W/m² 7,1 °C 8,2 °C 6,4 km/h (2 Bft)
14.11.2024 19:42 21,1 °C 8,2 °C 62 % 93 % 1024,6 hPa 0,0 l/m² 5,4 km/h (2 Bft) W 260 ° 0 min 0 W/m² 7,1 °C 8,2 °C 9,7 km/h (2 Bft)
14.11.2024 19:43 21,1 °C 8,2 °C 62 % 93 % 1024,6 hPa 0,0 l/m² 5,4 km/h (2 Bft) W 269 ° 0 min 0 W/m² 7,1 °C 8,2 °C 9,7 km/h (2 Bft)
14.11.2024 19:44 21,1 °C 8,2 °C 62 % 93 % 1024,6 hPa 0,0 l/m² 7,4 km/h (2 Bft) W 263 ° 0 min 0 W/m² 7,1 °C 7,4 °C 11,3 km/h (2 Bft)
14.11.2024 19:45 21,1 °C 8,2 °C 62 % 93 % 1024,6 hPa 0,0 l/m² 8,0 km/h (2 Bft) W 271 ° 0 min 0 W/m² 7,1 °C 7,0 °C 11,3 km/h (2 Bft)
14.11.2024 19:46 21,1 °C 8,2 °C 62 % 93 % 1024,7 hPa 0,0 l/m² 7,6 km/h (2 Bft) W 267 ° 0 min 0 W/m² 7,1 °C 7,3 °C 12,9 km/h (3 Bft)
14.11.2024 19:47 21,1 °C 8,2 °C 62 % 93 % 1024,6 hPa 0,0 l/m² 8,1 km/h (2 Bft) W-NW 286 ° 0 min 0 W/m² 7,1 °C 6,9 °C 11,3 km/h (2 Bft)
14.11.2024 19:48 21,1 °C 8,2 °C 62 % 93 % 1024,6 hPa 0,0 l/m² 5,9 km/h (2 Bft) W 271 ° 0 min 0 W/m² 7,1 °C 8,2 °C 9,7 km/h (2 Bft)
14.11.2024 19:49 21,1 °C 8,2 °C 62 % 93 % 1024,6 hPa 0,0 l/m² 6,6 km/h (2 Bft) W 266 ° 0 min 0 W/m² 7,1 °C 8,1 °C 12,9 km/h (3 Bft)
14.11.2024 19:50 21,1 °C 8,2 °C 62 % 93 % 1024,6 hPa 0,0 l/m² 6,9 km/h (2 Bft) W 269 ° 0 min 0 W/m² 7,1 °C 7,8 °C 12,9 km/h (3 Bft)
14.11.2024 19:51 21,1 °C 8,2 °C 62 % 93 % 1024,6 hPa 0,0 l/m² 5,8 km/h (2 Bft) N-NW 328 ° 0 min 0 W/m² 7,1 °C 8,2 °C 9,7 km/h (2 Bft)
14.11.2024 19:52 21,1 °C 8,2 °C 62 % 93 % 1024,6 hPa 0,0 l/m² 4,4 km/h (1 Bft) W 272 ° 0 min 0 W/m² 7,1 °C 8,2 °C 9,7 km/h (2 Bft)
14.11.2024 19:53 21,1 °C 8,2 °C 62 % 93 % 1024,6 hPa 0,0 l/m² 1,3 km/h (1 Bft) W 261 ° 0 min 0 W/m² 7,1 °C 8,2 °C 4,8 km/h (1 Bft)
14.11.2024 19:54 21,1 °C 8,2 °C 62 % 93 % 1024,6 hPa 0,2 l/m² 0,7 km/h (0 Bft) W 267 ° 0 min 0 W/m² 7,1 °C 8,2 °C 3,2 km/h (1 Bft)
14.11.2024 19:55 21,1 °C 8,2 °C 62 % 93 % 1024,6 hPa 0,0 l/m² 1,0 km/h (0 Bft) W-NW 286 ° 0 min 0 W/m² 7,1 °C 8,2 °C 3,2 km/h (1 Bft)
14.11.2024 19:56 21,1 °C 8,2 °C 62 % 93 % 1024,5 hPa 0,0 l/m² 1,7 km/h (1 Bft) W-NW 302 ° 0 min 0 W/m² 7,1 °C 8,2 °C 4,8 km/h (1 Bft)
14.11.2024 19:57 21,1 °C 8,2 °C 62 % 93 % 1024,4 hPa 0,0 l/m² 2,2 km/h (1 Bft) W 274 ° 0 min 0 W/m² 7,1 °C 8,2 °C 4,8 km/h (1 Bft)
14.11.2024 19:58 21,2 °C 8,2 °C 62 % 93 % 1024,5 hPa 0,0 l/m² 0,3 km/h (0 Bft) W 275 ° 0 min 0 W/m² 7,1 °C 8,2 °C 1,6 km/h (1 Bft)
14.11.2024 19:59 21,2 °C 8,2 °C 62 % 93 % 1024,6 hPa 0,0 l/m² 0,3 km/h (0 Bft) W 275 ° 0 min 0 W/m² 7,1 °C 8,2 °C 1,6 km/h (1 Bft)
14.11.2024 20:00 21,2 °C 8,2 °C 62 % 93 % 1024,5 hPa 0,0 l/m² 0,5 km/h (0 Bft) W 275 ° 0 min 0 W/m² 7,1 °C 8,2 °C 1,6 km/h (1 Bft)
14.11.2024 20:01 21,1 °C 8,2 °C 62 % 93 % 1024,6 hPa 0,0 l/m² 0,3 km/h (0 Bft) W 277 ° 0 min 0 W/m² 7,1 °C 8,2 °C 1,6 km/h (1 Bft)
14.11.2024 20:02 21,2 °C 8,2 °C 62 % 93 % 1024,5 hPa 0,0 l/m² 0,4 km/h (0 Bft) W 277 ° 0 min 0 W/m² 7,1 °C 8,2 °C 1,6 km/h (1 Bft)
14.11.2024 20:03 21,2 °C 8,2 °C 62 % 93 % 1024,6 hPa 0,0 l/m² 0,0 km/h (0 Bft) W 277 ° 0 min 0 W/m² 7,1 °C 8,2 °C 0,0 km/h (0 Bft)
14.11.2024 20:04 21,2 °C 8,2 °C 62 % 93 % 1024,5 hPa 0,0 l/m² 0,0 km/h (0 Bft) W 278 ° 0 min 0 W/m² 7,1 °C 8,2 °C 0,0 km/h (0 Bft)
14.11.2024 20:05 21,2 °C 8,2 °C 62 % 93 % 1024,6 hPa 0,0 l/m² 0,7 km/h (0 Bft) W-NW 290 ° 0 min 0 W/m² 7,1 °C 8,2 °C 3,2 km/h (1 Bft)
14.11.2024 20:06 21,2 °C 8,2 °C 62 % 93 % 1024,6 hPa 0,0 l/m² 0,3 km/h (0 Bft) W-NW 290 ° 0 min 0 W/m² 7,1 °C 8,2 °C 1,6 km/h (1 Bft)
14.11.2024 20:07 21,2 °C 8,2 °C 62 % 93 % 1024,6 hPa 0,0 l/m² 1,5 km/h (1 Bft) W-NW 290 ° 0 min 0 W/m² 7,1 °C 8,2 °C 3,2 km/h (1 Bft)
14.11.2024 20:08 21,2 °C 8,2 °C 62 % 93 % 1024,6 hPa 0,0 l/m² 4,2 km/h (1 Bft) NW 318 ° 0 min 0 W/m² 7,1 °C 8,2 °C 4,8 km/h (1 Bft)
14.11.2024 20:09 21,2 °C 8,2 °C 62 % 93 % 1024,6 hPa 0,0 l/m² 3,7 km/h (1 Bft) W-NW 283 ° 0 min 0 W/m² 7,1 °C 8,2 °C 4,8 km/h (1 Bft)
14.11.2024 20:10 21,2 °C 8,2 °C 62 % 93 % 1024,6 hPa 0,0 l/m² 2,8 km/h (1 Bft) W-NW 302 ° 0 min 0 W/m² 7,1 °C 8,2 °C 4,8 km/h (1 Bft)
14.11.2024 20:11 21,2 °C 8,2 °C 62 % 93 % 1024,6 hPa 0,0 l/m² 1,2 km/h (1 Bft) W-NW 288 ° 0 min 0 W/m² 7,1 °C 8,2 °C 3,2 km/h (1 Bft)
14.11.2024 20:12 21,2 °C 8,2 °C 62 % 93 % 1024,6 hPa 0,0 l/m² 0,8 km/h (0 Bft) W 278 ° 0 min 0 W/m² 7,1 °C 8,2 °C 4,8 km/h (1 Bft)
14.11.2024 20:13 21,2 °C 8,2 °C 62 % 93 % 1024,5 hPa 0,0 l/m² 1,5 km/h (1 Bft) W 275 ° 0 min 0 W/m² 7,1 °C 8,2 °C 4,8 km/h (1 Bft)
14.11.2024 20:14 21,2 °C 8,2 °C 62 % 93 % 1024,6 hPa 0,0 l/m² 1,3 km/h (1 Bft) W 278 ° 0 min 0 W/m² 7,1 °C 8,2 °C 3,2 km/h (1 Bft)
14.11.2024 20:15 21,2 °C 8,2 °C 62 % 93 % 1024,6 hPa 0,2 l/m² 2,2 km/h (1 Bft) W-NW 290 ° 0 min 0 W/m² 7,1 °C 8,2 °C 3,2 km/h (1 Bft)
14.11.2024 20:16 21,2 °C 8,2 °C 62 % 93 % 1024,6 hPa 0,0 l/m² 2,6 km/h (1 Bft) NW 319 ° 0 min 0 W/m² 7,1 °C 8,2 °C 4,8 km/h (1 Bft)
14.11.2024 20:17 21,2 °C 8,2 °C 62 % 93 % 1024,7 hPa 0,0 l/m² 3,2 km/h (1 Bft) NW 325 ° 0 min 0 W/m² 7,1 °C 8,2 °C 6,4 km/h (2 Bft)
14.11.2024 20:18 21,2 °C 8,2 °C 62 % 93 % 1024,6 hPa 0,0 l/m² 2,5 km/h (1 Bft) NW 312 ° 0 min 0 W/m² 7,1 °C 8,2 °C 4,8 km/h (1 Bft)
14.11.2024 20:19 21,2 °C 8,2 °C 62 % 93 % 1024,6 hPa 0,0 l/m² 2,3 km/h (1 Bft) N-NW 336 ° 0 min 0 W/m² 7,1 °C 8,2 °C 4,8 km/h (1 Bft)
14.11.2024 20:20 21,2 °C 8,2 °C 62 % 93 % 1024,6 hPa 0,0 l/m² 1,0 km/h (0 Bft) W-SW 246 ° 0 min 0 W/m² 7,1 °C 8,2 °C 3,2 km/h (1 Bft)
14.11.2024 20:21 21,2 °C 8,2 °C 62 % 93 % 1024,4 hPa 0,0 l/m² 1,2 km/h (1 Bft) W-SW 257 ° 0 min 0 W/m² 7,1 °C 8,2 °C 4,8 km/h (1 Bft)
14.11.2024 20:22 21,2 °C 8,2 °C 62 % 93 % 1024,6 hPa 0,0 l/m² 3,2 km/h (1 Bft) W-SW 253 ° 0 min 0 W/m² 7,1 °C 8,2 °C 6,4 km/h (2 Bft)
14.11.2024 20:23 21,2 °C 8,2 °C 62 % 93 % 1024,5 hPa 0,0 l/m² 3,3 km/h (1 Bft) W-SW 254 ° 0 min 0 W/m² 7,1 °C 8,2 °C 6,4 km/h (2 Bft)
14.11.2024 20:24 21,2 °C 8,2 °C 62 % 93 % 1024,6 hPa 0,0 l/m² 4,3 km/h (1 Bft) W 275 ° 0 min 0 W/m² 7,1 °C 8,2 °C 11,3 km/h (2 Bft)
14.11.2024 20:25 21,2 °C 8,2 °C 62 % 93 % 1024,5 hPa 0,0 l/m² 9,7 km/h (2 Bft) W-NW 286 ° 0 min 0 W/m² 7,1 °C 5,8 °C 14,5 km/h (3 Bft)
14.11.2024 20:26 21,2 °C 8,2 °C 62 % 93 % 1024,5 hPa 0,0 l/m² 7,4 km/h (2 Bft) W-SW 240 ° 0 min 0 W/m² 7,1 °C 7,4 °C 11,3 km/h (2 Bft)
14.11.2024 20:27 21,2 °C 8,2 °C 62 % 93 % 1024,5 hPa 0,0 l/m² 8,4 km/h (2 Bft) W 278 ° 0 min 0 W/m² 7,1 °C 6,7 °C 11,3 km/h (2 Bft)
14.11.2024 20:28 21,2 °C 8,2 °C 62 % 93 % 1024,5 hPa 0,0 l/m² 6,1 km/h (2 Bft) W 280 ° 0 min 0 W/m² 7,1 °C 8,2 °C 11,3 km/h (2 Bft)
14.11.2024 20:29 21,2 °C 8,2 °C 62 % 93 % 1024,4 hPa 0,0 l/m² 6,9 km/h (2 Bft) W 274 ° 0 min 0 W/m² 7,1 °C 7,8 °C 14,5 km/h (3 Bft)
14.11.2024 20:30 21,2 °C 8,2 °C 62 % 93 % 1024,4 hPa 0,0 l/m² 7,0 km/h (2 Bft) W 259 ° 0 min 0 W/m² 7,1 °C 7,7 °C 12,9 km/h (3 Bft)
14.11.2024 20:31 21,2 °C 8,2 °C 61 % 93 % 1024,5 hPa 0,0 l/m² 5,5 km/h (2 Bft) W-SW 251 ° 0 min 0 W/m² 7,1 °C 8,2 °C 6,4 km/h (2 Bft)
14.11.2024 20:32 21,2 °C 8,2 °C 61 % 93 % 1024,4 hPa 0,0 l/m² 3,7 km/h (1 Bft) W-SW 256 ° 0 min 0 W/m² 7,1 °C 8,2 °C 6,4 km/h (2 Bft)
14.11.2024 20:33 21,2 °C 8,1 °C 61 % 93 % 1024,4 hPa 0,0 l/m² 5,2 km/h (1 Bft) W-SW 252 ° 0 min 0 W/m² 7,0 °C 8,1 °C 9,7 km/h (2 Bft)
14.11.2024 20:34 21,2 °C 8,2 °C 61 % 93 % 1024,4 hPa 0,0 l/m² 4,8 km/h (1 Bft) W 267 ° 0 min 0 W/m² 7,1 °C 8,2 °C 8,0 km/h (2 Bft)
14.11.2024 20:35 21,2 °C 8,2 °C 61 % 93 % 1024,4 hPa 0,0 l/m² 6,3 km/h (2 Bft) W 269 ° 0 min 0 W/m² 7,1 °C 8,2 °C 9,7 km/h (2 Bft)
14.11.2024 20:36 21,2 °C 8,1 °C 61 % 93 % 1024,4 hPa 0,0 l/m² 4,7 km/h (1 Bft) W 270 ° 0 min 0 W/m² 7,0 °C 8,1 °C 6,4 km/h (2 Bft)
14.11.2024 20:37 21,3 °C 8,1 °C 61 % 93 % 1024,4 hPa 0,0 l/m² 6,0 km/h (2 Bft) W-SW 254 ° 0 min 0 W/m² 7,0 °C 8,1 °C 9,7 km/h (2 Bft)
14.11.2024 20:38 21,2 °C 8,1 °C 61 % 93 % 1024,4 hPa 0,0 l/m² 3,0 km/h (1 Bft) W 259 ° 0 min 0 W/m² 7,0 °C 8,1 °C 4,8 km/h (1 Bft)
14.11.2024 20:39 21,2 °C 8,1 °C 61 % 93 % 1024,4 hPa 0,0 l/m² 6,3 km/h (2 Bft) W-SW 241 ° 0 min 0 W/m² 7,0 °C 8,1 °C 8,0 km/h (2 Bft)
14.11.2024 20:40 21,2 °C 8,1 °C 61 % 93 % 1024,4 hPa 0,0 l/m² 5,2 km/h (1 Bft) W-SW 248 ° 0 min 0 W/m² 7,0 °C 8,1 °C 6,4 km/h (2 Bft)
14.11.2024 20:41 21,2 °C 8,1 °C 61 % 93 % 1024,4 hPa 0,0 l/m² 5,6 km/h (2 Bft) W-SW 246 ° 0 min 0 W/m² 7,0 °C 8,1 °C 9,7 km/h (2 Bft)
14.11.2024 20:42 21,2 °C 8,1 °C 61 % 93 % 1024,4 hPa 0,0 l/m² 5,9 km/h (2 Bft) W-SW 257 ° 0 min 0 W/m² 7,0 °C 8,1 °C 6,4 km/h (2 Bft)
14.11.2024 20:43 21,2 °C 8,1 °C 61 % 93 % 1024,5 hPa 0,0 l/m² 6,0 km/h (2 Bft) W-SW 251 ° 0 min 0 W/m² 7,0 °C 8,1 °C 8,0 km/h (2 Bft)
14.11.2024 20:44 21,2 °C 8,1 °C 60 % 93 % 1024,4 hPa 0,0 l/m² 6,3 km/h (2 Bft) W-SW 252 ° 0 min 0 W/m² 7,0 °C 8,1 °C 9,7 km/h (2 Bft)
14.11.2024 20:45 21,2 °C 8,1 °C 61 % 93 % 1024,4 hPa 0,0 l/m² 7,1 km/h (2 Bft) W-SW 245 ° 0 min 0 W/m² 7,0 °C 7,6 °C 11,3 km/h (2 Bft)
14.11.2024 20:46 21,2 °C 8,1 °C 61 % 93 % 1024,5 hPa 0,0 l/m² 6,8 km/h (2 Bft) W-SW 245 ° 0 min 0 W/m² 7,0 °C 7,8 °C 9,7 km/h (2 Bft)
14.11.2024 20:47 21,2 °C 8,1 °C 60 % 93 % 1024,5 hPa 0,0 l/m² 7,2 km/h (2 Bft) W-SW 254 ° 0 min 0 W/m² 7,0 °C 7,5 °C 11,3 km/h (2 Bft)
14.11.2024 20:48 21,2 °C 8,0 °C 60 % 93 % 1024,4 hPa 0,0 l/m² 5,4 km/h (2 Bft) W-SW 241 ° 0 min 0 W/m² 6,9 °C 8,0 °C 8,0 km/h (2 Bft)
14.11.2024 20:49 21,2 °C 8,0 °C 60 % 93 % 1024,5 hPa 0,0 l/m² 6,0 km/h (2 Bft) W-SW 248 ° 0 min 0 W/m² 6,9 °C 8,0 °C 8,0 km/h (2 Bft)
14.11.2024 20:50 21,2 °C 8,0 °C 60 % 93 % 1024,5 hPa 0,2 l/m² 5,9 km/h (2 Bft) W-SW 250 ° 0 min 0 W/m² 6,9 °C 8,0 °C 8,0 km/h (2 Bft)
14.11.2024 20:51 21,2 °C 8,0 °C 60 % 93 % 1024,4 hPa 0,0 l/m² 5,2 km/h (1 Bft) W-SW 242 ° 0 min 0 W/m² 6,9 °C 8,0 °C 6,4 km/h (2 Bft)
14.11.2024 20:52 21,2 °C 8,0 °C 60 % 93 % 1024,4 hPa 0,0 l/m² 5,9 km/h (2 Bft) SW 229 ° 0 min 0 W/m² 6,9 °C 8,0 °C 9,7 km/h (2 Bft)
14.11.2024 20:53 21,2 °C 8,0 °C 60 % 93 % 1024,5 hPa 0,0 l/m² 7,4 km/h (2 Bft) W-SW 254 ° 0 min 0 W/m² 6,9 °C 7,2 °C 11,3 km/h (2 Bft)
14.11.2024 20:54 21,2 °C 8,0 °C 60 % 93 % 1024,5 hPa 0,0 l/m² 7,3 km/h (2 Bft) W-SW 255 ° 0 min 0 W/m² 6,9 °C 7,3 °C 9,7 km/h (2 Bft)
14.11.2024 20:55 21,2 °C 8,0 °C 60 % 93 % 1024,6 hPa 0,0 l/m² 7,2 km/h (2 Bft) W-SW 254 ° 0 min 0 W/m² 6,9 °C 7,4 °C 9,7 km/h (2 Bft)
14.11.2024 20:56 21,2 °C 8,0 °C 60 % 93 % 1024,6 hPa 0,0 l/m² 6,4 km/h (2 Bft) W-SW 237 ° 0 min 0 W/m² 6,9 °C 8,0 °C 9,7 km/h (2 Bft)
14.11.2024 20:57 21,2 °C 8,0 °C 60 % 93 % 1024,6 hPa 0,0 l/m² 6,0 km/h (2 Bft) W-SW 254 ° 0 min 0 W/m² 6,9 °C 8,0 °C 8,0 km/h (2 Bft)
14.11.2024 20:58 21,2 °C 8,0 °C 60 % 93 % 1024,6 hPa 0,0 l/m² 6,0 km/h (2 Bft) W-SW 246 ° 0 min 0 W/m² 6,9 °C 8,0 °C 8,0 km/h (2 Bft)
14.11.2024 20:59 21,2 °C 8,0 °C 60 % 93 % 1024,6 hPa 0,0 l/m² 5,0 km/h (1 Bft) W-SW 251 ° 0 min 0 W/m² 6,9 °C 8,0 °C 6,4 km/h (2 Bft)
14.11.2024 21:00 21,2 °C 8,0 °C 60 % 93 % 1024,5 hPa 0,0 l/m² 4,2 km/h (1 Bft) W-SW 257 ° 0 min 0 W/m² 6,9 °C 8,0 °C 6,4 km/h (2 Bft)
14.11.2024 21:01 21,2 °C 8,0 °C 60 % 93 % 1024,6 hPa 0,0 l/m² 4,7 km/h (1 Bft) W 262 ° 0 min 0 W/m² 6,9 °C 8,0 °C 9,7 km/h (2 Bft)
14.11.2024 21:02 21,2 °C 8,0 °C 60 % 93 % 1024,5 hPa 0,0 l/m² 5,0 km/h (1 Bft) W-SW 249 ° 0 min 0 W/m² 6,9 °C 8,0 °C 9,7 km/h (2 Bft)
14.11.2024 21:03 21,2 °C 8,0 °C 60 % 93 % 1024,6 hPa 0,0 l/m² 5,5 km/h (2 Bft) W 261 ° 0 min 0 W/m² 6,9 °C 8,0 °C 9,7 km/h (2 Bft)
14.11.2024 21:04 21,1 °C 8,0 °C 60 % 93 % 1024,6 hPa 0,0 l/m² 4,8 km/h (1 Bft) W 261 ° 0 min 0 W/m² 6,9 °C 8,0 °C 6,4 km/h (2 Bft)
14.11.2024 21:05 21,2 °C 8,0 °C 60 % 93 % 1024,6 hPa 0,0 l/m² 3,8 km/h (1 Bft) W 260 ° 0 min 0 W/m² 6,9 °C 8,0 °C 6,4 km/h (2 Bft)
14.11.2024 21:06 21,1 °C 8,0 °C 60 % 93 % 1024,6 hPa 0,0 l/m² 4,6 km/h (1 Bft) W 263 ° 0 min 0 W/m² 6,9 °C 8,0 °C 6,4 km/h (2 Bft)
14.11.2024 21:07 21,2 °C 8,0 °C 60 % 93 % 1024,7 hPa 0,0 l/m² 2,9 km/h (1 Bft) W 259 ° 0 min 0 W/m² 6,9 °C 8,0 °C 4,8 km/h (1 Bft)
14.11.2024 21:08 21,2 °C 8,0 °C 60 % 93 % 1024,7 hPa 0,0 l/m² 5,7 km/h (2 Bft) W 261 ° 0 min 0 W/m² 6,9 °C 8,0 °C 6,4 km/h (2 Bft)
14.11.2024 21:09 21,2 °C 8,0 °C 60 % 93 % 1024,7 hPa 0,0 l/m² 7,8 km/h (2 Bft) W 265 ° 0 min 0 W/m² 6,9 °C 6,9 °C 12,9 km/h (3 Bft)
14.11.2024 21:10 21,2 °C 8,0 °C 60 % 93 % 1024,7 hPa 0,0 l/m² 8,0 km/h (2 Bft) W 271 ° 0 min 0 W/m² 6,9 °C 6,8 °C 11,3 km/h (2 Bft)
14.11.2024 21:11 21,1 °C 7,9 °C 60 % 93 % 1024,7 hPa 0,0 l/m² 4,8 km/h (1 Bft) W-SW 256 ° 0 min 0 W/m² 6,8 °C 7,9 °C 6,4 km/h (2 Bft)
14.11.2024 21:12 21,1 °C 8,0 °C 60 % 93 % 1024,7 hPa 0,0 l/m² 4,1 km/h (1 Bft) W-SW 258 ° 0 min 0 W/m² 6,9 °C 8,0 °C 6,4 km/h (2 Bft)
14.11.2024 21:13 21,2 °C 8,0 °C 60 % 93 % 1024,7 hPa 0,0 l/m² 5,9 km/h (2 Bft) W-SW 257 ° 0 min 0 W/m² 6,9 °C 8,0 °C 9,7 km/h (2 Bft)
14.11.2024 21:14 21,2 °C 8,0 °C 60 % 93 % 1024,7 hPa 0,0 l/m² 4,4 km/h (1 Bft) W 268 ° 0 min 0 W/m² 6,9 °C 8,0 °C 6,4 km/h (2 Bft)
14.11.2024 21:15 21,2 °C 7,9 °C 60 % 93 % 1024,7 hPa 0,0 l/m² 3,8 km/h (1 Bft) W 261 ° 0 min 0 W/m² 6,8 °C 7,9 °C 4,8 km/h (1 Bft)
14.11.2024 21:16 21,2 °C 7,9 °C 60 % 93 % 1024,7 hPa 0,0 l/m² 5,2 km/h (1 Bft) W 272 ° 0 min 0 W/m² 6,8 °C 7,9 °C 6,4 km/h (2 Bft)
14.11.2024 21:17 21,2 °C 7,9 °C 60 % 93 % 1024,7 hPa 0,0 l/m² 4,6 km/h (1 Bft) W-SW 255 ° 0 min 0 W/m² 6,8 °C 7,9 °C 6,4 km/h (2 Bft)
14.11.2024 21:18 21,1 °C 7,9 °C 60 % 93 % 1024,7 hPa 0,0 l/m² 4,1 km/h (1 Bft) W-SW 250 ° 0 min 0 W/m² 6,8 °C 7,9 °C 6,4 km/h (2 Bft)
14.11.2024 21:19 21,2 °C 7,9 °C 60 % 93 % 1024,7 hPa 0,0 l/m² 4,6 km/h (1 Bft) W 273 ° 0 min 0 W/m² 6,8 °C 7,9 °C 6,4 km/h (2 Bft)
14.11.2024 21:20 21,1 °C 7,9 °C 59 % 93 % 1024,8 hPa 0,0 l/m² 6,4 km/h (2 Bft) W 274 ° 0 min 0 W/m² 6,8 °C 7,9 °C 9,7 km/h (2 Bft)
14.11.2024 21:21 21,1 °C 7,9 °C 59 % 93 % 1024,7 hPa 0,0 l/m² 7,4 km/h (2 Bft) W 269 ° 0 min 0 W/m² 6,8 °C 7,1 °C 12,9 km/h (3 Bft)
14.11.2024 21:22 21,1 °C 7,9 °C 59 % 93 % 1024,7 hPa 0,0 l/m² 8,3 km/h (2 Bft) W 277 ° 0 min 0 W/m² 6,8 °C 6,4 °C 11,3 km/h (2 Bft)
14.11.2024 21:23 21,1 °C 7,9 °C 59 % 93 % 1024,6 hPa 0,0 l/m² 6,0 km/h (2 Bft) W 269 ° 0 min 0 W/m² 6,8 °C 7,9 °C 9,7 km/h (2 Bft)
14.11.2024 21:24 21,1 °C 7,9 °C 59 % 93 % 1024,7 hPa 0,0 l/m² 5,0 km/h (1 Bft) W 274 ° 0 min 0 W/m² 6,8 °C 7,9 °C 11,3 km/h (2 Bft)
14.11.2024 21:25 21,1 °C 7,9 °C 59 % 93 % 1024,7 hPa 0,0 l/m² 6,9 km/h (2 Bft) W 273 ° 0 min 0 W/m² 6,8 °C 7,5 °C 11,3 km/h (2 Bft)
14.11.2024 21:26 21,1 °C 7,9 °C 59 % 93 % 1024,8 hPa 0,0 l/m² 7,4 km/h (2 Bft) W-SW 257 ° 0 min 0 W/m² 6,8 °C 7,1 °C 11,3 km/h (2 Bft)
14.11.2024 21:27 21,1 °C 7,9 °C 59 % 93 % 1024,8 hPa 0,0 l/m² 6,2 km/h (2 Bft) W 269 ° 0 min 0 W/m² 6,8 °C 7,9 °C 9,7 km/h (2 Bft)
14.11.2024 21:28 21,1 °C 7,8 °C 59 % 93 % 1024,8 hPa 0,0 l/m² 4,1 km/h (1 Bft) W 274 ° 0 min 0 W/m² 6,7 °C 7,8 °C 4,8 km/h (1 Bft)
14.11.2024 21:29 21,1 °C 7,8 °C 59 % 93 % 1024,8 hPa 0,0 l/m² 1,6 km/h (1 Bft) W-NW 282 ° 0 min 0 W/m² 6,7 °C 7,8 °C 4,8 km/h (1 Bft)
14.11.2024 21:30 21,1 °C 7,9 °C 59 % 93 % 1024,8 hPa 0,0 l/m² 2,1 km/h (1 Bft) W 276 ° 0 min 0 W/m² 6,8 °C 7,9 °C 3,2 km/h (1 Bft)
14.11.2024 21:31 21,1 °C 7,8 °C 59 % 93 % 1024,7 hPa 0,0 l/m² 2,7 km/h (1 Bft) W 273 ° 0 min 0 W/m² 6,7 °C 7,8 °C 4,8 km/h (1 Bft)
14.11.2024 21:32 21,1 °C 7,9 °C 59 % 93 % 1024,8 hPa 0,0 l/m² 1,5 km/h (1 Bft) W 275 ° 0 min 0 W/m² 6,8 °C 7,9 °C 3,2 km/h (1 Bft)
14.11.2024 21:33 21,1 °C 7,9 °C 59 % 93 % 1024,8 hPa 0,0 l/m² 1,3 km/h (1 Bft) W 271 ° 0 min 0 W/m² 6,8 °C 7,9 °C 3,2 km/h (1 Bft)
14.11.2024 21:34 21,1 °C 7,9 °C 59 % 93 % 1024,9 hPa 0,0 l/m² 0,7 km/h (0 Bft) W 271 ° 0 min 0 W/m² 6,8 °C 7,9 °C 3,2 km/h (1 Bft)
14.11.2024 21:35 21,1 °C 7,9 °C 59 % 93 % 1024,9 hPa 0,0 l/m² 1,2 km/h (1 Bft) W-NW 284 ° 0 min 0 W/m² 6,8 °C 7,9 °C 4,8 km/h (1 Bft)
14.11.2024 21:36 21,1 °C 7,9 °C 59 % 93 % 1024,9 hPa 0,0 l/m² 3,9 km/h (1 Bft) W 270 ° 0 min 0 W/m² 6,8 °C 7,9 °C 6,4 km/h (2 Bft)
14.11.2024 21:37 21,1 °C 7,9 °C 59 % 93 % 1024,8 hPa 0,0 l/m² 4,1 km/h (1 Bft) W 273 ° 0 min 0 W/m² 6,8 °C 7,9 °C 6,4 km/h (2 Bft)
14.11.2024 21:38 21,1 °C 7,9 °C 59 % 93 % 1024,8 hPa 0,0 l/m² 3,0 km/h (1 Bft) W 272 ° 0 min 0 W/m² 6,8 °C 7,9 °C 4,8 km/h (1 Bft)
14.11.2024 21:39 21,1 °C 7,9 °C 59 % 93 % 1024,8 hPa 0,0 l/m² 2,9 km/h (1 Bft) W 274 ° 0 min 0 W/m² 6,8 °C 7,9 °C 4,8 km/h (1 Bft)
14.11.2024 21:40 21,1 °C 7,9 °C 59 % 93 % 1024,8 hPa 0,0 l/m² 3,6 km/h (1 Bft) W 279 ° 0 min 0 W/m² 6,8 °C 7,9 °C 6,4 km/h (2 Bft)
14.11.2024 21:41 21,1 °C 7,9 °C 59 % 93 % 1024,8 hPa 0,0 l/m² 3,5 km/h (1 Bft) W 277 ° 0 min 0 W/m² 6,8 °C 7,9 °C 4,8 km/h (1 Bft)
14.11.2024 21:42 21,1 °C 7,9 °C 59 % 93 % 1024,9 hPa 0,0 l/m² 4,4 km/h (1 Bft) W 270 ° 0 min 0 W/m² 6,8 °C 7,9 °C 6,4 km/h (2 Bft)
14.11.2024 21:43 21,1 °C 7,9 °C 59 % 93 % 1024,8 hPa 0,0 l/m² 3,4 km/h (1 Bft) W 274 ° 0 min 0 W/m² 6,8 °C 7,9 °C 4,8 km/h (1 Bft)
14.11.2024 21:44 21,1 °C 7,9 °C 59 % 93 % 1024,8 hPa 0,0 l/m² 2,5 km/h (1 Bft) W 273 ° 0 min 0 W/m² 6,8 °C 7,9 °C 4,8 km/h (1 Bft)
14.11.2024 21:45 21,1 °C 7,9 °C 59 % 93 % 1024,8 hPa 0,0 l/m² 3,2 km/h (1 Bft) W 263 ° 0 min 0 W/m² 6,8 °C 7,9 °C 6,4 km/h (2 Bft)
14.11.2024 21:46 21,1 °C 7,9 °C 59 % 93 % 1024,8 hPa 0,0 l/m² 3,3 km/h (1 Bft) W 261 ° 0 min 0 W/m² 6,8 °C 7,9 °C 6,4 km/h (2 Bft)
14.11.2024 21:47 21,1 °C 7,9 °C 59 % 93 % 1024,8 hPa 0,0 l/m² 3,2 km/h (1 Bft) W 265 ° 0 min 0 W/m² 6,8 °C 7,9 °C 4,8 km/h (1 Bft)
14.11.2024 21:48 21,1 °C 7,9 °C 59 % 93 % 1024,8 hPa 0,0 l/m² 3,5 km/h (1 Bft) W 264 ° 0 min 0 W/m² 6,8 °C 7,9 °C 4,8 km/h (1 Bft)
14.11.2024 21:49 21,1 °C 7,9 °C 59 % 93 % 1024,9 hPa 0,0 l/m² 1,8 km/h (1 Bft) W 265 ° 0 min 0 W/m² 6,8 °C 7,9 °C 3,2 km/h (1 Bft)
14.11.2024 21:50 21,1 °C 7,9 °C 59 % 93 % 1024,8 hPa 0,0 l/m² 3,1 km/h (1 Bft) W 261 ° 0 min 0 W/m² 6,8 °C 7,9 °C 4,8 km/h (1 Bft)
14.11.2024 21:51 21,1 °C 7,9 °C 59 % 93 % 1024,9 hPa 0,0 l/m² 3,1 km/h (1 Bft) W 259 ° 0 min 0 W/m² 6,8 °C 7,9 °C 4,8 km/h (1 Bft)
14.11.2024 21:52 21,1 °C 7,9 °C 59 % 93 % 1024,9 hPa 0,0 l/m² 3,0 km/h (1 Bft) W 261 ° 0 min 0 W/m² 6,8 °C 7,9 °C 4,8 km/h (1 Bft)
14.11.2024 21:53 21,1 °C 7,9 °C 59 % 93 % 1024,8 hPa 0,0 l/m² 2,8 km/h (1 Bft) W 261 ° 0 min 0 W/m² 6,8 °C 7,9 °C 4,8 km/h (1 Bft)
14.11.2024 21:54 21,1 °C 7,9 °C 59 % 93 % 1024,9 hPa 0,0 l/m² 2,1 km/h (1 Bft) W 262 ° 0 min 0 W/m² 6,8 °C 7,9 °C 4,8 km/h (1 Bft)
14.11.2024 21:55 21,1 °C 7,9 °C 59 % 93 % 1024,9 hPa 0,0 l/m² 2,4 km/h (1 Bft) W 265 ° 0 min 0 W/m² 6,8 °C 7,9 °C 4,8 km/h (1 Bft)
14.11.2024 21:56 21,1 °C 7,9 °C 59 % 93 % 1024,9 hPa 0,0 l/m² 2,9 km/h (1 Bft) W 270 ° 0 min 0 W/m² 6,8 °C 7,9 °C 4,8 km/h (1 Bft)
14.11.2024 21:57 21,1 °C 7,9 °C 59 % 93 % 1024,9 hPa 0,0 l/m² 3,4 km/h (1 Bft) W 271 ° 0 min 0 W/m² 6,8 °C 7,9 °C 4,8 km/h (1 Bft)
14.11.2024 21:58 21,1 °C 7,9 °C 59 % 93 % 1024,9 hPa 0,0 l/m² 2,4 km/h (1 Bft) W 272 ° 0 min 0 W/m² 6,8 °C 7,9 °C 4,8 km/h (1 Bft)
14.11.2024 21:59 21,1 °C 7,9 °C 59 % 93 % 1024,8 hPa 0,0 l/m² 0,8 km/h (0 Bft) W 273 ° 0 min 0 W/m² 6,8 °C 7,9 °C 3,2 km/h (1 Bft)
14.11.2024 22:00 21,1 °C 7,9 °C 59 % 93 % 1024,8 hPa 0,0 l/m² 0,9 km/h (0 Bft) W 273 ° 0 min 0 W/m² 6,8 °C 7,9 °C 3,2 km/h (1 Bft)
14.11.2024 22:01 21,1 °C 7,9 °C 59 % 93 % 1024,9 hPa 0,0 l/m² 1,7 km/h (1 Bft) W 269 ° 0 min 0 W/m² 6,8 °C 7,9 °C 3,2 km/h (1 Bft)
14.11.2024 22:02 21,1 °C 7,9 °C 59 % 93 % 1024,9 hPa 0,0 l/m² 0,5 km/h (0 Bft) W 269 ° 0 min 0 W/m² 6,8 °C 7,9 °C 3,2 km/h (1 Bft)
14.11.2024 22:03 21,1 °C 7,9 °C 59 % 93 % 1024,9 hPa 0,0 l/m² 0,0 km/h (0 Bft) W 269 ° 0 min 0 W/m² 6,8 °C 7,9 °C 0,0 km/h (0 Bft)
14.11.2024 22:04 21,1 °C 7,9 °C 59 % 93 % 1025,0 hPa 0,0 l/m² 0,4 km/h (0 Bft) W 278 ° 0 min 0 W/m² 6,8 °C 7,9 °C 1,6 km/h (1 Bft)
14.11.2024 22:05 21,1 °C 7,9 °C 59 % 93 % 1025,0 hPa 0,0 l/m² 0,0 km/h (0 Bft) W 278 ° 0 min 0 W/m² 6,8 °C 7,9 °C 0,0 km/h (0 Bft)
14.11.2024 22:06 21,0 °C 7,8 °C 59 % 93 % 1025,0 hPa 0,0 l/m² 0,7 km/h (0 Bft) W-NW 284 ° 0 min 0 W/m² 6,7 °C 7,8 °C 3,2 km/h (1 Bft)
14.11.2024 22:07 21,1 °C 7,9 °C 59 % 93 % 1025,0 hPa 0,0 l/m² 1,1 km/h (1 Bft) W 281 ° 0 min 0 W/m² 6,8 °C 7,9 °C 3,2 km/h (1 Bft)
14.11.2024 22:08 21,1 °C 7,8 °C 59 % 93 % 1025,0 hPa 0,0 l/m² 1,0 km/h (0 Bft) W 278 ° 0 min 0 W/m² 6,7 °C 7,8 °C 3,2 km/h (1 Bft)
14.11.2024 22:09 21,1 °C 7,9 °C 59 % 93 % 1025,0 hPa 0,0 l/m² 1,0 km/h (0 Bft) W 280 ° 0 min 0 W/m² 6,8 °C 7,9 °C 3,2 km/h (1 Bft)
14.11.2024 22:10 21,1 °C 7,8 °C 59 % 93 % 1024,9 hPa 0,0 l/m² 1,5 km/h (1 Bft) W 272 ° 0 min 0 W/m² 6,7 °C 7,8 °C 4,8 km/h (1 Bft)
14.11.2024 22:11 21,1 °C 7,8 °C 59 % 93 % 1025,1 hPa 0,0 l/m² 2,1 km/h (1 Bft) W 279 ° 0 min 0 W/m² 6,7 °C 7,8 °C 4,8 km/h (1 Bft)
14.11.2024 22:12 21,1 °C 7,9 °C 59 % 93 % 1025,0 hPa 0,0 l/m² 1,1 km/h (1 Bft) W-NW 286 ° 0 min 0 W/m² 6,8 °C 7,9 °C 6,4 km/h (2 Bft)
14.11.2024 22:13 21,1 °C 7,9 °C 59 % 93 % 1025,0 hPa 0,0 l/m² 4,3 km/h (1 Bft) W 267 ° 0 min 0 W/m² 6,8 °C 7,9 °C 9,7 km/h (2 Bft)
14.11.2024 22:14 21,1 °C 7,8 °C 59 % 93 % 1025,1 hPa 0,0 l/m² 2,7 km/h (1 Bft) W 278 ° 0 min 0 W/m² 6,7 °C 7,8 °C 4,8 km/h (1 Bft)
14.11.2024 22:15 21,1 °C 7,8 °C 59 % 93 % 1025,1 hPa 0,0 l/m² 4,1 km/h (1 Bft) W 281 ° 0 min 0 W/m² 6,7 °C 7,8 °C 6,4 km/h (2 Bft)
14.11.2024 22:16 21,1 °C 7,8 °C 59 % 93 % 1025,1 hPa 0,0 l/m² 6,0 km/h (2 Bft) W 265 ° 0 min 0 W/m² 6,7 °C 7,8 °C 16,1 km/h (3 Bft)
14.11.2024 22:17 21,1 °C 7,8 °C 59 % 93 % 1025,1 hPa 0,0 l/m² 12,0 km/h (2 Bft) W 270 ° 0 min 0 W/m² 6,7 °C 4,0 °C 19,3 km/h (3 Bft)
14.11.2024 22:18 21,1 °C 7,9 °C 60 % 93 % 1025,1 hPa 0,0 l/m² 11,0 km/h (2 Bft) W 273 ° 0 min 0 W/m² 6,8 °C 4,7 °C 17,7 km/h (3 Bft)
14.11.2024 22:19 21,1 °C 7,9 °C 60 % 93 % 1025,1 hPa 0,0 l/m² 5,6 km/h (2 Bft) W 270 ° 0 min 0 W/m² 6,8 °C 7,9 °C 9,7 km/h (2 Bft)
14.11.2024 22:20 21,0 °C 7,9 °C 60 % 93 % 1025,1 hPa 0,0 l/m² 5,8 km/h (2 Bft) W 275 ° 0 min 0 W/m² 6,8 °C 7,9 °C 9,7 km/h (2 Bft)
14.11.2024 22:21 21,1 °C 7,9 °C 60 % 93 % 1025,1 hPa 0,0 l/m² 8,5 km/h (2 Bft) W 279 ° 0 min 0 W/m² 6,8 °C 6,3 °C 11,3 km/h (2 Bft)
14.11.2024 22:22 21,1 °C 7,9 °C 60 % 93 % 1025,1 hPa 0,0 l/m² 5,2 km/h (1 Bft) W 277 ° 0 min 0 W/m² 6,8 °C 7,9 °C 6,4 km/h (2 Bft)
14.11.2024 22:23 21,1 °C 7,9 °C 60 % 93 % 1025,1 hPa 0,0 l/m² 9,1 km/h (2 Bft) W 277 ° 0 min 0 W/m² 6,8 °C 5,9 °C 12,9 km/h (3 Bft)
14.11.2024 22:24 21,1 °C 7,9 °C 60 % 93 % 1025,1 hPa 0,0 l/m² 5,2 km/h (1 Bft) W-NW 294 ° 0 min 0 W/m² 6,8 °C 7,9 °C 9,7 km/h (2 Bft)
14.11.2024 22:25 21,0 °C 7,9 °C 60 % 93 % 1025,1 hPa 0,0 l/m² 5,6 km/h (2 Bft) W-NW 292 ° 0 min 0 W/m² 6,8 °C 7,9 °C 9,7 km/h (2 Bft)
14.11.2024 22:26 21,0 °C 8,0 °C 60 % 93 % 1025,1 hPa 0,0 l/m² 5,5 km/h (2 Bft) W-NW 300 ° 0 min 0 W/m² 6,9 °C 8,0 °C 9,7 km/h (2 Bft)
14.11.2024 22:27 21,0 °C 8,0 °C 60 % 93 % 1025,2 hPa 0,0 l/m² 2,6 km/h (1 Bft) W 267 ° 0 min 0 W/m² 6,9 °C 8,0 °C 6,4 km/h (2 Bft)
14.11.2024 22:28 21,1 °C 8,0 °C 60 % 93 % 1025,2 hPa 0,0 l/m² 4,8 km/h (1 Bft) W 271 ° 0 min 0 W/m² 6,9 °C 8,0 °C 11,3 km/h (2 Bft)
14.11.2024 22:29 21,1 °C 8,0 °C 60 % 93 % 1025,1 hPa 0,0 l/m² 4,9 km/h (1 Bft) W 280 ° 0 min 0 W/m² 6,9 °C 8,0 °C 11,3 km/h (2 Bft)
14.11.2024 22:30 21,0 °C 8,1 °C 60 % 93 % 1025,1 hPa 0,0 l/m² 10,4 km/h (2 Bft) W 271 ° 0 min 0 W/m² 7,0 °C 5,2 °C 16,1 km/h (3 Bft)
14.11.2024 22:31 21,0 °C 8,0 °C 60 % 93 % 1025,1 hPa 0,0 l/m² 7,7 km/h (2 Bft) W-NW 286 ° 0 min 0 W/m² 6,9 °C 7,0 °C 11,3 km/h (2 Bft)
14.11.2024 22:32 21,0 °C 8,1 °C 60 % 93 % 1025,0 hPa 0,0 l/m² 6,6 km/h (2 Bft) W-NW 282 ° 0 min 0 W/m² 7,0 °C 8,0 °C 12,9 km/h (3 Bft)
14.11.2024 22:33 21,0 °C 8,1 °C 60 % 93 % 1025,1 hPa 0,0 l/m² 10,5 km/h (2 Bft) W-NW 290 ° 0 min 0 W/m² 7,0 °C 5,2 °C 14,5 km/h (3 Bft)
14.11.2024 22:34 21,0 °C 8,1 °C 60 % 93 % 1025,1 hPa 0,0 l/m² 6,4 km/h (2 Bft) W-NW 283 ° 0 min 0 W/m² 7,0 °C 8,1 °C 12,9 km/h (3 Bft)
14.11.2024 22:35 21,0 °C 8,1 °C 60 % 93 % 1025,1 hPa 0,0 l/m² 8,1 km/h (2 Bft) W 280 ° 0 min 0 W/m² 7,0 °C 6,8 °C 11,3 km/h (2 Bft)
14.11.2024 22:36 21,0 °C 8,1 °C 60 % 93 % 1025,1 hPa 0,0 l/m² 4,3 km/h (1 Bft) W 271 ° 0 min 0 W/m² 7,0 °C 8,1 °C 9,7 km/h (2 Bft)
14.11.2024 22:37 21,1 °C 8,1 °C 60 % 93 % 1025,1 hPa 0,0 l/m² 7,2 km/h (2 Bft) W 267 ° 0 min 0 W/m² 7,0 °C 7,5 °C 11,3 km/h (2 Bft)
14.11.2024 22:38 21,0 °C 8,1 °C 60 % 93 % 1025,1 hPa 0,0 l/m² 4,8 km/h (1 Bft) W 262 ° 0 min 0 W/m² 7,0 °C 8,1 °C 9,7 km/h (2 Bft)
14.11.2024 22:39 21,0 °C 8,1 °C 60 % 93 % 1025,0 hPa 0,0 l/m² 5,8 km/h (2 Bft) W 270 ° 0 min 0 W/m² 7,0 °C 8,1 °C 9,7 km/h (2 Bft)
14.11.2024 22:40 21,0 °C 8,1 °C 60 % 93 % 1025,0 hPa 0,0 l/m² 5,6 km/h (2 Bft) W 261 ° 0 min 0 W/m² 7,0 °C 8,1 °C 9,7 km/h (2 Bft)
14.11.2024 22:41 21,0 °C 8,1 °C 60 % 93 % 1025,0 hPa 0,0 l/m² 3,9 km/h (1 Bft) W 267 ° 0 min 0 W/m² 7,0 °C 8,1 °C 6,4 km/h (2 Bft)
14.11.2024 22:43 21,0 °C 8,1 °C 60 % 93 % 1025,0 hPa 0,0 l/m² 3,9 km/h (1 Bft) W 259 ° 0 min 0 W/m² 7,0 °C 8,1 °C 6,4 km/h (2 Bft)
14.11.2024 22:44 21,0 °C 8,1 °C 60 % 93 % 1025,0 hPa 0,0 l/m² 3,4 km/h (1 Bft) W 259 ° 0 min 0 W/m² 7,0 °C 8,1 °C 4,8 km/h (1 Bft)
14.11.2024 22:45 21,0 °C 8,1 °C 60 % 93 % 1025,0 hPa 0,0 l/m² 2,1 km/h (1 Bft) W 259 ° 0 min 0 W/m² 7,0 °C 8,1 °C 3,2 km/h (1 Bft)
14.11.2024 22:46 21,0 °C 8,1 °C 60 % 93 % 1025,0 hPa 0,0 l/m² 2,3 km/h (1 Bft) W 259 ° 0 min 0 W/m² 7,0 °C 8,1 °C 4,8 km/h (1 Bft)
14.11.2024 22:47 21,0 °C 8,1 °C 60 % 93 % 1025,0 hPa 0,0 l/m² 1,8 km/h (1 Bft) W 259 ° 0 min 0 W/m² 7,0 °C 8,1 °C 3,2 km/h (1 Bft)
14.11.2024 22:48 21,1 °C 8,1 °C 60 % 93 % 1025,0 hPa 0,0 l/m² 1,7 km/h (1 Bft) W 259 ° 0 min 0 W/m² 7,0 °C 8,1 °C 3,2 km/h (1 Bft)
14.11.2024 22:49 21,0 °C 8,1 °C 60 % 93 % 1025,0 hPa 0,0 l/m² 1,3 km/h (1 Bft) W 259 ° 0 min 0 W/m² 7,0 °C 8,1 °C 3,2 km/h (1 Bft)
14.11.2024 22:50 21,0 °C 8,1 °C 60 % 93 % 1025,0 hPa 0,0 l/m² 1,1 km/h (1 Bft) W 261 ° 0 min 0 W/m² 7,0 °C 8,1 °C 1,6 km/h (1 Bft)
14.11.2024 22:51 21,0 °C 8,1 °C 60 % 93 % 1025,1 hPa 0,0 l/m² 0,1 km/h (0 Bft) W 261 ° 0 min 0 W/m² 7,0 °C 8,1 °C 1,6 km/h (1 Bft)
14.11.2024 22:52 21,0 °C 8,1 °C 60 % 93 % 1025,0 hPa 0,0 l/m² 0,2 km/h (0 Bft) W 261 ° 0 min 0 W/m² 7,0 °C 8,1 °C 1,6 km/h (1 Bft)
14.11.2024 22:53 21,0 °C 8,0 °C 60 % 93 % 1025,1 hPa 0,0 l/m² 0,3 km/h (0 Bft) W 261 ° 0 min 0 W/m² 6,9 °C 8,0 °C 1,6 km/h (1 Bft)
14.11.2024 22:54 21,0 °C 8,1 °C 60 % 93 % 1025,0 hPa 0,0 l/m² 0,0 km/h (0 Bft) W 261 ° 0 min 0 W/m² 7,0 °C 8,1 °C 0,0 km/h (0 Bft)
14.11.2024 22:55 21,0 °C 8,1 °C 60 % 93 % 1025,0 hPa 0,0 l/m² 0,0 km/h (0 Bft) W 261 ° 0 min 0 W/m² 7,0 °C 8,1 °C 0,0 km/h (0 Bft)
14.11.2024 22:56 21,0 °C 8,0 °C 60 % 93 % 1025,1 hPa 0,0 l/m² 0,2 km/h (0 Bft) W 264 ° 0 min 0 W/m² 6,9 °C 8,0 °C 1,6 km/h (1 Bft)
14.11.2024 22:57 21,0 °C 8,1 °C 60 % 93 % 1025,1 hPa 0,0 l/m² 0,9 km/h (0 Bft) W 267 ° 0 min 0 W/m² 7,0 °C 8,1 °C 3,2 km/h (1 Bft)
14.11.2024 22:58 21,0 °C 8,0 °C 60 % 93 % 1025,0 hPa 0,0 l/m² 2,2 km/h (1 Bft) W-NW 294 ° 0 min 0 W/m² 6,9 °C 8,0 °C 4,8 km/h (1 Bft)
14.11.2024 22:59 21,0 °C 8,0 °C 60 % 93 % 1025,1 hPa 0,0 l/m² 1,6 km/h (1 Bft) W-NW 294 ° 0 min 0 W/m² 6,9 °C 8,0 °C 4,8 km/h (1 Bft)
14.11.2024 23:00 21,0 °C 8,0 °C 60 % 93 % 1025,0 hPa 0,0 l/m² 2,6 km/h (1 Bft) W 281 ° 0 min 0 W/m² 6,9 °C 8,0 °C 4,8 km/h (1 Bft)
14.11.2024 23:01 21,0 °C 8,0 °C 60 % 93 % 1025,0 hPa 0,0 l/m² 2,5 km/h (1 Bft) W 267 ° 0 min 0 W/m² 6,9 °C 8,0 °C 4,8 km/h (1 Bft)
14.11.2024 23:02 21,0 °C 8,0 °C 60 % 93 % 1025,0 hPa 0,0 l/m² 1,7 km/h (1 Bft) W 268 ° 0 min 0 W/m² 6,9 °C 8,0 °C 3,2 km/h (1 Bft)
14.11.2024 23:03 21,0 °C 8,0 °C 60 % 93 % 1025,0 hPa 0,0 l/m² 2,7 km/h (1 Bft) W 273 ° 0 min 0 W/m² 6,9 °C 8,0 °C 4,8 km/h (1 Bft)
14.11.2024 23:04 21,0 °C 8,0 °C 60 % 93 % 1025,0 hPa 0,0 l/m² 1,1 km/h (1 Bft) W 273 ° 0 min 0 W/m² 6,9 °C 8,0 °C 3,2 km/h (1 Bft)
14.11.2024 23:05 21,1 °C 8,0 °C 60 % 93 % 1025,0 hPa 0,0 l/m² 0,8 km/h (0 Bft) W 275 ° 0 min 0 W/m² 6,9 °C 8,0 °C 1,6 km/h (1 Bft)
14.11.2024 23:06 21,0 °C 8,0 °C 60 % 93 % 1025,1 hPa 0,0 l/m² 0,7 km/h (0 Bft) W 275 ° 0 min 0 W/m² 6,9 °C 8,0 °C 3,2 km/h (1 Bft)
14.11.2024 23:07 21,0 °C 7,9 °C 60 % 93 % 1025,2 hPa 0,0 l/m² 3,2 km/h (1 Bft) W-NW 286 ° 0 min 0 W/m² 6,8 °C 7,9 °C 4,8 km/h (1 Bft)
14.11.2024 23:08 21,0 °C 8,0 °C 60 % 93 % 1025,1 hPa 0,0 l/m² 2,6 km/h (1 Bft) W 278 ° 0 min 0 W/m² 6,9 °C 8,0 °C 4,8 km/h (1 Bft)
14.11.2024 23:09 21,0 °C 7,9 °C 60 % 93 % 1025,1 hPa 0,0 l/m² 3,9 km/h (1 Bft) W 280 ° 0 min 0 W/m² 6,8 °C 7,9 °C 4,8 km/h (1 Bft)
14.11.2024 23:10 21,0 °C 7,9 °C 60 % 93 % 1025,0 hPa 0,0 l/m² 3,7 km/h (1 Bft) W 267 ° 0 min 0 W/m² 6,8 °C 7,9 °C 4,8 km/h (1 Bft)
14.11.2024 23:11 21,0 °C 7,9 °C 60 % 93 % 1025,2 hPa 0,0 l/m² 3,8 km/h (1 Bft) W 275 ° 0 min 0 W/m² 6,8 °C 7,9 °C 6,4 km/h (2 Bft)
14.11.2024 23:12 21,1 °C 7,9 °C 60 % 93 % 1025,1 hPa 0,0 l/m² 5,0 km/h (1 Bft) W 263 ° 0 min 0 W/m² 6,8 °C 7,9 °C 6,4 km/h (2 Bft)
14.11.2024 23:13 21,0 °C 7,9 °C 60 % 93 % 1025,2 hPa 0,0 l/m² 4,6 km/h (1 Bft) W 276 ° 0 min 0 W/m² 6,8 °C 7,9 °C 6,4 km/h (2 Bft)
14.11.2024 23:14 21,0 °C 7,9 °C 60 % 93 % 1025,2 hPa 0,0 l/m² 4,5 km/h (1 Bft) W 273 ° 0 min 0 W/m² 6,8 °C 7,9 °C 6,4 km/h (2 Bft)
14.11.2024 23:15 21,0 °C 7,9 °C 60 % 93 % 1025,1 hPa 0,0 l/m² 4,6 km/h (1 Bft) W 272 ° 0 min 0 W/m² 6,8 °C 7,9 °C 6,4 km/h (2 Bft)
14.11.2024 23:16 21,0 °C 7,9 °C 60 % 93 % 1025,1 hPa 0,0 l/m² 3,2 km/h (1 Bft) W 270 ° 0 min 0 W/m² 6,8 °C 7,9 °C 4,8 km/h (1 Bft)
14.11.2024 23:17 21,0 °C 7,9 °C 60 % 93 % 1025,1 hPa 0,0 l/m² 4,8 km/h (1 Bft) W 270 ° 0 min 0 W/m² 6,8 °C 7,9 °C 6,4 km/h (2 Bft)
14.11.2024 23:18 21,0 °C 7,9 °C 60 % 93 % 1025,1 hPa 0,0 l/m² 3,2 km/h (1 Bft) W 270 ° 0 min 0 W/m² 6,8 °C 7,9 °C 4,8 km/h (1 Bft)
14.11.2024 23:19 21,0 °C 7,9 °C 60 % 93 % 1025,1 hPa 0,0 l/m² 3,2 km/h (1 Bft) W 270 ° 0 min 0 W/m² 6,8 °C 7,9 °C 4,8 km/h (1 Bft)
14.11.2024 23:20 21,1 °C 7,8 °C 60 % 93 % 1025,1 hPa 0,0 l/m² 3,2 km/h (1 Bft) W 270 ° 0 min 0 W/m² 6,7 °C 7,8 °C 4,8 km/h (1 Bft)
14.11.2024 23:26 21,0 °C 7,8 °C 60 % 93 % 1025,2 hPa 0,0 l/m² 0,0 km/h (0 Bft) W 272 ° 0 min 0 W/m² 6,7 °C 7,8 °C 0,0 km/h (0 Bft)
14.11.2024 23:28 21,0 °C 7,8 °C 60 % 93 % 1025,2 hPa 0,0 l/m² 0,0 km/h (0 Bft) W 272 ° 0 min 0 W/m² 6,7 °C 7,8 °C 0,0 km/h (0 Bft)
14.11.2024 23:30 21,0 °C 7,8 °C 60 % 93 % 1025,2 hPa 0,0 l/m² 0,0 km/h (0 Bft) W 272 ° 0 min 0 W/m² 6,7 °C 7,8 °C 0,0 km/h (0 Bft)
14.11.2024 23:31 21,0 °C 7,8 °C 60 % 93 % 1025,2 hPa 0,0 l/m² 0,0 km/h (0 Bft) W 272 ° 0 min 0 W/m² 6,7 °C 7,8 °C 0,0 km/h (0 Bft)
14.11.2024 23:32 21,0 °C 7,8 °C 60 % 93 % 1025,2 hPa 0,0 l/m² 0,0 km/h (0 Bft) W 272 ° 0 min 0 W/m² 6,7 °C 7,8 °C 0,0 km/h (0 Bft)
14.11.2024 23:35 21,1 °C 7,8 °C 60 % 93 % 1025,3 hPa 0,0 l/m² 1,2 km/h (1 Bft) N-NO 20 ° 0 min 0 W/m² 6,7 °C 7,8 °C 3,2 km/h (1 Bft)
14.11.2024 23:37 21,1 °C 7,8 °C 60 % 93 % 1025,2 hPa 0,0 l/m² 2,4 km/h (1 Bft) N-NO 26 ° 0 min 0 W/m² 6,7 °C 7,8 °C 6,4 km/h (2 Bft)
14.11.2024 23:39 21,1 °C 7,8 °C 60 % 93 % 1025,2 hPa 0,0 l/m² 1,7 km/h (1 Bft) N-NO 22 ° 0 min 0 W/m² 6,7 °C 7,8 °C 4,8 km/h (1 Bft)
14.11.2024 23:40 21,1 °C 7,8 °C 60 % 93 % 1025,2 hPa 0,0 l/m² 0,3 km/h (0 Bft) N-NO 22 ° 0 min 0 W/m² 6,7 °C 7,8 °C 3,2 km/h (1 Bft)
14.11.2024 23:41 21,1 °C 7,8 °C 60 % 93 % 1025,2 hPa 0,0 l/m² 0,4 km/h (0 Bft) N-NO 22 ° 0 min 0 W/m² 6,7 °C 7,8 °C 1,6 km/h (1 Bft)
14.11.2024 23:42 21,1 °C 7,8 °C 60 % 93 % 1025,2 hPa 0,0 l/m² 1,0 km/h (0 Bft) N-NO 22 ° 0 min 0 W/m² 6,7 °C 7,8 °C 1,6 km/h (1 Bft)
14.11.2024 23:44 21,1 °C 7,8 °C 60 % 93 % 1025,1 hPa 0,0 l/m² 0,1 km/h (0 Bft) N-NO 22 ° 0 min 0 W/m² 6,7 °C 7,8 °C 1,6 km/h (1 Bft)
14.11.2024 23:45 21,1 °C 7,8 °C 60 % 93 % 1025,2 hPa 0,0 l/m² 0,1 km/h (0 Bft) N-NO 22 ° 0 min 0 W/m² 6,7 °C 7,8 °C 1,6 km/h (1 Bft)
14.11.2024 23:47 21,1 °C 7,8 °C 60 % 93 % 1025,2 hPa 0,0 l/m² 0,6 km/h (0 Bft) N-NO 22 ° 0 min 0 W/m² 6,7 °C 7,8 °C 3,2 km/h (1 Bft)
14.11.2024 23:49 21,1 °C 7,8 °C 60 % 93 % 1025,1 hPa 0,0 l/m² 0,0 km/h (0 Bft) N-NO 22 ° 0 min 0 W/m² 6,7 °C 7,8 °C 0,0 km/h (0 Bft)
14.11.2024 23:50 21,1 °C 7,8 °C 60 % 93 % 1025,2 hPa 0,0 l/m² 0,0 km/h (0 Bft) N-NO 22 ° 0 min 0 W/m² 6,7 °C 7,8 °C 0,0 km/h (0 Bft)
14.11.2024 23:51 21,1 °C 7,8 °C 60 % 93 % 1025,2 hPa 0,0 l/m² 0,0 km/h (0 Bft) N-NO 22 ° 0 min 0 W/m² 6,7 °C 7,8 °C 0,0 km/h (0 Bft)
14.11.2024 23:52 21,1 °C 7,8 °C 60 % 93 % 1025,2 hPa 0,0 l/m² 0,0 km/h (0 Bft) N-NO 22 ° 0 min 0 W/m² 6,7 °C 7,8 °C 0,0 km/h (0 Bft)
14.11.2024 23:54 21,1 °C 7,8 °C 60 % 93 % 1025,2 hPa 0,0 l/m² 0,0 km/h (0 Bft) N-NO 22 ° 0 min 0 W/m² 6,7 °C 7,8 °C 0,0 km/h (0 Bft)
14.11.2024 23:55 21,1 °C 7,8 °C 60 % 93 % 1025,2 hPa 0,0 l/m² 0,0 km/h (0 Bft) N-NO 22 ° 0 min 0 W/m² 6,7 °C 7,8 °C 0,0 km/h (0 Bft)
14.11.2024 23:57 21,1 °C 7,8 °C 60 % 93 % 1025,2 hPa 0,0 l/m² 0,0 km/h (0 Bft) N-NO 22 ° 0 min 0 W/m² 6,7 °C 7,8 °C 0,0 km/h (0 Bft)
14.11.2024 23:59 21,1 °C 7,8 °C 60 % 93 % 1025,2 hPa 0,0 l/m² 0,0 km/h (0 Bft) N-NO 22 ° 0 min 0 W/m² 6,7 °C 7,8 °C 0,0 km/h (0 Bft)
_ Min-Zeit 08:33 00:29 10:48 14:10 14:18 - 23:59 - - - - 00:29 10:14 23:59
Minimum _ 20,8 °C 1,3 °C 56 % 88 % 1022,8 hPa - 0,0 km/h (0 Bft) - - - - 0,3 °C 1,3 °C 0,0 km/h (0 Bft)
_ Max-Zeit 20:37 13:55 20:30 10:48 00:03 20:50 13:43 - - 13:13 12:50 12:52 15:24 13:43
Maximum _ 21,3 °C 9,3 °C 62 % 96 % 1027,6 hPa 0,2 l/m² 22,9 km/h
W (4 Bft)
- - 2 min 107 W/m² 8,2 °C 9,2 °C 32,2 km/h
W (5 Bft)
Durchschnitt _ 21,0 °C 6,8 °C 58 % 93 % 1024,2 hPa #2,0 l/m² 6,3 km/h (2 Bft) W - #2:31 h 14 W/m² 5,8 °C 5,8 °C 9,8 km/h (2 Bft)
© 2009 Mathias Hoßbach